[[{"header":{"parameterUnit":"m.s-1","parameterCategory":1,"la1":31.0,"la2":29.5877,"lo1":-88.7671,"lo2":-86.6584,"dy":0.0162,"dx":0.0185,"nx":115,"ny":88,"refTime":"2023-05-24T18:00:00:Z","depth":0,"parameterNumber":2,"parameterNumberName":"U-component_of_WINDS"},"data":[0.0,0.0,0.0,0.0,0.0,0.0,0.0,0.0,0.0,0.0,0.0,0.0,0.0,0.0,0.0,0.0,0.0,0.0,0.0,0.0,0.0,0.0,0.0,0.0,0.0,0.0,0.0,0.0,0.0,0.0,0.0,0.0,0.0,0.0,0.0,0.0,0.0,0.0,0.0,0.0,0.0,0.0,0.0,0.0,0.0,0.0,0.0,0.0,0.0,0.0,0.0,0.0,0.0,0.0,0.0,0.0,0.0,0.0,0.0,0.0,0.0,0.0,0.0,0.0,0.0,0.0,0.0,0.0,0.0,0.0,0.0,0.0,0.0,0.0,0.0,0.0,0.0,0.0,0.0,0.0,0.0,0.0,0.0,0.0,0.0,0.0,0.0,0.0,0.0,0.0,0.0,0.0,0.0,0.0,0.0,0.0,0.0,0.0,0.0,0.0,0.0,0.0,0.0,0.0,0.0,0.0,0.0,0.0,0.0,0.0,0.0,0.0,0.0,0.0,0.0,0.0,0.0,0.0,0.0,0.0,0.0,0.0,0.0,0.0,0.0,0.0,0.0,0.0,0.0,0.0,0.0,0.0,0.0,0.0,0.0,0.0,0.0,0.0,0.0,0.0,0.0,0.0,0.0,0.0,0.0,0.0,0.0,0.0,0.0,0.0,0.0,0.0,0.0,0.0,0.0,0.0,0.0,0.0,0.0,0.0,0.0,0.0,0.0,0.0,0.0,0.0,0.0,0.0,0.0,0.0,0.0,0.0,0.0,0.0,0.0,0.0,0.0,0.0,0.0,0.0,0.0,0.0,0.0,0.0,0.0,0.0,0.0,0.0,0.0,0.0,0.0,0.0,0.0,0.0,0.0,0.0,0.0,0.0,0.0,0.0,0.0,0.0,0.0,0.0,0.0,0.0,0.0,0.0,0.0,0.0,0.0,0.0,0.0,0.0,0.0,0.0,0.0,0.0,0.0,0.0,0.0,0.0,0.0,0.0,0.0,0.0,0.0,0.0,0.0,0.0,0.0,0.0,0.0,0.0,0.0,0.0,0.0,0.0,0.0,0.0,0.0,0.0,0.0,0.0,0.0,0.0,0.0,0.0,0.0,0.0,0.0,0.0,0.0,0.0,0.0,0.0,0.0,0.0,0.0,0.0,0.0,0.0,0.0,0.0,0.0,0.0,0.0,0.0,0.0,0.0,0.0,0.0,0.0,0.0,0.0,0.0,0.0,0.0,0.0,0.0,0.0,0.0,0.0,0.0,0.0,0.0,0.0,0.0,0.0,0.0,0.0,0.0,0.0,0.0,0.0,0.0,0.0,0.0,0.0,0.0,0.0,0.0,0.0,0.0,0.0,0.0,0.0,0.0,0.0,0.0,0.0,0.0,0.0,0.0,0.0,0.0,0.0,0.0,0.0,0.0,0.0,0.0,0.0,0.0,0.0,0.0,0.0,0.0,0.0,0.0,0.0,0.0,0.0,0.0,0.0,0.0,0.0,0.0,0.0,0.0,0.0,0.0,0.0,0.0,0.0,0.0,0.0,0.0,0.0,0.0,0.0,0.0,0.0,0.0,0.0,0.0,0.0,0.0,0.0,0.0,0.0,0.0,0.0,0.0,0.0,0.0,0.0,0.0,0.0,0.0,0.0,0.0,0.0,0.0,0.0,0.0,0.0,0.0,0.0,0.0,0.0,0.0,0.0,0.0,0.0,0.0,0.0,0.0,0.0,0.0,0.0,0.0,0.0,0.0,0.0,0.0,0.0,0.0,0.0,0.0,0.0,0.0,0.0,0.0,0.0,0.0,0.0,0.0,0.0,0.0,0.0,0.0,0.0,0.0,0.0,0.0,0.0,0.0,0.0,0.0,0.0,0.0,0.0,0.0,0.0,0.0,0.0,0.0,0.0,0.0,0.0,0.0,0.0,0.0,0.0,0.0,0.0,0.0,0.0,0.0,0.0,0.0,0.0,0.0,0.0,0.0,0.0,0.0,0.0,0.0,0.0,0.0,0.0,0.0,0.0,0.0,0.0,0.0,0.0,0.0,0.0,0.0,0.0,0.0,0.0,0.0,0.0,0.0,0.0,0.0,0.0,0.0,0.0,0.0,0.0,0.0,0.0,0.0,0.0,0.0,0.0,0.0,0.0,0.0,0.0,0.0,0.0,0.0,0.0,0.0,0.0,0.0,0.0,0.0,0.0,0.0,0.0,0.0,0.0,0.0,0.0,0.0,0.0,0.0,0.0,0.0,0.0,0.0,0.0,0.0,0.0,0.0,0.0,0.0,0.0,0.0,0.0,0.0,0.0,0.0,0.0,0.0,0.0,0.0,0.0,0.0,0.0,0.0,0.0,0.0,0.0,0.0,0.0,0.0,0.0,0.0,0.0,0.0,0.0,0.0,0.0,0.0,0.0,0.0,0.0,0.0,0.0,0.0,0.0,0.0,0.0,0.0,0.0,0.0,0.0,0.0,0.0,0.0,0.0,0.0,0.0,0.0,0.0,0.0,0.0,0.0,0.0,0.0,0.0,0.0,0.0,0.0,0.0,0.0,0.0,0.0,0.0,0.0,0.0,0.0,0.0,0.0,0.0,0.0,0.0,0.0,0.0,0.0,0.0,0.0,0.0,0.0,0.0,0.0,0.0,0.0,0.0,0.0,0.0,0.0,0.0,0.0,0.0,0.0,0.0,0.0,0.0,0.0,0.0,0.0,0.0,0.0,0.0,0.0,0.0,0.0,0.0,0.0,0.0,0.0,0.0,0.0,0.0,0.0,0.0,0.0,0.0,0.0,0.0,0.0,0.0,0.0,0.0,0.0,0.0,0.0,0.0,0.0,0.0,0.0,0.0,0.0,0.0,0.0,0.0,0.0,0.0,0.0,0.0,0.0,0.0,0.0,0.0,0.0,0.0,0.0,0.0,0.0,0.0,0.0,0.0,0.0,0.0,0.0,0.0,0.0,0.0,0.0,0.0,0.0,0.0,0.0,0.0,0.0,0.0,0.0,0.0,0.0,0.0,0.0,0.0,0.0,0.0,0.0,0.0,0.0,0.0,0.0,0.0,0.0,0.0,0.0,0.0,0.0,0.0,0.0,0.0,0.0,0.0,0.0,0.0,0.0,0.0,0.0,0.0,0.0,0.0,0.0,0.0,0.0,0.0,0.0,0.0,0.0,0.0,0.0,0.0,0.0,0.0,0.0,0.0,0.0,0.0,0.0,0.0,0.0,0.0,0.0,0.0,0.0,0.0,0.0,0.0,0.0,0.0,0.0,0.0,0.0,0.0,0.0,0.0,0.0,0.0,0.0,0.0,0.0,0.0,0.0,0.0,0.0,0.0,0.0,0.0,0.0,0.0,0.0,0.0,0.0,0.0,0.0,0.0,0.0,0.0,0.0,0.0,0.0,0.0,0.0,0.0,0.0,0.0,0.0,0.0,0.0,0.0,0.0,0.0,0.0,0.0,0.0,0.0,0.0,0.0,0.0,0.0,0.0,0.0,0.0,0.0,0.0,0.0,0.0,0.0,0.0,0.0,0.0,0.0,0.0,0.0,0.0,0.0,0.0,0.0,0.0,0.0,0.0,0.0,0.0,0.0,0.0,0.0,0.0,0.0,0.0,0.0,0.0,0.0,0.0,0.0,0.0,0.0,0.0,0.0,0.0,0.0,0.0,0.0,0.0,0.0,0.0,0.0,0.0,0.0,0.0,0.0,0.0,0.0,0.0,0.0,0.0,0.0,0.0,0.0,0.0,0.0,0.0,0.0,0.0,0.0,0.0,0.0,0.0,0.0,0.0,0.0,0.0,0.0,0.0,0.0,0.0,0.0,0.0,0.0,0.0,0.0,0.0,0.0,0.0,0.0,0.0,0.0,0.0,0.0,0.0,0.0,0.0,0.0,0.0,0.0,0.0,0.0,0.0,0.0,0.0,0.0,0.0,0.0,0.0,0.0,0.0,0.0,0.0,0.0,0.0,0.0,0.0,0.0,0.0,0.0,0.0,0.0,0.0,0.0,0.0,0.0,0.0,0.0,0.0,0.0,0.0,0.0,0.0,0.0,0.0,0.0,0.0,0.0,0.0,0.0,0.0,0.0,0.0,0.0,0.0,0.0,0.0,0.0,0.0,0.0,0.0,0.0,0.0,0.0,0.0,0.0,0.0,0.0,0.0,0.0,0.0,0.0,0.0,0.0,0.0,0.0,0.0,0.0,0.0,0.0,0.0,0.0,0.0,0.0,0.0,0.0,0.0,0.0,0.0,0.0,0.0,0.0,0.0,0.0,0.0,0.0,0.0,2.775,0.0,0.0,0.0,0.0,0.0,0.0,0.0,0.0,0.0,0.0,0.0,0.0,0.0,0.0,0.0,0.0,0.0,0.0,0.0,0.0,0.0,0.0,0.0,0.0,0.0,0.0,0.0,0.0,0.0,0.0,0.0,0.0,0.0,0.0,0.0,0.0,0.0,0.0,0.0,0.0,0.0,0.0,0.0,0.0,0.0,0.0,0.0,0.0,0.0,0.0,0.0,0.0,0.0,0.0,0.0,0.0,0.0,0.0,0.0,0.0,0.0,0.0,0.0,0.0,0.0,0.0,0.0,0.0,0.0,0.0,0.0,0.0,0.0,0.0,0.0,0.0,0.0,0.0,0.0,0.0,0.0,0.0,0.0,0.0,0.0,0.0,0.0,0.0,0.0,0.0,0.0,0.0,0.0,0.0,0.0,0.0,0.0,0.0,0.0,0.0,0.0,0.0,0.0,0.0,0.0,0.0,0.0,0.0,0.0,0.0,2.6652,2.6165,2.6416,2.6364,2.5979,0.0,0.0,0.0,0.0,0.0,0.0,0.0,0.0,0.0,0.0,0.0,0.0,0.0,0.0,0.0,0.0,0.0,0.0,0.0,0.0,0.0,0.0,0.0,0.0,0.0,0.0,0.0,0.0,0.0,0.0,0.0,0.0,0.0,0.0,0.0,0.0,0.0,0.0,0.0,0.0,0.0,0.0,0.0,0.0,0.0,0.0,0.0,0.0,0.0,0.0,0.0,0.0,0.0,0.0,0.0,0.0,0.0,0.0,0.0,0.0,0.0,0.0,0.0,0.0,0.0,0.0,0.0,0.0,0.0,0.0,0.0,0.0,0.0,0.0,0.0,0.0,0.0,0.0,0.0,0.0,0.0,0.0,0.0,0.0,0.0,0.0,0.0,0.0,0.0,0.0,0.0,0.0,0.0,0.0,0.0,0.0,0.0,0.0,0.0,0.0,0.0,0.0,0.0,0.0,0.0,0.0,0.0,0.0,0.0,0.0,0.0,0.0,2.4512,2.4541,2.4163,0.0,0.0,0.0,0.0,0.0,0.0,0.0,0.0,0.0,0.0,0.0,0.0,0.0,0.0,0.0,0.0,0.0,0.0,0.0,0.0,0.0,0.0,0.0,0.0,0.0,0.0,0.0,0.0,0.0,0.0,0.0,0.0,0.0,0.0,0.0,0.0,0.0,0.0,0.0,0.0,0.0,0.0,0.0,0.0,0.0,0.0,0.0,0.0,0.0,0.0,0.0,0.0,0.0,0.0,0.0,0.0,0.0,0.0,0.0,0.0,0.0,0.0,0.0,0.0,0.0,0.0,0.0,0.0,0.0,0.0,0.0,0.0,0.0,0.0,0.0,0.0,0.0,0.0,0.0,0.0,0.0,0.0,0.0,0.0,0.0,0.0,0.0,0.0,0.0,0.0,0.0,0.0,0.0,0.0,0.0,0.0,0.0,0.0,0.0,0.0,0.0,0.0,0.0,0.0,0.0,0.0,0.0,0.0,0.0,0.0,2.182,2.1646,2.1596,0.0,2.2078,0.0,0.0,0.0,0.0,0.0,0.0,0.0,0.0,0.0,0.0,0.0,0.0,0.0,0.0,0.0,0.0,0.0,0.0,0.0,0.0,0.0,0.0,0.0,0.0,0.0,0.0,0.0,0.0,0.0,0.0,0.0,0.0,0.0,0.0,0.0,0.0,0.0,0.0,0.0,0.0,0.0,0.0,0.0,0.0,0.0,0.0,0.0,0.0,0.0,0.0,0.0,0.0,0.0,0.0,0.0,0.0,0.0,0.0,0.0,0.0,0.0,0.0,0.0,0.0,0.0,0.0,0.0,0.0,0.0,0.0,0.0,0.0,0.0,0.0,0.0,0.0,0.0,0.0,0.0,0.0,0.0,0.0,0.0,0.0,0.0,0.0,0.0,0.0,0.0,0.0,0.0,0.0,0.0,0.0,0.0,0.0,0.0,0.0,0.0,0.0,0.0,0.0,0.0,0.0,0.0,0.0,0.0,0.0,0.0,0.0,2.0062,1.9619,1.9585,1.9912,0.0,0.0,0.0,0.0,0.0,0.0,0.0,0.0,0.0,0.0,0.0,0.0,0.0,0.0,0.0,0.0,0.0,0.0,0.0,0.0,0.0,0.0,0.0,0.0,0.0,0.0,0.0,0.0,0.0,0.0,0.0,0.0,0.0,0.0,0.0,0.0,0.0,0.0,0.0,0.0,0.0,0.0,0.0,0.0,0.0,0.0,0.0,0.0,0.0,0.0,0.0,0.0,0.0,0.0,0.0,0.0,0.0,0.0,0.0,0.0,0.0,0.0,0.0,0.0,0.0,0.0,0.0,0.0,0.0,0.0,0.0,0.0,0.0,0.0,0.0,0.0,0.0,0.0,0.0,0.0,0.0,0.0,0.0,0.0,0.0,0.0,0.0,0.0,0.0,0.0,0.0,0.0,0.0,0.0,0.0,0.0,0.0,0.0,0.0,0.0,0.0,0.0,0.0,0.0,0.0,0.0,0.0,0.0,0.0,0.0,1.8752,1.8295,1.7639,1.7269,1.7658,1.8777,0.0,0.0,0.0,0.0,0.0,0.0,0.0,0.0,0.0,0.0,0.0,0.0,0.0,0.0,0.0,0.0,0.0,0.0,0.0,0.0,0.0,0.0,0.0,0.0,0.0,0.0,0.0,0.0,0.0,0.0,0.0,0.0,0.0,0.0,0.0,0.0,0.0,0.0,0.0,0.0,0.0,0.0,0.0,0.0,0.0,0.0,0.0,0.0,0.0,0.0,0.0,0.0,0.0,0.0,0.0,0.0,0.0,0.0,0.0,0.0,0.0,0.0,0.0,0.0,0.0,0.0,0.0,0.0,0.0,0.0,0.0,0.0,0.0,0.0,0.0,0.0,0.0,0.0,0.0,0.0,0.0,0.0,0.0,0.0,0.0,0.0,0.0,0.0,0.0,0.0,0.0,0.0,0.0,0.0,0.0,0.0,0.0,0.0,0.0,0.0,0.0,0.0,0.0,0.0,0.0,0.0,0.0,0.0,1.5974,1.621,1.6079,1.5296,1.4371,1.4498,0.0,0.0,0.0,0.0,0.0,0.0,0.0,0.0,0.0,0.0,0.0,0.0,0.0,0.0,0.0,0.0,0.0,0.0,0.0,0.0,0.0,0.0,0.0,0.0,0.0,0.0,0.0,0.0,0.0,0.0,0.0,0.0,0.0,0.0,0.0,0.0,0.0,0.0,0.0,0.0,0.0,0.0,0.0,0.0,0.0,0.0,0.0,0.0,0.0,0.0,0.0,0.0,0.0,0.0,0.0,0.0,0.0,0.0,0.0,0.0,0.0,0.0,0.0,0.0,0.0,0.0,0.0,0.0,0.0,0.0,0.0,0.0,0.0,0.0,0.0,0.0,0.0,0.0,0.0,0.0,0.0,0.0,0.0,0.0,0.0,0.0,0.0,0.0,0.0,0.0,0.0,0.0,0.0,0.0,0.0,0.0,0.0,0.0,0.0,0.0,0.0,0.0,0.0,0.0,0.0,0.0,0.0,0.0,0.0,1.3871,1.2963,1.2124,1.137,1.2052,1.2508,0.0,0.0,0.0,0.0,0.0,0.0,0.0,0.0,0.0,0.0,0.0,0.0,0.0,0.0,0.0,0.0,0.0,0.0,0.0,0.0,0.0,0.0,0.0,0.0,0.0,0.0,0.0,0.0,0.0,0.0,0.0,0.0,0.0,0.0,0.0,0.0,0.0,0.0,0.0,0.0,0.0,0.0,0.0,0.0,0.0,0.0,0.0,0.0,0.0,0.0,0.0,0.0,0.0,0.0,0.0,0.0,0.0,0.0,0.0,0.0,0.0,0.0,0.0,0.0,0.0,0.0,0.0,0.0,0.0,0.0,0.0,0.0,0.0,0.0,0.0,0.0,0.0,0.0,0.0,0.0,0.0,0.0,0.0,0.0,0.0,0.0,0.0,0.0,0.0,0.0,0.0,0.0,0.0,0.0,0.0,0.0,0.0,0.0,0.0,0.0,0.0,0.0,0.0,0.0,0.0,0.0,0.0,0.0,0.0,1.0863,0.0,0.8328,0.8089,0.9219,0.9914,0.0,0.0,0.0,0.0,0.0,0.0,0.0,0.0,0.0,0.0,0.0,0.0,0.0,0.0,0.0,0.0,0.0,0.0,0.0,0.0,0.0,0.0,0.0,0.0,0.0,0.0,0.0,0.0,0.0,0.0,0.0,0.0,0.0,0.0,0.0,0.0,0.0,0.0,0.0,0.0,0.0,0.0,0.0,0.0,0.0,0.0,0.0,0.0,0.0,0.0,0.0,0.0,0.0,0.0,0.0,0.0,0.0,0.0,0.0,0.0,0.0,0.0,0.0,0.0,0.0,0.0,0.0,0.0,0.0,0.0,0.0,0.0,0.0,0.0,0.0,0.0,0.0,0.0,0.0,0.0,0.0,0.0,0.0,0.0,0.0,0.0,0.0,0.0,0.0,0.0,0.0,0.0,0.0,0.0,0.0,0.0,0.0,0.0,0.0,0.0,0.0,0.0,0.0,0.0,0.0,0.0,0.0,0.0,0.9649,0.678,0.5155,0.4783,0.5686,0.5631,0.6485,0.0,0.0,0.0,0.0,0.0,0.0,0.0,0.0,0.0,0.0,0.0,0.0,0.0,0.0,0.0,0.0,0.0,0.0,0.0,0.0,0.0,0.0,0.0,0.0,0.0,0.0,0.0,0.0,0.0,0.0,0.0,0.0,0.0,0.0,0.0,0.0,0.0,0.0,0.0,0.0,0.0,0.0,0.0,0.0,0.0,0.0,0.0,0.0,0.0,0.0,0.0,0.0,0.0,0.0,0.0,0.0,0.0,0.0,0.0,0.0,0.0,0.0,0.0,0.0,0.0,0.0,0.0,0.0,0.0,0.0,0.0,0.0,0.0,0.0,0.0,0.0,0.0,0.0,0.0,0.0,0.0,0.0,0.0,0.0,0.0,0.0,0.0,0.0,0.0,0.0,0.0,0.0,0.0,0.0,0.0,0.0,0.0,0.0,0.0,0.0,0.0,0.0,0.0,0.0,0.0,0.0,0.0,0.0,0.0,0.3149,0.2011,0.1241,0.1006,0.201,0.317,0.0,0.0,0.0,0.0,0.0,0.0,0.0,0.0,0.0,0.0,0.0,0.0,0.0,0.0,0.0,0.0,0.0,0.0,0.0,0.0,0.0,0.0,0.0,0.0,0.0,0.0,0.0,0.0,0.0,0.0,0.0,0.0,0.0,0.0,0.0,0.0,0.0,0.0,0.0,0.0,0.0,0.0,0.0,0.0,0.0,0.0,0.0,0.0,0.0,0.0,0.0,0.0,0.0,0.0,0.0,0.0,0.0,0.0,0.0,0.0,0.0,0.0,0.0,0.0,0.0,0.0,0.0,0.0,0.0,0.0,0.0,0.0,0.0,0.0,0.0,0.0,0.0,0.0,0.0,0.0,0.0,0.0,0.0,0.0,0.0,0.0,0.0,0.0,0.0,0.0,0.0,0.0,0.0,0.0,0.0,0.0,0.0,0.0,0.0,0.0,0.0,0.0,0.0,0.0,0.0,0.0,0.0,0.0,0.0,-0.2658,-0.2307,-0.2249,-0.2718,-0.1236,0.0232,0.1635,0.0,0.0,0.0,0.0,0.0,0.0,0.0,0.0,0.0,0.0,0.0,0.0,0.0,0.0,0.0,0.0,0.0,0.0,0.0,0.0,0.0,0.0,0.0,0.0,0.0,0.0,0.0,0.0,0.0,0.0,0.0,0.0,0.0,0.0,0.0,0.0,0.0,0.0,0.0,0.0,0.0,0.0,0.0,0.0,0.0,0.0,0.0,0.0,0.0,0.0,0.0,0.0,0.0,0.0,0.0,0.0,0.0,0.0,0.0,0.0,0.0,0.0,0.0,0.0,0.0,0.0,0.0,0.0,0.0,0.0,0.0,0.0,0.0,0.0,0.0,0.0,0.0,0.0,0.0,0.0,0.0,0.0,0.0,0.0,0.0,0.0,0.0,0.0,0.0,0.0,0.0,0.0,0.0,0.0,0.0,0.0,0.0,0.0,0.0,0.0,0.0,0.0,0.0,0.0,0.0,0.0,0.0,0.0,-1.021,-0.7613,-0.6073,-0.5628,-0.4232,-0.2315,0.0,0.0,0.0,0.0,0.0,0.0,0.0,0.0,0.0,0.0,0.0,0.0,0.0,0.0,0.0,0.0,0.0,0.0,0.0,0.0,0.0,0.0,0.0,0.0,0.0,0.0,0.0,0.0,0.0,0.0,0.0,0.0,0.0,0.0,0.0,0.0,0.0,0.0,0.0,0.0,0.0,0.0,0.0,0.0,0.0,0.0,0.0,0.0,0.0,0.0,0.0,0.0,0.0,0.0,0.0,0.0,0.0,0.0,0.0,0.0,0.0,0.0,0.0,0.0,0.0,0.0,0.0,0.0,0.0,0.0,0.0,0.0,0.0,0.0,0.0,0.0,0.0,0.0,0.0,0.0,0.0,0.0,0.0,0.0,0.0,0.0,0.0,0.0,0.0,0.0,0.0,0.0,0.0,0.0,0.0,0.0,0.0,0.0,0.0,0.0,0.0,0.0,0.0,0.0,0.0,0.0,0.0,0.0,0.0,-1.4399,-1.4196,-1.2904,-1.0664,-0.8361,-0.597,0.0,0.0,0.0,0.0,0.0,0.0,0.0,0.0,0.0,0.0,0.0,0.0,0.0,0.0,0.0,0.0,0.0,0.0,0.0,0.0,0.0,0.0,0.0,0.0,0.0,0.0,0.0,0.0,0.0,0.0,0.0,0.0,0.0,0.0,0.0,0.0,0.0,0.0,0.0,0.0,0.0,0.0,0.0,0.0,0.0,0.0,0.0,0.0,0.0,0.0,0.0,0.0,0.0,0.0,0.0,0.0,0.0,0.0,0.0,0.0,0.0,0.0,0.0,0.0,0.0,0.0,0.0,0.0,0.0,0.0,0.0,0.0,0.0,0.0,0.0,0.0,0.0,0.0,0.0,0.0,0.0,0.0,0.0,0.0,0.0,0.0,0.0,0.0,0.0,0.0,0.0,0.0,0.0,0.0,0.0,0.0,0.0,0.0,0.0,0.0,0.0,0.0,0.0,0.0,0.0,0.0,0.0,0.0,-1.5316,-1.8283,-1.8944,-1.8493,-1.6817,-1.2997,-0.9721,0.0,0.0,0.0,0.0,0.0,0.0,0.0,0.0,0.0,0.0,0.0,0.0,0.0,0.0,0.0,0.0,0.0,0.0,0.0,0.0,0.0,0.0,0.0,0.0,0.0,0.0,0.0,0.0,0.0,0.0,0.0,0.0,0.0,0.0,0.0,0.0,0.0,0.0,0.0,0.0,0.0,0.0,0.0,0.0,0.0,0.0,0.0,0.0,0.0,0.0,0.0,0.0,0.0,0.0,0.0,0.0,0.0,0.0,0.0,0.0,0.0,0.0,0.0,0.0,0.0,0.0,0.0,0.0,0.0,0.0,0.0,0.0,0.0,0.0,0.0,0.0,0.0,0.0,0.0,0.0,0.0,0.0,0.0,0.0,0.0,0.0,0.0,0.0,0.0,0.0,0.0,0.0,0.0,0.0,0.0,0.0,0.0,0.0,0.0,0.0,0.0,0.0,0.0,0.0,0.0,0.0,0.0,0.0,-2.0318,-2.1753,-2.2499,-2.2896,-2.2874,-1.7441,-1.3145,0.0,0.0,0.0,0.0,0.0,0.0,0.0,0.0,0.0,0.0,0.0,0.0,0.0,0.0,0.0,0.0,0.0,0.0,0.0,0.0,0.0,0.0,0.0,0.0,0.0,0.0,0.0,0.0,0.0,0.0,0.0,0.0,0.0,0.0,0.0,0.0,0.0,0.0,0.0,0.0,0.0,0.0,0.0,0.0,0.0,0.0,0.0,0.0,0.0,0.0,0.0,0.0,0.0,0.0,0.0,0.0,0.0,0.0,0.0,0.0,0.0,0.0,0.0,0.0,0.0,0.0,0.0,0.0,0.0,0.0,0.0,0.0,0.0,0.0,0.0,0.0,0.0,0.0,0.0,0.0,0.0,0.0,0.0,0.0,0.0,0.0,0.0,0.0,0.0,0.0,0.0,0.0,0.0,0.0,0.0,0.0,0.0,0.0,0.0,0.0,0.0,0.0,0.0,0.0,0.0,0.0,0.0,0.0,-2.3049,-2.5406,-2.5657,-2.5556,-2.5135,-1.9233,-1.5049,0.0,0.0,0.0,0.0,0.0,0.0,0.0,0.0,0.0,0.0,0.0,0.0,0.0,0.0,0.0,0.0,0.0,0.0,0.0,0.0,0.0,0.0,0.0,0.0,0.0,0.0,0.0,0.0,0.0,0.0,0.0,0.0,0.0,0.0,0.0,0.0,0.0,0.0,0.0,0.0,0.0,0.0,0.0,0.0,0.0,0.0,0.0,0.0,-1.0325,0.0,0.0,0.0,0.0,0.0,0.0,0.0,0.0,0.0,0.0,0.0,0.0,0.0,0.0,0.0,0.0,0.0,0.0,0.0,0.0,0.0,0.0,0.0,0.0,0.0,0.0,0.0,0.0,0.0,0.0,0.0,0.0,0.0,0.0,0.0,0.0,0.0,0.0,0.0,0.0,0.0,0.0,0.0,0.0,0.0,0.0,0.0,0.0,0.0,0.0,0.0,0.0,0.0,0.0,0.0,0.0,0.0,0.0,0.0,-2.6485,-2.7938,-2.8109,-2.7745,-2.6775,-2.2551,-1.8753,0.0,0.0,0.0,0.0,0.0,0.0,0.0,0.0,0.0,0.0,0.0,0.0,0.0,0.0,0.0,0.0,0.0,0.0,0.0,0.0,0.0,0.0,0.0,0.0,0.0,0.0,0.0,0.0,0.0,0.0,0.0,0.0,0.0,0.0,0.0,0.0,0.0,0.0,0.0,0.0,0.0,0.0,0.0,0.0,0.0,0.0,0.0,0.0,0.0,0.0,0.0,0.0,0.0,0.0,0.0,0.0,0.0,0.0,0.0,0.0,0.0,0.0,0.0,0.0,0.0,0.0,0.0,0.0,0.0,0.0,0.0,0.0,0.0,0.0,0.0,0.0,0.0,0.0,0.0,0.0,0.0,0.0,0.0,0.0,0.0,0.0,0.0,0.0,0.0,0.0,0.0,0.0,0.0,0.0,0.0,0.0,0.0,0.0,0.0,0.0,0.0,0.0,0.0,0.0,0.0,0.0,0.0,-2.8402,-2.956,-3.0028,-3.0111,-2.9544,-2.8311,-2.5873,-2.2736,-1.8898,0.0,0.0,0.0,0.0,0.0,0.0,0.0,0.0,0.0,0.0,0.0,0.0,0.0,0.0,0.0,0.0,0.0,0.0,0.0,0.0,0.0,0.0,0.0,0.0,0.0,0.0,0.0,0.0,0.0,0.0,0.0,0.0,0.0,0.0,0.0,0.0,0.0,0.0,-1.2553,-1.665,0.0,0.0,0.0,0.0,0.0,0.0,0.0,0.0,-2.293,0.0,0.0,0.0,0.0,0.0,0.0,0.0,0.0,0.0,0.0,0.0,0.0,0.0,0.0,0.0,0.0,0.0,0.0,0.0,0.0,0.0,0.0,0.0,0.0,0.0,0.0,0.0,0.0,0.0,0.0,0.0,0.0,0.0,0.0,0.0,0.0,0.0,0.0,0.0,0.0,0.0,0.0,0.0,0.0,0.0,0.0,0.0,0.0,0.0,0.0,0.0,0.0,0.0,0.0,0.0,0.0,-2.9482,-2.945,-3.0255,-3.2038,-3.1752,-3.0824,-2.9295,-2.7076,-2.4419,-2.1263,0.0,0.0,0.0,0.0,0.0,0.0,0.0,0.0,0.0,0.0,0.0,0.0,0.0,0.0,0.0,0.0,0.0,0.0,0.0,0.0,0.0,0.0,0.0,0.0,0.0,0.0,0.0,0.0,0.0,0.0,0.0,0.0,0.0,0.0,0.0,0.0,0.0,0.0,0.0,-2.6385,-2.8322,0.0,0.0,0.0,0.0,0.0,0.0,0.0,0.0,-2.643,0.0,0.0,0.0,0.0,0.0,0.0,0.0,0.0,0.0,0.0,0.0,0.0,0.0,0.0,0.0,0.0,0.0,0.0,0.0,0.0,0.0,0.0,0.0,0.0,0.0,0.0,0.0,0.0,0.0,0.0,0.0,0.0,0.0,0.0,0.0,0.0,0.0,0.0,0.0,0.0,0.0,0.0,0.0,0.0,0.0,0.0,0.0,0.0,0.0,0.0,0.0,0.0,0.0,0.0,0.0,-3.0683,-3.1307,-3.2048,-3.31,-3.2876,-3.2074,-3.0616,-2.8663,-2.6331,0.0,0.0,0.0,0.0,0.0,0.0,0.0,0.0,0.0,0.0,0.0,0.0,0.0,0.0,0.0,0.0,0.0,0.0,0.0,0.0,0.0,0.0,0.0,0.0,0.0,0.0,0.0,0.0,0.0,0.0,0.0,0.0,0.0,0.0,0.0,0.0,0.0,0.0,0.0,0.0,-3.2069,-3.307,-3.2539,0.0,0.0,0.0,0.0,0.0,0.0,-2.9707,-2.9541,0.0,0.0,0.0,0.0,0.0,0.0,0.0,0.0,0.0,0.0,0.0,0.0,0.0,0.0,0.0,0.0,0.0,0.0,0.0,0.0,0.0,0.0,0.0,0.0,0.0,0.0,0.0,0.0,0.0,0.0,0.0,0.0,0.0,0.0,0.0,0.0,0.0,0.0,0.0,0.0,0.0,0.0,0.0,0.0,0.0,0.0,0.0,0.0,0.0,0.0,0.0,0.0,0.0,0.0,0.0,-3.1602,-3.2859,-3.3588,-3.3734,-3.3423,-3.2742,-3.1576,-2.9695,-2.7522,0.0,0.0,0.0,0.0,0.0,0.0,0.0,0.0,0.0,0.0,0.0,0.0,0.0,0.0,0.0,0.0,0.0,0.0,0.0,0.0,0.0,0.0,0.0,0.0,0.0,0.0,0.0,0.0,0.0,0.0,0.0,0.0,0.0,0.0,0.0,0.0,0.0,0.0,0.0,0.0,0.0,-3.5482,-3.4822,-3.4596,0.0,0.0,0.0,0.0,-3.1948,-3.1791,0.0,0.0,0.0,0.0,0.0,0.0,0.0,0.0,0.0,0.0,0.0,0.0,0.0,0.0,0.0,0.0,0.0,0.0,0.0,0.0,0.0,0.0,0.0,0.0,0.0,0.0,0.0,0.0,0.0,0.0,0.0,0.0,0.0,0.0,0.0,0.0,0.0,0.0,0.0,0.0,0.0,0.0,0.0,0.0,0.0,0.0,0.0,0.0,0.0,0.0,0.0,0.0,0.0,0.0,0.0,0.0,-3.2332,-3.3102,-3.3655,-3.3928,-3.2962,-3.2175,-3.1576,-2.9115,-2.6876,0.0,0.0,0.0,0.0,0.0,0.0,0.0,0.0,0.0,0.0,0.0,0.0,0.0,0.0,0.0,0.0,0.0,0.0,0.0,0.0,0.0,0.0,0.0,0.0,0.0,0.0,0.0,0.0,0.0,0.0,0.0,0.0,0.0,0.0,0.0,0.0,0.0,0.0,0.0,0.0,0.0,-3.572,-3.55,-3.5314,-3.5115,0.0,0.0,-3.4011,-3.3433,-3.3063,0.0,0.0,0.0,0.0,0.0,0.0,0.0,0.0,0.0,0.0,0.0,0.0,0.0,0.0,0.0,0.0,0.0,0.0,0.0,0.0,0.0,0.0,0.0,0.0,0.0,0.0,0.0,0.0,0.0,0.0,0.0,0.0,0.0,0.0,0.0,0.0,0.0,0.0,0.0,0.0,0.0,0.0,0.0,0.0,0.0,0.0,0.0,0.0,0.0,0.0,0.0,0.0,0.0,0.0,0.0,-3.1479,-3.2414,-3.3451,-3.3963,-3.3979,-3.3515,-3.2823,-3.1881,-2.9756,-2.7764,0.0,0.0,0.0,0.0,0.0,0.0,0.0,0.0,0.0,0.0,0.0,0.0,0.0,0.0,0.0,0.0,0.0,0.0,0.0,0.0,0.0,0.0,0.0,0.0,0.0,0.0,0.0,0.0,0.0,0.0,0.0,0.0,0.0,0.0,0.0,0.0,0.0,0.0,0.0,0.0,0.0,0.0,-3.5568,-3.5551,0.0,0.0,0.0,-3.4756,-3.4502,0.0,0.0,0.0,0.0,0.0,0.0,0.0,0.0,0.0,0.0,0.0,0.0,0.0,0.0,0.0,0.0,0.0,0.0,0.0,0.0,0.0,0.0,0.0,0.0,0.0,0.0,0.0,0.0,0.0,0.0,0.0,0.0,0.0,0.0,0.0,0.0,0.0,0.0,0.0,0.0,0.0,0.0,0.0,0.0,0.0,0.0,0.0,0.0,0.0,0.0,0.0,0.0,0.0,0.0,0.0,0.0,0.0,-3.2581,-3.3773,-3.4245,-3.4016,-3.3928,-3.3306,-3.2109,-3.0323,0.0,0.0,0.0,0.0,0.0,0.0,0.0,0.0,0.0,0.0,0.0,0.0,0.0,0.0,0.0,0.0,0.0,0.0,0.0,0.0,0.0,0.0,0.0,0.0,0.0,0.0,0.0,-2.4651,0.0,0.0,0.0,0.0,0.0,0.0,0.0,0.0,0.0,0.0,0.0,0.0,0.0,0.0,-3.5755,-3.5603,-3.5714,-3.5748,0.0,0.0,-3.52,-3.5045,-3.4695,-3.4371,0.0,0.0,0.0,0.0,0.0,0.0,0.0,0.0,0.0,0.0,0.0,0.0,0.0,0.0,0.0,0.0,0.0,0.0,0.0,0.0,0.0,0.0,0.0,0.0,0.0,0.0,0.0,0.0,0.0,0.0,0.0,0.0,0.0,0.0,0.0,0.0,0.0,0.0,0.0,0.0,0.0,0.0,0.0,0.0,0.0,0.0,0.0,0.0,0.0,0.0,0.0,0.0,0.0,0.0,0.0,-3.3076,-3.4074,-3.4386,-3.4023,-3.3707,-3.3082,-3.2127,-3.0285,-2.8434,0.0,0.0,0.0,0.0,0.0,0.0,0.0,0.0,0.0,0.0,0.0,0.0,0.0,0.0,0.0,0.0,0.0,0.0,0.0,0.0,0.0,0.0,0.0,0.0,0.0,0.0,0.0,0.0,0.0,0.0,0.0,0.0,0.0,0.0,0.0,0.0,0.0,0.0,0.0,0.0,0.0,-3.5797,-3.5776,-3.5843,-3.5833,0.0,0.0,-3.5259,-3.4868,-3.4676,-3.4508,-3.4334,0.0,0.0,0.0,0.0,0.0,0.0,0.0,0.0,0.0,0.0,0.0,0.0,0.0,0.0,0.0,0.0,0.0,0.0,0.0,0.0,0.0,0.0,0.0,0.0,0.0,0.0,0.0,0.0,0.0,0.0,0.0,0.0,0.0,0.0,0.0,0.0,0.0,0.0,0.0,0.0,0.0,0.0,0.0,0.0,0.0,0.0,0.0,0.0,0.0,0.0,0.0,0.0,0.0,-3.2997,-3.3346,-3.4165,-3.4404,-3.4023,-3.376,-3.3112,-3.2056,-3.0399,-2.8526,0.0,0.0,0.0,0.0,0.0,0.0,0.0,0.0,0.0,0.0,0.0,0.0,0.0,0.0,0.0,0.0,0.0,0.0,0.0,0.0,0.0,0.0,0.0,0.0,0.0,0.0,0.0,0.0,-3.3619,-3.4824,-3.5617,0.0,0.0,0.0,0.0,0.0,0.0,0.0,0.0,0.0,0.0,-3.5817,-3.5858,-3.5886,0.0,0.0,-3.5601,-3.5393,-3.5249,-3.5085,-3.4937,-3.4939,-3.4921,0.0,0.0,0.0,0.0,0.0,0.0,0.0,0.0,0.0,0.0,0.0,0.0,0.0,0.0,0.0,0.0,0.0,0.0,0.0,0.0,0.0,0.0,0.0,0.0,0.0,0.0,0.0,0.0,0.0,0.0,0.0,0.0,0.0,0.0,0.0,0.0,0.0,0.0,0.0,0.0,0.0,0.0,0.0,0.0,0.0,0.0,0.0,0.0,0.0,0.0,0.0,0.0,-3.3164,-3.3505,-3.4184,-3.434,-3.3998,-3.3733,-3.3141,-3.2127,-3.0752,-2.8994,0.0,0.0,0.0,0.0,0.0,0.0,0.0,0.0,0.0,0.0,0.0,0.0,0.0,0.0,0.0,0.0,0.0,0.0,0.0,0.0,0.0,0.0,0.0,0.0,0.0,0.0,0.0,0.0,-3.4648,-3.5456,-3.5847,0.0,0.0,0.0,0.0,0.0,0.0,0.0,0.0,0.0,0.0,-3.5802,-3.5888,-3.5917,-3.5896,-3.5836,-3.5714,-3.5592,-3.5514,-3.5379,-3.5287,-3.5268,0.0,0.0,0.0,0.0,0.0,0.0,0.0,0.0,0.0,0.0,0.0,0.0,0.0,0.0,0.0,0.0,0.0,0.0,0.0,0.0,0.0,0.0,0.0,0.0,0.0,0.0,0.0,0.0,0.0,0.0,-1.5051,0.0,0.0,0.0,0.0,0.0,0.0,0.0,0.0,0.0,0.0,0.0,0.0,0.0,0.0,0.0,0.0,0.0,0.0,0.0,0.0,0.0,0.0,-3.3087,-3.3478,-3.4018,-3.4179,-3.3998,-3.3616,-3.3057,-3.2368,-3.1479,-2.977,-2.7308,0.0,0.0,0.0,0.0,0.0,0.0,0.0,0.0,0.0,0.0,0.0,0.0,0.0,0.0,0.0,0.0,0.0,0.0,0.0,0.0,0.0,0.0,0.0,0.0,0.0,0.0,-3.4664,-3.548,-3.5955,0.0,0.0,0.0,0.0,0.0,0.0,0.0,0.0,0.0,0.0,-3.56,-3.5749,-3.5872,-3.5957,-3.5957,-3.5896,-3.5893,-3.5811,-3.5557,-3.5505,-3.543,0.0,0.0,0.0,0.0,0.0,0.0,0.0,0.0,0.0,0.0,0.0,0.0,0.0,0.0,0.0,0.0,0.0,0.0,0.0,0.0,0.0,0.0,0.0,0.0,0.0,0.0,0.0,-1.7921,-1.7912,0.0,0.0,0.0,0.0,0.0,0.0,0.0,0.0,0.0,0.0,0.0,-2.4275,-2.457,0.0,0.0,0.0,0.0,0.0,0.0,0.0,0.0,0.0,0.0,0.0,0.0,-3.2985,-3.313,-3.3813,-3.3935,-3.3458,-3.3207,-3.2695,-3.195,-3.1193,-2.9459,-2.6623,0.0,0.0,0.0,0.0,0.0,0.0,0.0,0.0,0.0,0.0,0.0,0.0,0.0,0.0,0.0,0.0,0.0,0.0,0.0,0.0,0.0,0.0,0.0,0.0,0.0,-3.46,0.0,0.0,0.0,0.0,0.0,0.0,0.0,0.0,0.0,0.0,0.0,-3.5443,-3.5504,-3.5582,-3.569,-3.5875,-3.5899,-3.5878,0.0,0.0,0.0,0.0,0.0,0.0,0.0,0.0,0.0,0.0,0.0,0.0,0.0,0.0,-3.4386,-3.4148,-3.3998,-3.3876,-3.3921,0.0,0.0,0.0,0.0,0.0,0.0,0.0,0.0,0.0,0.0,0.0,0.0,0.0,0.0,-2.0075,0.0,-2.0282,0.0,0.0,0.0,0.0,0.0,0.0,0.0,0.0,-2.4027,-2.5051,-2.6297,-2.6659,-2.7369,0.0,-2.8951,-2.8653,0.0,0.0,0.0,0.0,0.0,0.0,0.0,0.0,-3.2769,-3.2916,-3.3468,-3.3588,-3.3214,-3.2939,-3.2535,-3.202,-3.0796,-2.9016,-2.6578,-2.4676,-2.3097,0.0,0.0,0.0,0.0,0.0,0.0,0.0,0.0,0.0,0.0,0.0,0.0,0.0,0.0,0.0,0.0,0.0,0.0,0.0,0.0,0.0,0.0,0.0,-3.5348,0.0,0.0,0.0,0.0,0.0,0.0,0.0,0.0,0.0,-3.5515,-3.5515,-3.5534,-3.5543,-3.5581,-3.5676,-3.5807,0.0,0.0,0.0,0.0,0.0,0.0,0.0,-3.5846,-3.5721,-3.5687,-3.566,-3.5538,-3.5292,-3.5069,-3.4963,0.0,0.0,-3.4293,-3.4148,-3.4067,-3.4074,-3.3947,-3.3762,-3.3494,-3.3321,-3.3172,0.0,0.0,0.0,0.0,0.0,0.0,0.0,0.0,-2.2966,-2.2371,0.0,-2.2837,0.0,0.0,0.0,0.0,0.0,-2.3255,0.0,0.0,-2.6386,-2.7446,-2.839,-2.9485,-2.992,-2.9844,-3.0762,-3.0686,-2.9782,-3.0747,0.0,0.0,0.0,0.0,0.0,0.0,-3.2479,-3.2872,-3.3075,-3.3184,-3.3154,-3.2798,-3.2555,-3.2488,-3.0342,-2.8528,-2.734,-2.5507,-2.3975,-2.2652,-2.2175,0.0,0.0,0.0,0.0,0.0,0.0,0.0,0.0,0.0,0.0,0.0,0.0,0.0,0.0,0.0,0.0,0.0,0.0,0.0,0.0,-3.5546,0.0,0.0,0.0,0.0,0.0,0.0,0.0,0.0,0.0,0.0,-3.5515,-3.556,-3.5604,-3.5591,0.0,0.0,0.0,0.0,-3.5885,-3.589,-3.5887,-3.5893,-3.5898,-3.5899,-3.583,-3.5573,0.0,0.0,-3.5418,-3.534,-3.5311,-3.5364,-3.4996,-3.4672,-3.4539,-3.4454,-3.445,-3.4363,-3.4197,-3.3998,-3.3734,-3.3455,-3.3172,-3.0058,0.0,0.0,0.0,0.0,-2.6214,-2.5938,-2.5718,-2.5368,-2.5204,-2.5133,-2.5344,0.0,0.0,0.0,0.0,0.0,0.0,-2.4986,-2.6649,-2.7544,-2.8562,-2.9827,-3.0507,-3.1182,-3.1851,-3.2149,-3.2004,-3.1566,-3.2117,-3.1822,-3.0749,0.0,0.0,0.0,0.0,-3.2315,-3.2335,-3.2763,-3.2876,-3.2641,-3.2507,-3.2249,-3.1839,-3.0067,-2.8545,-2.7355,-2.6062,-2.4724,-2.3258,-2.3125,0.0,0.0,0.0,0.0,0.0,0.0,0.0,0.0,0.0,0.0,0.0,0.0,0.0,0.0,0.0,0.0,0.0,0.0,0.0,-3.5549,-3.5806,-3.5915,0.0,0.0,0.0,0.0,0.0,0.0,0.0,0.0,0.0,-3.5438,-3.5521,-3.554,0.0,0.0,-3.5543,-3.5492,-3.5582,-3.5725,-3.589,-3.5887,0.0,-3.5975,-3.5966,-3.5939,-3.5795,-3.5706,-3.5577,-3.5361,-3.5302,-3.5235,-3.5086,-3.4926,-3.4812,-3.4772,-3.452,-3.4293,-3.4245,-3.4074,-3.3868,-3.3762,-3.3332,-3.2921,-3.0254,-2.9192,-2.9002,-2.8376,-2.7471,-2.7204,-2.7082,-2.6934,-2.6731,-2.6595,-2.6526,-2.6799,-2.6595,-2.5904,-2.5447,0.0,0.0,0.0,-2.6441,-2.8148,-2.8886,-2.9924,-3.1119,-3.1926,-3.2594,-3.3122,-3.346,-3.3322,-3.2713,-3.2696,-3.2202,-3.1372,0.0,0.0,-3.1691,-3.2056,-3.2179,-3.2108,-3.2521,-3.2555,-3.2214,-3.2073,-3.1728,-3.1044,-2.9876,-2.8592,-2.7083,-2.625,-2.5245,-2.4086,-2.3956,-2.3826,0.0,0.0,0.0,0.0,0.0,0.0,0.0,0.0,0.0,0.0,0.0,-2.9704,-3.0762,0.0,0.0,0.0,-3.4453,-3.5284,-3.5805,-3.5903,0.0,0.0,0.0,0.0,0.0,0.0,0.0,-3.5637,-3.5546,-3.547,-3.5383,-3.5443,-3.5438,-3.5355,-3.5424,-3.5489,-3.5519,0.0,-3.5696,-3.5846,-3.586,-3.588,-3.5955,-3.5937,-3.5909,-3.5866,-3.5784,-3.5631,-3.5465,-3.5412,-3.5311,-3.5174,-3.5072,-3.5019,-3.5019,-3.4651,-3.4381,-3.434,-3.4148,-3.3947,-3.3834,-3.3379,-3.297,-3.0072,-2.9442,-2.898,-2.861,-2.8287,-2.7789,-2.7723,-2.7855,-2.731,-2.7027,-2.6879,-2.7577,-2.7617,-2.722,-2.7112,0.0,-2.7577,-2.7427,-2.8232,-2.9786,-3.0388,-3.1275,-3.2313,-3.3462,-3.3974,-3.3806,-3.4712,-3.4565,-3.3474,-3.2744,-3.2337,-3.228,-3.2018,-3.1878,-3.1932,-3.202,-3.2073,-3.2073,-3.2232,-3.2144,-3.1875,-3.1579,-3.1044,-3.0351,-2.9669,-2.8498,-2.668,-2.6011,-2.5522,-2.5005,-2.4694,-2.4781,-2.5342,0.0,0.0,0.0,0.0,0.0,0.0,0.0,0.0,0.0,0.0,0.0,0.0,0.0,0.0,0.0,-3.5141,0.0,-3.5802,-3.5915,0.0,0.0,0.0,-3.5787,-3.5791,-3.5727,-3.5657,-3.5526,0.0,0.0,-3.5315,-3.5285,-3.5296,-3.5364,-3.5438,-3.5521,-3.5665,-3.5689,-3.5697,-3.5771,-3.5795,-3.5814,-3.5884,-3.5849,-3.5819,-3.5821,-3.5767,-3.5696,-3.5602,-3.5546,-3.5515,-3.5474,-3.5339,-3.5226,-3.5226,-3.4927,-3.4666,-3.4626,-3.4404,-3.4124,-3.3895,-3.3578,-3.3243,-2.9642,-2.9456,-2.8881,-2.8587,-2.8522,-2.8392,-2.8392,-2.8392,-2.8262,-2.8183,-2.817,-2.8327,-2.8136,-2.7628,-2.8063,-2.8319,-2.8382,-2.8836,-2.9732,-3.096,-3.1554,-3.2196,-3.3013,-3.4088,-3.4591,-3.4584,-3.5183,-3.505,-3.4218,-3.3448,-3.2731,-3.2114,-3.1325,-3.1089,-3.147,-3.1637,-3.1819,-3.1948,-3.1802,-3.1654,-3.1579,-3.0925,-3.0518,-3.0309,-2.8779,-2.756,-2.6628,-2.57,-2.5118,-2.5005,-2.4948,-2.5048,-2.5398,-2.5563,0.0,0.0,0.0,0.0,0.0,0.0,0.0,0.0,0.0,-3.1934,-3.2888,0.0,-3.4405,0.0,-3.5411,-3.5807,-3.5858,-3.5906,0.0,0.0,-3.5772,-3.5717,-3.5717,-3.5699,-3.5637,-3.5507,-3.5391,-3.5315,-3.5171,-3.5053,-3.5035,-3.5152,-3.5307,-3.5397,-3.5345,-3.5509,-3.5658,-3.5717,-3.5724,-3.5741,-3.5802,-3.5806,-3.5819,-3.5871,-3.5807,-3.5735,-3.563,-3.5582,-3.5557,-3.5509,-3.5479,-3.5432,-3.5417,-3.5226,-3.5019,-3.4831,-3.448,-3.4197,-3.408,-3.385,-3.3597,-2.9107,-2.9044,-2.8766,-2.8587,-2.8587,-2.8587,-2.8587,-2.8587,-2.8587,-2.8587,-2.8587,-2.8587,-2.841,-2.8148,-2.8455,-2.8936,-2.945,-2.9867,-3.0643,-3.1828,-3.2151,-3.2588,-3.3182,-3.3786,-3.4317,-3.4833,-3.5131,-3.4975,-3.4489,-3.3667,-3.2909,-3.209,-3.1295,-3.0902,-3.1038,-3.1067,-3.1206,-3.1435,-3.1145,-3.0965,-3.0965,-3.0377,-2.9761,-2.9132,-2.7841,-2.6666,-2.5671,-2.4784,-2.431,-2.4368,-2.4553,-2.4838,-2.5356,-2.5605,-2.6,0.0,0.0,0.0,0.0,0.0,0.0,0.0,0.0,0.0,0.0,0.0,-3.499,-3.5319,-3.5639,-3.5821,-3.5868,-3.5869,-3.5819,-3.5774,-3.5669,-3.5607,-3.5596,-3.5538,-3.5445,-3.5336,-3.5266,-3.5155,-3.5018,-3.4945,-3.4927,-3.5,-3.5152,-3.5266,-3.527,-3.5411,-3.557,-3.5607,-3.5659,-3.5706,-3.5755,-3.5786,-3.5829,-3.5879,-3.5829,-3.5775,-3.5736,-3.5674,-3.5631,-3.5562,-3.556,-3.5528,-3.5515,-3.5383,-3.5174,-3.4926,-3.463,-3.4367,-3.4221,-3.3876,-3.3494,-2.8587,-2.8587,-2.8587,-2.8587,-2.8587,-2.8587,-2.8587,-2.8587,-2.8587,-2.8587,-2.8587,-2.8587,-2.8587,-2.861,-2.8602,-2.9256,-3.0346,-3.0467,-3.1151,-3.2272,-3.2287,-3.2571,-3.3093,-3.3198,-3.37,-3.456,-3.4657,-3.4529,-3.4236,-3.352,-3.2696,-3.1809,-3.1288,-3.0855,-3.0452,-3.0276,-3.0352,-3.0714,-3.0344,-3.0166,-3.0005,-2.9613,-2.881,-2.754,-2.674,-2.5655,-2.4385,-2.3664,-2.331,-2.3416,-2.3807,-2.4372,-2.5246,-2.5356,-2.5877,0.0,-2.7354,0.0,0.0,0.0,0.0,0.0,0.0,0.0,0.0,-3.4936,-3.5538,-3.579,-3.5794,-3.5801,-3.5802,-3.58,-3.5741,-3.5663,-3.556,-3.5477,-3.547,-3.5374,-3.5251,-3.5122,-3.5069,-3.5018,-3.487,-3.485,-3.4812,-3.4851,-3.4945,-3.5088,-3.5219,-3.5355,-3.547,-3.547,-3.5596,-3.5667,-3.5676,-3.5735,-3.5821,-3.5864,-3.5833,-3.5839,-3.5874,-3.5794,-3.5704,-3.5631,-3.5609,-3.5581,-3.5509,-3.5397,-3.5232,-3.4963,-3.4753,-3.4548,-3.425,-3.3778,-3.3379,-2.8587,-2.8587,-2.8587,-2.8587,-2.8587,-2.8587,-2.8587,-2.8587,-2.8587,-2.8587,-2.8587,-2.8587,-2.8587,-2.8638,-2.9094,-2.9468,-2.969,-3.0259,-3.094,-3.1652,-3.1652,-3.1992,-3.2532,-3.2986,-3.3287,-3.3495,-3.3836,-3.368,-3.3111,-3.2599,-3.1605,-3.0275,-3.021,-2.9853,-2.9088,0.0,0.0,0.0,-2.9657,-2.9326,-2.8607,-2.7731,-2.7018,-2.6361,-2.4886,0.0,-2.3297,-2.2542,-2.236,-2.2807,-2.2927,0.0,0.0,0.0,0.0,0.0,0.0,0.0,0.0,0.0,0.0,0.0,-3.3802,-3.451,-3.466,-3.5253,-3.5708,-3.5845,-3.582,-3.5788,-3.5797,-3.5706,-3.5611,-3.5531,-3.5405,-3.5326,-3.5326,-3.5315,-3.5235,-3.5102,-3.4925,-3.4736,-3.4649,-3.4476,-3.4431,-3.4607,-3.4689,-3.4771,-3.4945,-3.5187,-3.5326,-3.5345,-3.5476,-3.5558,-3.5611,-3.5676,-3.5748,-3.5797,-3.5841,-3.5852,-3.5819,-3.5854,-3.58,-3.5666,-3.5638,-3.5639,-3.5546,-3.5519,-3.5406,-3.4981,-3.487,-3.4732,-3.4293,-3.3947,-3.3625,-2.8587,0.0,-2.8587,-2.8587,0.0,-2.8314,-2.8183,-2.8262,-2.8457,-2.8587,-2.8587,-2.8587,-2.8587,-2.8587,-2.8944,-2.9219,-2.9504,-2.9827,-3.0389,-3.1014,-3.1349,-3.1652,-3.1936,-3.2241,-3.2594,-3.3093,-3.2977,-3.2649,-3.2192,-3.187,-3.0974,-2.9517,-2.9523,-2.9364,-2.8889,-2.8384,-2.8384,-2.892,-2.8639,-2.8292,-2.7871,-2.7062,-2.6337,-2.563,-2.4147,0.0,0.0,0.0,0.0,0.0,0.0,0.0,0.0,0.0,0.0,-2.652,-2.7181,-2.8264,-2.995,-3.1502,-3.2595,-3.3135,-3.4317,-3.5143,-3.532,-3.5587,-3.5793,-3.5895,-3.5837,-3.5763,-3.5655,-3.5572,-3.55,-3.5416,-3.5281,-3.5203,-3.5187,-3.5138,-3.5035,-3.4889,-3.4753,-3.4609,-3.4409,-3.4293,-3.4245,-3.4363,-3.4404,-3.4431,-3.4567,-3.4944,-3.5239,-3.5281,-3.5416,-3.5509,-3.5562,-3.5639,-3.5697,-3.5767,-3.5788,-3.5792,-3.5798,-3.584,-3.5815,-3.5729,-3.5735,-3.5725,-3.567,-3.565,-3.5504,-3.5076,-3.4925,-3.4734,-3.4298,-3.3998,-3.3707,-2.8444,-2.8457,-2.8327,-2.8327,-2.8262,-2.7842,-2.7643,-2.7709,0.0,0.0,0.0,-2.8327,-2.8327,-2.8314,-2.8327,-2.8675,-2.9205,-2.9192,-2.9642,-3.0343,-3.0866,-3.1175,-3.1306,-3.1291,-3.1649,-3.2415,-3.1886,-3.1389,-3.1013,-3.0851,-3.0112,-2.8889,-2.8779,-2.8764,-2.8607,-2.7705,-2.747,-2.7932,-2.747,-2.7085,-2.6865,-2.6299,-2.5548,-2.4584,-2.3357,-2.2591,-2.2163,-2.1146,-2.054,-2.0604,-2.1451,-2.2113,-2.2421,-2.3386,-2.454,-2.5809,-2.6418,-2.7657,-2.9884,-3.1543,-3.2852,-3.3688,-3.4759,-3.5493,-3.5874,-3.586,-3.5839,-3.5875,-3.5833,-3.571,-3.5516,-3.5457,-3.5383,-3.53,-3.5122,-3.5018,-3.5,-3.4851,-3.4711,-3.4561,-3.4476,-3.4363,-3.4173,-3.4074,-3.4074,-3.4124,-3.4124,-3.4154,-3.4269,-3.4653,-3.5053,-3.5187,-3.5296,-3.543,-3.5443,-3.5528,-3.5615,-3.567,-3.5676,-3.5718,-3.578,-3.5821,-3.584,-3.5816,-3.5822,-3.583,-3.5813,-3.576,-3.5551,-3.5139,-3.5026,-3.4832,-3.4394,-3.4105,-3.385,-2.7908,-2.7855,-2.7443,-2.7242,-2.7229,-2.7175,-2.7108,-2.7108,-2.7175,-2.7229,-2.7229,-2.7242,-2.7242,-2.7242,-2.7229,-2.7497,-2.8026,-2.8026,-2.8583,-2.9642,-2.9752,-2.9983,-3.0346,-3.0406,-3.0406,-3.0406,-3.0225,-2.9769,-2.9212,-2.8935,-2.8179,-2.7211,-2.738,-2.735,-2.6938,-2.6318,-2.6094,-2.6162,-2.6079,-2.5522,-2.4517,-2.3974,-2.3166,-2.2151,-2.1439,-2.088,-2.0473,-2.0183,-1.9998,-2.0009,-2.0183,-2.0635,-2.1514,-2.2298,-2.3182,-2.4302,-2.554,-2.7152,-2.9147,-3.0896,-3.2611,-3.4214,-3.4856,-3.5389,-3.5947,-3.5976,-3.5945,-3.5825,-3.5764,-3.565,-3.5519,-3.5355,-3.5223,-3.5174,-3.4889,-3.4668,-3.4689,-3.4458,-3.4316,-3.4269,-3.4049,-3.3921,-3.3797,-3.3643,-3.3587,-3.3762,-3.3743,-3.3895,-3.4148,-3.4473,-3.4732,-3.4926,-3.507,-3.5155,-3.5168,-3.5285,-3.5397,-3.5521,-3.5562,-3.5657,-3.576,-3.586,-3.5908,-3.5877,-3.5917,-3.5927,-3.5825,-3.5788,-3.5638,-3.5328,-3.5225,-3.5064,-3.4614,-3.4483,-3.4302,-2.7377,-2.731,-2.7108,-2.6973,-2.6973,-2.6701,-2.6139,-2.5475,-2.5918,-2.6427,-2.6973,-2.6973,-2.6973,-2.6973,-2.6973,-2.7108,-2.7377,-2.7364,-2.7815,-2.8583,-2.8925,-2.9338,-2.9813,-2.9752,-2.9827,-2.9964,-2.947,-2.8886,-2.824,-2.8097,-2.7413,-2.6301,-2.6424,-2.6019,-2.5177,-2.4912,-2.467,-2.4302,-2.467,-2.4557,-2.3968,-2.2807,-2.1918,-2.1455,-2.0526,-1.9955,-1.9814,-1.9375,-1.9243,-1.9573,-1.9901,-2.042,-2.1198,-2.1877,-2.2761,-2.3955,-2.5092,-2.6648,-2.8697,-3.0913,-3.2799,-3.4338,-3.4699,-3.5148,-3.5835,-3.5957,-3.5957,-3.585,-3.5768,-3.5649,-3.5512,-3.5209,-3.5016,-3.4926,-3.4651,-3.4495,-3.4454,-3.4386,-3.4245,-3.4049,-3.3733,-3.3468,-3.3284,-3.3001,-3.283,-3.2983,-3.2983,-3.3148,-3.357,-3.3758,-3.4006,-3.442,-3.4715,-3.487,-3.4887,-3.5136,-3.5296,-3.5388,-3.5463,-3.5549,-3.5631,-3.5753,-3.5836,-3.5862,-3.5908,-3.5937,-3.5903,-3.5875,-3.573,-3.5495,-3.5348,-3.5128,-3.4775,-3.4548,-3.4232,-2.6837,-2.6837,-2.6471,-2.6252,-2.6032,-2.5627,-2.485,-2.3975,-2.4504,-2.5358,-2.6264,-2.6539,-2.662,-2.662,-2.662,-2.6701,-2.6837,-2.6837,-2.7108,-2.7643,-2.8103,-2.8529,-2.8812,-2.8839,-2.8967,-2.8989,-2.8505,-2.7886,-2.7229,-2.6922,-2.6194,-2.5089,-2.484,-2.4275,-2.3352,-2.3259,-2.2855,-2.2274,-2.2577,-2.2842,-2.3119,-2.151,-2.0587,-2.047,-1.9357,-1.8706,-1.8772,-1.819,-1.8133,-1.867,-1.918,-1.9771,-2.0537,-2.1215,-2.2176,-2.3487,-2.4471,-2.6176,-2.8665,-3.1141,-3.3038,-3.4254,-3.4577,-3.5013,-3.568,-3.5879,-3.591,-3.5833,-3.5668,-3.5527,-3.5393,-3.5062,-3.4793,-3.4733,-3.4458,-3.4269,-3.4203,-3.4203,-3.403,-3.3625,-3.3364,-3.3082,-3.2745,-3.2468,-3.2334,-3.2334,-3.2231,-3.2382,-3.2862,-3.3015,-3.327,-3.375,-3.4251,-3.4576,-3.4617,-3.4813,-3.5049,-3.5152,-3.5258,-3.5359,-3.5463,-3.5621,-3.5721,-3.5797,-3.5893,-3.5934,-3.5975,-3.5935,-3.5821,-3.564,-3.5505,-3.527,-3.4851,-3.4567,-3.4203,-2.6233,-2.607,-2.4909,-2.3963,-2.3452,-2.339,-2.3243,-2.3095,-2.318,-2.361,-2.4397,-2.5146,-2.5441,-2.5441,-2.5441,-2.5721,-2.6151,-2.622,-2.6564,-2.696,-2.7095,-2.7108,-2.7095,-2.731,-2.704,-2.6445,-2.6526,-2.624,-2.5466,-2.4546,-2.3509,-2.2506,-2.1992,-2.1646,-2.1471,-2.1009,-2.0456,-1.9749,-1.9207,-1.9445,-2.0493,-1.9336,-1.8562,-1.8287,-1.6968,-1.6399,-1.6693,-1.6218,-1.6139,-1.6711,-1.684,-1.7542,-1.888,-1.964,-2.0662,-2.2139,-2.3463,-2.5744,-2.9189,-3.1583,-3.311,-3.3905,-3.4618,-3.5187,-3.5656,-3.578,-3.5763,-3.5624,-3.5392,-3.5276,-3.52,-3.4832,-3.4609,-3.4693,-3.4344,-3.3928,-3.3698,-3.3652,-3.3379,-3.2601,-3.2827,-3.2862,-3.2401,-3.2231,-3.2196,-3.2092,-3.1808,-3.179,-3.2247,-3.24,-3.2466,-3.2872,-3.3588,-3.4184,-3.4255,-3.4321,-3.4572,-3.4794,-3.4868,-3.5024,-3.5306,-3.5527,-3.5713,-3.5709,-3.588,-3.5942,-3.5976,-3.5942,-3.5888,-3.583,-3.5663,-3.5473,-3.5009,-3.4694,-3.4367,-2.4337,-2.4264,-2.3683,-2.3243,-2.3032,-2.3032,-2.2734,-2.236,-2.2809,-2.2947,-2.2861,-2.361,-2.4204,-2.4564,-2.4131,-2.4047,-2.4337,-2.4767,-2.5264,-2.5824,-2.6045,-2.6264,-2.6471,-2.5938,-2.5508,-2.5087,-2.4779,-2.4272,-2.3629,-2.268,-2.1393,-2.0106,-2.0083,-1.9598,-1.8405,-1.7992,-1.7504,-1.6779,-1.5748,-1.5141,-1.5066,-1.5514,-1.5435,-1.4803,-1.3882,-1.3445,-1.3603,-1.3769,-1.4205,-1.4749,-1.5213,-1.6079,-1.7347,-1.7726,-1.8455,-1.9954,-2.2602,-2.5526,-2.8663,-3.0599,-3.214,-3.3387,-3.4073,-3.4737,-3.5463,-3.5684,-3.574,-3.5604,-3.543,-3.5278,-3.5133,-3.4774,-3.4502,-3.4413,-3.4105,-3.3743,-3.3419,-3.3408,-3.3202,-3.2651,-3.2368,-3.2162,-3.1878,-3.1511,-3.1244,-3.1223,-3.1033,-3.1111,-3.1346,-3.1384,-3.1571,-3.1951,-3.2542,-3.3135,-3.3634,-3.4154,-3.4367,-3.4526,-3.4595,-3.4775,-3.4921,-3.5151,-3.5323,-3.5524,-3.5682,-3.5851,-3.5982,-3.5936,-3.5895,-3.5871,-3.5671,-3.5393,-3.503,-3.4774,-3.4439,-2.3032,-2.2957,-2.2798,-2.2424,-2.1962,-2.1962,-2.1507,-2.0884,-2.141,-2.141,-2.1115,-2.1486,-2.2071,-2.2744,-2.2861,-2.3032,-2.3106,-2.3537,-2.3963,-2.4374,-2.4672,-2.4874,-2.4815,-2.4149,-2.3548,-2.3099,-2.2635,-2.2029,-2.125,-2.0271,-1.901,-1.7813,-1.7658,-1.676,-1.513,-1.4776,-1.4136,-1.325,-1.258,-1.1455,-0.9974,-1.0487,-1.118,-1.143,-1.0648,-1.0228,-1.0376,-1.0991,-1.1579,-1.2124,-1.2891,-1.407,-1.5415,-1.5556,-1.6381,-1.8471,-2.1656,-2.4737,-2.7259,-2.9038,-3.0777,-3.2362,-3.3326,-3.4282,-3.5068,-3.5509,-3.5611,-3.5492,-3.536,-3.5181,-3.5049,-3.4595,-3.4237,-3.4062,-3.3752,-3.3372,-3.2916,-3.2885,-3.2677,-3.2213,-3.1771,-3.1493,-3.1244,-3.0747,-3.041,-3.0551,-3.0426,-3.0452,-3.0608,-3.0771,-3.0914,-3.1346,-3.1647,-3.2246,-3.3051,-3.3625,-3.4012,-3.4208,-3.4242,-3.4398,-3.4551,-3.4813,-3.5024,-3.5323,-3.5502,-3.5671,-3.586,-3.5893,-3.5897,-3.5821,-3.5658,-3.5399,-3.5155,-3.4869,-3.4508,-2.3032,-2.2798,-2.2134,-2.0914,-1.9529,-1.9529,-1.9036,-1.847,-1.8381,-1.8683,-1.921,-1.8683,-1.8762,-1.9662,-2.178,-2.2947,-2.2872,-2.2861,-2.2702,-2.2606,-2.268,-2.2211,-2.1318,-2.1515,-2.0887,-1.982,-1.9773,-1.9189,-1.7988,-1.6951,-1.6195,-1.5526,-1.4155,-1.2892,-1.1992,-1.1424,-1.0421,-0.9234,-0.9916,-0.8779,-0.5387,-0.4232,-0.5506,-0.7834,-0.7366,-0.6851,-0.7231,-0.7487,-0.7951,-0.8524,-0.9456,-1.0873,-1.2811,-1.3172,-1.4709,-1.8145,-2.0699,-2.2865,-2.4805,-2.6992,-2.9062,-3.0711,-3.2492,-3.3921,-3.4674,-3.5217,-3.5392,-3.525,-3.5021,-3.487,-3.4774,-3.426,-3.3831,-3.3643,-3.3183,-3.261,-3.1969,-3.1969,-3.1539,-3.1072,-3.0977,-3.0841,-3.0518,-3.0156,-2.9968,-3.0156,-3.007,-2.9968,-3.0368,-3.0593,-3.0642,-3.0868,-3.1287,-3.1915,-3.2384,-3.2996,-3.3382,-3.3579,-3.3795,-3.4062,-3.4427,-3.4756,-3.4904,-3.5151,-3.5438,-3.5655,-3.5768,-3.5845,-3.5878,-3.584,-3.5755,-3.5533,-3.5254,-3.5066,-3.4694,-1.9778,-1.9788,-1.9474,-1.9018,-1.8487,-1.8479,-1.8247,-1.7997,-1.7997,-1.8141,-1.8381,-1.8069,-1.8149,-1.8523,-1.9219,-1.9603,-1.9593,-1.9965,-2.0101,-2.0033,-2.0246,-2.0159,-1.9762,-1.9303,-1.8779,-1.8152,-1.7299,-1.6212,-1.4946,-1.3884,-1.2941,-1.2018,-1.0872,-0.9674,-0.8496,-0.7731,-0.6753,-0.5682,-0.6329,-0.4944,-0.1624,-0.0695,-0.0693,-0.1074,-0.2466,-0.3172,-0.3321,-0.4411,-0.5106,-0.5328,-0.6638,-0.8161,-0.9862,-1.0849,-1.258,-1.5263,-1.7149,-1.9315,-2.2129,-2.4489,-2.6796,-2.9007,-3.1109,-3.2783,-3.394,-3.4882,-3.54,-3.5154,-3.4579,-3.4229,-3.4035,-3.3828,-3.3478,-3.2875,-3.2592,-3.2176,-3.1683,-3.1462,-3.1181,-3.0452,-2.9982,-2.9488,-2.9268,-2.895,-2.8904,-2.9042,-2.895,-2.9088,-2.9316,-2.9422,-2.9645,-3.0038,-3.0444,-3.0794,-3.1223,-3.2298,-3.2983,-3.3027,-3.3178,-3.3382,-3.3687,-3.4125,-3.4336,-3.4812,-3.5205,-3.5512,-3.5591,-3.5797,-3.5827,-3.5845,-3.5766,-3.5618,-3.5348,-3.5174,-3.4775,-1.7827,-1.756,-1.756,-1.7228,-1.6732,-1.674,-1.6577,-1.6332,-1.625,-1.6332,-1.625,-1.6332,-1.6242,-1.616,-1.5996,-1.5636,-1.5614,-1.7171,-1.7903,-1.7565,-1.7869,-1.7603,-1.6952,-1.6351,-1.5703,-1.4939,-1.3754,-1.2565,-1.1727,-1.0528,-0.951,-0.8644,-0.7521,-0.6,-0.4577,-0.3923,-0.3047,-0.2029,-0.2486,-0.1395,0.1475,0.2794,0.3418,0.3585,0.2035,0.0782,0.0233,-0.1396,-0.2169,-0.2401,-0.3714,-0.5254,-0.6779,-0.8454,-1.0233,-1.2202,-1.3401,-1.5598,-1.8903,-2.1296,-2.3564,-2.6135,-2.8616,-3.0693,-3.2383,-3.3714,-3.4491,-3.472,-3.4333,-3.3661,-3.3065,-3.2683,-3.2385,-3.2022,-3.1775,-3.1394,-3.083,-3.0492,-3.0077,-2.952,-2.9041,-2.8591,-2.8336,-2.8336,-2.8336,-2.8288,-2.8288,-2.84,-2.8528,-2.8591,-2.8685,-2.9241,-2.9496,-2.9832,-3.0318,-3.1159,-3.2092,-3.2263,-3.2613,-3.2809,-3.3136,-3.3534,-3.3957,-3.4438,-3.4849,-3.5181,-3.5458,-3.5675,-3.577,-3.5816,-3.5791,-3.5684,-3.5503,-3.5353,-3.4973,-1.7309,-1.6448,-1.6522,-1.5374,-1.4142,-1.4058,-1.3574,-1.3002,-1.2826,-1.299,-1.2983,-1.2826,-1.2723,-1.2401,-1.2395,-1.1536,-1.1566,-1.4759,-1.595,-1.518,-1.5255,-1.4345,-1.2862,-1.2693,-1.1753,-1.0302,-0.9087,-0.8562,-0.8352,-0.6744,-0.5729,-0.5368,-0.3855,-0.2154,-0.0083,-0.0325,0.0643,0.1842,0.1262,0.195,0.4051,0.621,0.6858,0.5973,0.5829,0.511,0.3361,0.1794,0.086,0.0703,-0.0468,-0.1943,-0.3728,-0.5723,-0.7677,-0.8996,-0.9928,-1.2011,-1.5351,-1.7327,-1.9372,-2.1832,-2.4742,-2.7078,-2.9041,-3.002,-3.1222,-3.3037,-3.2415,-3.2117,-3.1315,-3.0649,-3.0363,-3.1164,-3.049,-2.9868,-2.9444,-2.8779,-2.8273,-2.8225,-2.8015,-2.8225,-2.8192,-2.7932,-2.7819,-2.7932,-2.7997,-2.8046,-2.8192,-2.8255,-2.8288,-2.848,-2.8888,-2.9361,-2.9613,-2.9962,-3.0784,-3.1497,-3.1969,-3.2331,-3.2791,-3.3223,-3.3633,-3.4096,-3.4678,-3.5007,-3.5335,-3.556,-3.5802,-3.5856,-3.5812,-3.5768,-3.5671,-3.5508,-3.5249,-1.3393,-1.3128,-1.2693,-1.2178,-1.169,-1.169,-1.1439,-1.1187,-1.0909,-1.0732,-1.0727,-1.0373,-1.0196,-1.0115,-0.9861,-0.9597,-0.9416,-1.0691,-1.1033,-1.0771,-1.0776,-1.053,-0.9947,-0.9775,-0.8909,-0.7334,-0.6358,-0.5662,-0.4868,-0.3166,-0.2268,-0.1807,-0.0342,0.1099,0.2171,0.2402,0.3139,0.4289,0.5141,0.6009,0.7247,0.9383,1.0031,0.9349,0.9787,0.9602,0.8347,0.5367,0.3757,0.3672,0.2205,0.0649,-0.0958,-0.2302,-0.369,-0.5245,-0.6049,-0.8067,-1.1576,-1.3011,-1.4519,-1.6889,-1.9216,-2.1027,-2.1988,-1.9978,-2.1292,-2.5524,-2.3438,-2.1925,-2.6848,-2.761,-2.7176,-2.8936,-2.8513,-2.7948,-2.7554,-2.6909,-2.6591,-2.6486,-2.625,-2.6051,-2.6051,-2.6051,-2.6318,-2.6625,-2.6678,-2.6901,-2.75,-2.765,-2.8158,-2.8685,-2.8919,-2.8996,-2.9332,-2.9556,-3.0091,-3.0737,-3.1253,-3.1881,-3.2364,-3.2818,-3.327,-3.3836,-3.4386,-3.4831,-3.5152,-3.5445,-3.5663,-3.5851,-3.5819,-3.5809,-3.5794,-3.5629,-3.5377,-1.1026,-1.0687,-1.0245,-0.9899,-0.9552,-0.9557,-0.9552,-0.9552,-0.9278,-0.91,-0.9009,-0.8566,-0.8301,-0.8127,-0.7683,-0.7155,-0.6718,-0.6286,-0.5931,-0.6022,-0.7526,-0.7614,-0.6997,-0.6373,-0.567,-0.4524,-0.3367,-0.2572,-0.1958,-0.0178,0.0795,0.1049,0.2358,0.3563,0.4449,0.4999,0.5736,0.6826,0.7906,0.8932,1.0014,1.1617,1.2265,1.1951,1.2406,1.2228,1.1277,0.9252,0.7741,0.6671,0.4994,0.3472,0.2364,0.1058,-0.0323,-0.1339,-0.2341,-0.4183,-0.7647,-0.8332,-0.9243,-1.1289,-1.299,-1.4288,-1.4486,-1.1748,-1.3337,-1.5371,-1.318,-1.1855,-1.5451,-1.7952,-1.8967,-2.0018,-2.4005,-2.5673,-2.5586,-2.5135,-2.4871,-2.4759,-2.449,-2.4288,-2.4244,-2.45,-2.4684,-2.5092,-2.5398,-2.5701,-2.6453,-2.6782,-2.7434,-2.7947,-2.8061,-2.8352,-2.8935,-2.9273,-2.9515,-2.9995,-3.0485,-3.1232,-3.1862,-3.2347,-3.2813,-3.3588,-3.4237,-3.4576,-3.4893,-3.5182,-3.5441,-3.5587,-3.5792,-3.5761,-3.5716,-3.5646,-3.5424,-0.9899,-0.9126,-0.9039,-0.8436,-0.7746,-0.7749,-0.7746,-0.7749,-0.7661,-0.7566,-0.7386,-0.676,-0.6498,-0.6148,-0.507,-0.4184,-0.3126,-0.2586,-0.1962,-0.2318,-0.4176,-0.5237,-0.4275,-0.2939,-0.2139,-0.1695,-0.0089,0.0803,0.0891,0.2494,0.3388,0.3553,0.453,0.5523,0.6695,0.7636,0.867,0.9503,1.0157,1.1117,1.2265,1.33,1.3791,1.368,1.3968,1.3784,1.3097,1.3144,1.2407,1.0187,0.7847,0.6681,0.6071,0.4172,0.2809,0.233,0.177,-0.0316,-0.2929,-0.3419,-0.3751,-0.5185,-0.6339,-0.7292,-0.7431,-0.5737,-0.5015,-0.5896,-0.3338,-0.1443,-0.1489,-0.3895,-0.663,-0.8311,-1.752,-2.3127,-2.367,-2.3318,-2.3128,-2.3056,-2.2924,-2.2733,-2.2685,-2.3187,-2.3508,-2.3884,-2.4315,-2.4727,-2.5273,-2.57,-2.6,-2.652,-2.7144,-2.7685,-2.8306,-2.8857,-2.9134,-2.9677,-3.014,-3.0771,-3.1493,-3.1987,-3.253,-3.3288,-3.4012,-3.4319,-3.4679,-3.5002,-3.5316,-3.5568,-3.5663,-3.5651,-3.5632,-3.5611,-3.556,-0.7647,-0.739,-0.6877,-0.6444,-0.6272,-0.6278,-0.6278,-0.6281,-0.6281,-0.5549,-0.465,-0.3848,-0.3309,-0.2324,-0.2056,-0.1611,-0.1163,-0.0447,-0.0,0.0268,0.0089,-0.0979,-0.1251,-0.0089,0.0715,0.0983,0.241,0.3393,0.3482,0.4723,0.5697,0.6389,0.7369,0.8432,0.9543,1.0499,1.124,1.1838,1.3195,1.3954,1.4458,1.5331,1.5871,1.5921,1.6452,1.6338,1.571,1.5786,1.4745,1.2314,1.0942,0.9927,0.9206,0.7377,0.6229,0.6009,0.5328,0.4223,0.2609,0.1876,0.1317,0.0762,0.0224,0.0146,0.0284,0.5758,0.5738,0.3858,0.5937,0.7981,0.3819,0.2584,0.0861,-0.4338,-1.2681,-1.9465,-2.0258,-2.0647,-2.0882,-2.0882,-2.071,-2.071,-2.0773,-2.1197,-2.1782,-2.2384,-2.2927,-2.3546,-2.4226,-2.4811,-2.5148,-2.5943,-2.6567,-2.707,-2.761,-2.8259,-2.8826,-2.9454,-2.9941,-3.0493,-3.1184,-3.1825,-3.2332,-3.2965,-3.3742,-3.4181,-3.4561,-3.4954,-3.5238,-3.5503,-3.559,-3.5604,-3.5672,-3.5701,-3.5681,-0.6352,-0.6266,-0.5927,-0.5211,-0.4576,-0.4578,-0.4489,-0.4399,-0.4036,-0.3405,-0.2506,-0.2151,-0.1433,-0.0447,0.009,0.0537,0.0983,0.1786,0.2231,0.2409,0.3115,0.2493,0.1607,0.2324,0.2861,0.304,0.4636,0.5346,0.5789,0.7024,0.8074,0.8765,0.9894,1.0763,1.1268,1.2783,1.3536,1.3864,1.5141,1.5996,1.6487,1.6919,1.7415,1.7747,1.8318,1.8238,1.7836,1.7423,1.6316,1.4684,1.3671,1.2763,1.1879,1.0263,0.9256,0.9064,0.8621,0.8118,0.7737,0.7092,0.6763,0.6648,0.6481,0.6768,0.8098,1.2885,1.2915,1.2222,1.6241,1.6465,1.42,1.24,0.8931,0.3914,-0.3138,-0.9754,-1.5447,-1.6985,-1.7369,-1.7456,-1.7841,-1.8158,-1.8225,-1.9138,-2.016,-2.1055,-2.167,-2.2482,-2.3301,-2.3833,-2.4341,-2.5037,-2.5699,-2.6154,-2.6643,-2.7259,-2.8211,-2.8888,-2.9913,-3.0384,-3.0931,-3.1679,-3.2417,-3.2996,-3.357,-3.4086,-3.4517,-3.4886,-3.5124,-3.5355,-3.5458,-3.5599,-3.5666,-3.5738,-3.5753,-0.5392,-0.5397,-0.5584,-0.4764,-0.3408,-0.2688,-0.197,-0.161,-0.1072,-0.0714,-0.0446,-0.0625,0.0179,0.0535,0.1698,0.2503,0.3212,0.3838,0.4463,0.4991,0.5604,0.5419,0.4446,0.463,0.4903,0.5166,0.6577,0.7453,0.8059,0.9552,1.0509,1.1096,1.2105,1.2693,1.329,1.4712,1.5479,1.5726,1.6577,1.7488,1.806,1.839,1.8789,1.9432,1.959,1.952,1.9204,1.8718,1.79,1.7017,1.607,1.5216,1.4296,1.2915,1.2152,1.1755,1.1746,1.1676,1.196,1.1461,1.1417,1.1379,1.1266,1.2067,1.352,1.546,1.7072,1.844,2.279,2.3612,2.4818,2.2535,1.7782,1.2635,1.0023,0.3224,-0.6966,-1.1759,-1.2467,-1.2833,-1.3744,-1.5023,-1.5739,-1.693,-1.8542,-1.8833,-1.9609,-2.0606,-2.1646,-2.2494,-2.3157,-2.3807,-2.4486,-2.5107,-2.5658,-2.625,-2.7309,-2.8275,-2.9645,-3.041,-3.0841,-3.1573,-3.2497,-3.316,-3.3299,-3.3825,-3.4574,-3.487,-3.5047,-3.5258,-3.5432,-3.5553,-3.5667,-3.574,-3.5761,-0.3496,-0.3587,-0.5131,-0.5499,-0.4499,-0.1165,0.2151,0.4491,0.3045,0.2683,0.3484,0.3664,0.3482,0.3392,0.366,0.3931,0.4372,0.5265,0.6068,0.765,0.8607,0.886,0.8237,0.7971,0.7621,0.7888,0.8686,0.9716,1.0651,1.1337,1.2451,1.3878,1.4302,1.4982,1.5749,1.6651,1.7407,1.7568,1.8318,1.9116,1.9737,1.9904,2.0294,2.1001,2.1068,2.0837,2.0382,2.0304,1.9835,1.8966,1.806,1.739,1.6798,1.5614,1.4986,1.5129,1.4524,1.4241,1.4583,1.4163,1.3698,1.3726,1.4515,1.5388,1.5773,1.7466,1.8626,1.9948,2.1412,2.3984,2.6531,2.7061,2.3512,1.944,1.7989,1.5108,0.6921,0.0084,-0.3393,-0.4878,-0.8355,-1.2294,-1.2492,-1.2822,-1.4328,-1.6023,-1.735,-1.8451,-1.9609,-2.0796,-2.1634,-2.2214,-2.3348,-2.4142,-2.5438,-2.6246,-2.753,-2.8387,-2.9508,-3.0384,-3.0818,-3.1176,-3.1969,-3.2464,-3.2773,-3.3524,-3.4551,-3.4754,-3.4907,-3.5165,-3.5391,-3.5496,-3.559,-3.5694,-3.5776,-0.3142,-0.1705,-0.2607,-0.1975,-0.009,0.2334,0.4224,0.5126,0.4667,0.448,0.4835,0.483,0.5087,0.5612,0.57,0.6051,0.6933,0.7467,0.8436,0.9749,1.0788,1.1381,1.1895,1.161,1.1252,1.0317,1.0844,1.1866,1.2783,1.3633,1.4566,1.5659,1.6242,1.6748,1.7496,1.855,1.9107,1.9335,1.9982,2.0682,2.1068,2.1155,2.1231,2.1538,2.1461,2.1068,2.1211,2.0914,2.0847,2.0595,1.9963,1.9097,1.8461,1.7543,1.722,1.7001,1.7066,1.6335,1.6404,1.6421,1.6277,1.6049,1.6826,1.7264,1.7766,1.8932,1.9444,1.9846,2.0997,2.3009,2.5437,2.5977,2.4716,2.4849,2.3967,2.2673,1.8914,1.1141,0.5068,0.4318,0.1784,-0.2028,-0.4311,-0.6378,-1.006,-1.1754,-1.3315,-1.4522,-1.6773,-1.7969,-1.9458,-2.0441,-2.1856,-2.3263,-2.5011,-2.6489,-2.8071,-2.8886,-2.9685,-3.0309,-3.0764,-3.101,-3.1342,-3.1917,-3.267,-3.3713,-3.4586,-3.4693,-3.4754,-3.4997,-3.5174,-3.538,-3.5533,-3.5621,-3.5747,-0.2066,0.0809,0.0539,0.2336,0.5044,0.5315,0.4947,0.4395,0.4659,0.5015,0.5191,0.4914,0.6145,0.7021,0.746,0.8511,0.9479,1.026,1.0697,1.1397,1.2589,1.3353,1.3944,1.4273,1.4085,1.2372,1.2977,1.3904,1.4906,1.5913,1.6413,1.7001,1.79,1.839,1.8789,1.9816,2.0605,2.0682,2.1145,2.1756,2.1918,2.1993,2.2069,2.222,2.1907,2.1745,2.2038,2.1821,2.1603,2.2113,2.1593,2.043,1.9344,1.8798,1.863,1.7908,1.8301,1.8275,1.808,1.824,1.8452,1.8625,1.8683,1.8776,1.9312,1.96,1.9813,2.0114,2.0839,2.1902,2.3316,2.3891,2.4883,2.5855,2.6743,2.7883,2.7099,1.9619,1.4966,1.2832,0.9221,0.5016,0.3246,0.1398,-0.3297,-0.729,-0.8703,-1.0155,-1.2029,-1.2715,-1.2583,-1.1865,-1.1717,-1.6054,-1.8481,-2.0843,-2.313,-2.6632,-2.7897,-2.7805,-2.86,-2.9685,-2.9931,-3.1864,-3.2859,-3.3692,-3.4181,-3.4236,-3.4373,-3.4718,-3.4935,-3.5091,-3.5302,-3.5553,-3.569,0.423,0.4593,0.3051,0.2869,0.3497,0.4214,0.5201,0.6,0.5455,0.5897,0.6697,0.7397,0.7742,0.8444,0.9135,0.9657,1.0351,1.1386,1.2242,1.276,1.4035,1.5047,1.5213,1.5711,1.5779,1.5936,1.5681,1.5846,1.6667,1.7334,1.7819,1.8718,1.9511,1.9904,2.0138,2.1068,2.1538,2.1614,2.1918,2.2295,2.2681,2.283,2.3065,2.3508,2.3202,2.3191,2.3106,2.3043,2.2681,2.1756,2.168,2.1155,2.0459,2.0089,1.9854,1.9766,1.9362,1.9283,1.9599,1.9353,1.9659,1.9993,2.0091,2.0101,2.0168,2.0095,1.9993,2.0098,2.0317,2.0966,2.1614,2.2252,2.2759,2.3701,2.457,2.5271,2.5344,2.3684,2.0879,1.9029,1.5009,1.1465,0.9857,0.8242,0.4967,0.1917,0.059,-0.0788,-0.2379,-0.198,-0.0909,0.0105,0.1215,-0.4826,-1.0719,-1.3244,-1.6033,-2.1262,-2.2929,-2.2002,-2.3405,-2.6551,-2.8287,-2.7741,-3.038,-3.2936,-3.3323,-3.3721,-3.4097,-3.4501,-3.466,-3.4735,-3.5133,-3.5423,-3.5611,0.4858,0.5586,0.4674,0.4308,0.4393,0.4844,0.5555,0.6263,0.6077,0.6602,0.7573,0.8281,0.9065,0.9845,1.0366,1.088,1.1655,1.2674,1.336,1.3776,1.5123,1.6049,1.6206,1.6698,1.7277,1.7529,1.7521,1.7594,1.8175,1.8407,1.8807,1.9292,2.0079,2.0469,2.0857,2.1766,2.2306,2.2456,2.283,2.3139,2.3593,2.3666,2.4043,2.4189,2.4093,2.4009,2.4227,2.3779,2.3694,2.3379,2.2787,2.2274,2.169,2.1011,2.0489,2.0489,2.0167,2.0089,2.0489,2.0167,2.0235,2.0489,2.0576,2.0576,2.0537,2.0361,2.0234,2.0262,2.0365,2.0585,2.0956,2.1251,2.1637,2.2182,2.2748,2.3248,2.3958,2.4578,2.3692,2.2628,2.0883,1.7971,1.5777,1.4166,1.2558,1.1068,0.9618,0.81,0.6533,0.6479,0.6894,0.3877,0.2998,-0.2228,-0.7472,-0.8708,-1.1538,-1.6239,-1.8035,-1.7119,-1.6426,-1.8726,-1.9922,-2.0079,-2.41,-2.7905,-3.3213,-3.3852,-3.4051,-3.4023,-3.3896,-3.3958,-3.48,-3.5309,-3.5458,0.4308,0.5668,0.5668,0.5662,0.5744,0.6008,0.6266,0.6523,0.6956,0.7658,0.8532,0.9061,1.0106,1.1316,1.2089,1.2601,1.3294,1.421,1.4622,1.5032,1.6288,1.7033,1.7367,1.7934,1.8585,1.8807,1.9063,1.9152,1.8993,1.9292,1.9529,1.9923,2.0469,2.1011,2.1461,2.2606,2.3075,2.3457,2.3824,2.4189,2.4273,2.4418,2.4502,2.4562,2.407,2.4215,2.4814,2.4432,2.436,2.4276,2.3829,2.3095,2.2809,2.1614,2.0867,2.0789,2.0712,2.0644,2.0566,2.0566,2.0489,2.0576,2.0576,2.0576,2.0566,2.0537,2.045,2.0411,2.0527,2.0236,2.0004,2.0197,2.0478,2.0671,2.0948,2.1303,2.1913,2.2366,2.2539,2.2734,2.4507,2.3175,1.9587,1.9217,1.7397,1.6564,1.5146,1.4194,1.2675,1.139,1.0128,0.4932,0.1394,-0.2775,-0.5679,-0.5686,-0.8926,-1.3248,-1.3512,-1.2347,-1.0668,-0.9832,-1.1154,-1.3092,-1.436,-1.8626,-2.6148,-3.2784,-3.2331,-3.1982,-3.2463,-3.3386,-3.4585,-3.512,-3.5259,0.5476,0.5749,0.5741,0.5738,0.5911,0.6877,0.7404,0.7658,0.8619,0.9401,0.9749,1.0621,1.1483,1.2674,1.4119,1.4803,1.522,1.5711,1.6124,1.6453,1.7448,1.8112,1.8362,1.8763,1.9292,1.9668,2.007,1.9775,1.9618,2.007,2.0382,2.0615,2.169,2.2617,2.2456,2.3361,2.4043,2.4055,2.4189,2.4345,2.4502,2.4562,2.4706,2.4718,2.4706,2.4694,2.504,2.4874,2.4802,2.4337,2.4192,2.361,2.3021,2.222,2.1766,2.1461,2.1088,2.0576,2.0576,2.0576,2.0576,2.0576,2.0576,2.0576,2.0576,2.0489,2.0245,1.9539,2.0089,2.0001,1.9204,1.9213,1.9116,1.9027,1.9177,1.9395,1.9828,2.0362,2.0458,2.0245,2.1174,2.2423,2.1292,2.195,2.2293,2.1544,2.0573,1.898,1.6991,1.4202,1.1794,0.6309,0.3254,-0.0617,-0.2522,-0.2728,-0.3775,-0.8605,-0.6304,-0.5179,-0.3624,-0.2038,-0.5097,-0.6745,-0.7771,-1.0589,-1.7923,-2.3712,-2.7587,-2.9374,-2.9119,-3.1605,-3.4736,-3.4918,-3.4472,0.6618,0.5738,0.626,0.6526,0.6615,0.7749,0.8364,0.8707,0.9318,1.0014,1.0794,1.1655,1.2851,1.4203,1.5137,1.5394,1.5636,1.6453,1.687,1.7204,1.8031,1.862,1.8692,1.8922,1.945,2.0129,2.045,2.0692,2.0615,2.0914,2.1221,2.1461,2.2381,2.2927,2.315,2.3824,2.4127,2.4322,2.4659,2.4933,2.5028,2.5241,2.5241,2.4992,2.5052,2.5123,2.5182,2.517,2.5099,2.4719,2.442,2.3975,2.3379,2.2574,2.1756,2.169,2.1011,2.0644,2.0576,2.0576,2.0654,2.0644,2.0644,2.0576,2.0566,2.0333,2.0177,1.9696,2.0098,1.9775,1.9054,1.946,1.9292,1.8966,1.8238,1.839,1.8612,1.8301,1.8443,1.8123,1.784,1.8963,1.9831,1.9795,1.9425,1.8844,1.7773,1.6333,1.4178,1.1484,0.9265,0.6754,0.4719,0.2849,0.1709,0.117,0.3129,0.1535,0.6955,0.7419,0.6078,0.5424,0.1848,-0.1549,-0.3651,-0.7089,-1.0973,-1.5217,-1.9603,-2.2655,-2.5444,-2.7954,-3.0471,-3.2511,-3.2493,0.8113,0.6526,0.7139,0.7404,0.7577,0.8798,0.941,0.9575,1.0188,1.0885,1.1746,1.2851,1.4287,1.5545,1.5966,1.6221,1.6221,1.6878,1.7286,1.77,1.8201,1.87,1.9002,1.9231,1.9835,2.0585,2.1221,2.168,2.222,2.2371,2.2371,2.2145,2.299,2.3298,2.3519,2.402,2.4539,2.5004,2.5475,2.5755,2.5906,2.6171,2.5906,2.5652,2.5523,2.5453,2.5312,2.5312,2.5312,2.517,2.4791,2.4492,2.4192,2.3084,2.236,2.2069,2.1405,2.0731,2.0731,2.0731,2.0731,2.0731,2.0731,2.0731,2.0489,2.0255,1.9696,1.9381,2.002,1.9627,1.9063,1.9134,1.8727,1.8238,1.7917,1.8078,1.7989,1.7172,1.6519,1.6273,1.5764,1.4996,1.5767,1.6056,1.6009,1.5782,1.4803,1.3576,1.1421,0.8949,0.7334,0.5563,0.3976,0.2884,0.243,0.3076,0.5851,0.8169,1.3349,1.3447,0.7873,0.8202,0.7628,0.4375,0.114,0.4665,0.5717,-0.3059,-1.1309,-1.2409,-1.4744,-2.1595,-2.5339,-2.752,-3.0173,0.9984,0.8281,0.8368,0.846,0.854,0.9923,1.0438,1.0616,1.1832,1.2443,1.2948,1.4384,1.5628,1.6617,1.7286,1.7627,1.7789,1.7878,1.8193,1.8442,1.87,1.9161,1.9539,2.0148,2.0847,2.168,2.2145,2.2905,2.374,2.3582,2.3361,2.3139,2.3728,2.397,2.4322,2.4731,2.5487,2.5951,2.6352,2.6569,2.6786,2.7002,2.6744,2.6277,2.6151,2.6013,2.5382,2.5312,2.5312,2.5312,2.5158,2.5075,2.4779,2.3683,2.3117,2.267,2.1669,2.1088,2.1031,2.0974,2.0916,2.0994,2.0906,2.0819,2.042,2.0819,2.0167,1.8816,1.9539,1.9054,1.8175,1.7529,1.7925,1.7269,1.6944,1.6609,1.6191,1.5191,1.4622,1.4468,1.3866,1.2996,1.2395,1.2843,1.3168,1.2987,1.168,1.0459,0.9125,0.6987,0.5826,0.4222,0.249,0.1444,0.1003,0.2067,0.3449,0.385,0.6641,0.5753,0.2199,0.4675,0.9955,0.9819,0.7589,1.5159,1.9022,0.7094,-0.0927,-0.0808,-0.4704,-1.4353,-1.8806,-2.011,-2.4121,1.0845,1.0212,1.0207,0.9859,0.9419,1.0722,1.1332,1.1499,1.2192,1.3288,1.4384,1.5628,1.6788,1.7619,1.8031,1.8362,1.8451,1.8603,1.8984,1.952,1.9756,2.0226,2.076,2.1145,2.1766,2.2456,2.2927,2.3446,2.4043,2.4189,2.4116,2.4032,2.4383,2.4874,2.5229,2.5569,2.6296,2.6963,2.7193,2.7313,2.7108,2.7535,2.713,2.5791,2.5721,2.5581,2.5312,2.5312,2.5312,2.5312,2.5312,2.5382,2.537,2.4348,2.3768,2.3316,2.206,2.14,2.1195,2.1138,2.1148,2.0984,2.0819,2.0576,2.0264,2.0029,1.9478,1.8913,1.8984,1.8665,1.8031,1.8103,1.8175,1.678,1.5884,1.547,1.472,1.3964,1.3366,1.3451,1.2157,1.0864,1.0265,0.9831,1.0168,1.0255,0.8765,0.7457,0.6508,0.5636,0.4528,0.389,0.2377,0.1585,0.1215,0.1042,0.0958,0.1216,0.1472,0.1295,0.1459,0.5415,0.973,1.0728,1.1331,1.3973,1.4216,1.1271,0.8419,0.6503,-0.0708,-1.0487,-1.2805,-1.3518,-1.6845,1.1521,1.1348,1.1354,1.1084,1.0559,1.1435,1.2037,1.254,1.2784,1.3951,1.5801,1.6453,1.7359,1.8112,1.8442,1.8531,1.8612,1.8843,1.945,1.9904,2.0285,2.0981,2.1603,2.2069,2.2381,2.299,2.3372,2.3824,2.4273,2.4273,2.4478,2.4683,2.4957,2.53,2.53,2.6171,2.6909,2.7841,2.8141,2.7958,2.7643,2.7921,2.7507,2.6,2.5791,2.5581,2.5382,2.5312,2.5382,2.5382,2.5465,2.5548,2.5312,2.4933,2.4264,2.3408,2.2626,2.1717,2.1451,2.1282,2.1359,2.1349,2.1118,2.0722,2.0098,1.9548,1.9548,1.8531,1.8683,1.8674,1.7951,1.7772,1.718,1.5703,1.547,1.5054,1.43,1.3457,1.2942,1.2516,1.1311,1.0539,0.924,0.8723,0.8032,0.8017,0.6848,0.5968,0.5445,0.4563,0.3846,0.3303,0.2765,0.2234,0.1879,0.1865,0.1853,0.2033,0.2382,0.2922,0.4058,0.7198,0.8307,0.8484,0.9225,1.0486,1.0223,0.8951,1.0555,1.2349,0.3976,-0.4762,-0.9177,-0.9978,-0.9711,1.2123,1.1348,1.1613,1.1699,1.178,1.1866,1.2625,1.3457,1.3957,1.4956,1.6453,1.678,1.744,1.8282,1.8442,1.8612,1.8772,1.8851,1.9311,2.006,2.0362,2.0904,2.1756,2.2456,2.2916,2.3139,2.3593,2.4116,2.4429,2.4429,2.4766,2.5194,2.5253,2.53,2.4539,2.5755,2.7324,2.8766,2.8944,2.856,2.8247,2.8051,2.7085,2.6414,2.6,2.5721,2.5382,2.5382,2.5382,2.5523,2.5606,2.5676,2.5746,2.5229,2.4564,2.3829,2.3158,2.2435,2.1883,2.1655,2.1655,2.1568,2.1339,2.0867,2.0304,2.007,1.9775,1.8531,1.8603,1.8184,1.7521,1.678,1.6034,1.5206,1.5054,1.4699,1.3946,1.2869,1.2198,1.1772,1.1679,1.1165,0.9428,0.7952,0.6646,0.5841,0.4839,0.4389,0.4389,0.3849,0.3226,0.3047,0.2868,0.2688,0.2419,0.2688,0.2771,0.2956,0.3045,0.3312,0.3755,0.5237,0.6022,0.6207,0.7299,0.8841,0.8439,0.7665,1.0024,1.1854,0.9291,0.2627,-0.2551,-0.4189,-0.1327,1.1901,1.2032,1.2118,1.2711,1.3385,1.3039,1.3288,1.3866,1.5123,1.6116,1.678,1.744,1.8031,1.8523,1.8763,1.8843,1.9073,1.9152,1.9608,2.0304,2.0372,2.1375,2.2306,2.2841,2.3298,2.374,2.4189,2.4345,2.4502,2.4574,2.4718,2.5004,2.5407,2.5721,2.6514,2.7445,2.8195,2.9049,2.8848,2.8225,2.7789,2.7022,2.6269,2.5779,2.5721,2.5581,2.5382,2.5465,2.5535,2.5676,2.5676,2.5898,2.605,2.5606,2.5087,2.4348,2.361,2.3191,2.2542,2.2111,2.1949,2.1721,2.1328,2.0857,2.0157,1.9539,1.9073,1.8683,1.8692,1.8193,1.744,1.7277,1.6535,1.5137,1.4678,1.4385,1.3675,1.2249,1.1342,1.0965,1.0705,1.0125,0.8762,0.7793,0.6518,0.5764,0.5022,0.451,0.4316,0.3676,0.3045,0.2956,0.2867,0.2867,0.2956,0.3135,0.3135,0.3135,0.3135,0.3223,0.3757,0.4289,0.4994,0.5871,0.6486,0.7014,0.726,0.7839,0.9611,1.0166,0.8538,0.8869,0.6242,0.8098,1.3721,1.2492,1.279,1.3039,1.3548,1.4307,1.3964,1.4126,1.4956,1.6445,1.7196,1.7448,1.8103,1.8523,1.8763,1.8922,1.9073,1.9292,1.9301,1.9775,2.0391,2.0469,2.1538,2.2531,2.3065,2.3593,2.4116,2.4418,2.4574,2.4778,2.4706,2.4849,2.5123,2.5465,2.6471,2.7324,2.7524,2.7789,2.856,2.8549,2.8119,2.7511,2.6752,2.6021,2.5603,2.5453,2.5453,2.5535,2.5618,2.577,2.5865,2.5935,2.6144,2.6226,2.5923,2.5312,2.448,2.3621,2.3191,2.2767,2.2628,2.2478,2.2327,2.1471,2.0934,2.0547,2.0001,1.9311,1.8931,1.8816,1.807,1.7368,1.7269,1.6498,1.5092,1.4541,1.4335,1.3862,1.2506,1.1552,1.1079,1.0222,0.9389,0.8554,0.757,0.6587,0.5988,0.5395,0.4867,0.4351,0.3792,0.3244,0.3334,0.3325,0.3409,0.3497,0.3582,0.3582,0.3403,0.3403,0.3492,0.3758,0.438,0.5001,0.5531,0.588,0.6322,0.7037,0.8047,0.9099,0.9705,0.938,1.0617,1.3232,1.4893,1.6981,1.3977,1.3561,1.4146,1.4391,1.4475,1.4643,1.547,1.678,1.7619,1.8112,1.8362,1.8362,1.8683,1.8922,1.9002,1.9152,1.9301,1.9292,1.9687,2.0157,2.0235,2.1461,2.2295,2.2968,2.3497,2.4189,2.4646,2.4778,2.504,2.504,2.5111,2.5594,2.6346,2.7082,2.7204,2.7191,2.7591,2.8468,2.8417,2.8304,2.8133,2.7695,2.7071,2.6621,2.6346,2.6263,2.6276,2.6263,2.6297,2.6272,2.6375,2.6477,2.6288,2.5807,2.4981,2.4139,2.3271,2.3112,2.323,2.3263,2.3317,2.3329,2.322,2.225,2.1312,2.0615,2.0061,1.9407,1.9074,1.802,1.7091,1.6661,1.623,1.5385,1.4728,1.4353,1.4115,1.3326,1.242,1.1657,1.0674,0.9853,0.9033,0.8058,0.7028,0.6435,0.5823,0.5011,0.457,0.4395,0.4021,0.4008,0.4081,0.4143,0.4137,0.3961,0.3941,0.3851,0.3941,0.403,0.4297,0.4567,0.5095,0.5447,0.5265,0.5708,0.6688,0.7312,0.7742,0.8198,0.8459,0.9356,1.1035,0.7278,0.7777,1.4126,1.4146,1.4727,1.5304,1.6064,1.6722,1.7375,1.7934,1.8193,1.8442,1.8612,1.8763,1.8843,1.9002,1.9161,1.9222,1.9292,1.9292,1.9381,1.9618,1.9844,2.0547,2.1385,2.2285,2.2957,2.3801,2.449,2.4921,2.5111,2.517,2.5581,2.6208,2.6688,2.7082,2.7377,2.7284,2.8183,2.8678,2.8498,2.8835,2.9212,2.8879,2.8486,2.8218,2.7819,2.7761,2.7703,2.7398,2.7338,2.7329,2.7451,2.7548,2.756,2.7114,2.6442,2.5298,2.4492,2.405,2.4415,2.4481,2.4502,2.461,2.472,2.3545,2.2241,2.1214,2.0813,2.0079,1.9678,1.8785,1.7782,1.7093,1.6316,1.5459,1.4845,1.4428,1.4001,1.3118,1.2296,1.1342,1.0423,0.9944,0.9196,0.8538,0.7579,0.6985,0.6268,0.5432,0.4784,0.4603,0.4455,0.444,0.4424,0.44,0.4369,0.4274,0.4236,0.4297,0.4322,0.4516,0.4779,0.5049,0.5379,0.563,0.5802,0.6154,0.6688,0.7048,0.7404,0.6953,0.7159,0.7941,0.785,0.5137,0.3554,1.481,1.5151,1.5567,1.6312,1.7221,1.787,1.8282,1.8442,1.8442,1.8523,1.8772,1.8922,1.9002,1.9152,1.9222,1.9301,1.939,1.9469,1.9548,1.9627,1.9548,2.0313,2.1001,2.1897,2.2872,2.3717,2.4467,2.5123,2.517,2.5312,2.5664,2.6346,2.662,2.7426,2.816,2.8808,2.9361,2.9504,2.947,2.9668,2.9941,3.0065,3.0011,2.9899,2.9561,2.9434,2.9293,2.8762,2.8473,2.8303,2.8375,2.817,2.7999,2.7545,2.6649,2.5524,2.4993,2.4904,2.5126,2.5237,2.5449,2.5561,2.5428,2.4219,2.3207,2.2241,2.1375,2.0606,2.0364,1.9853,1.8824,1.7689,1.6638,1.5579,1.5068,1.4465,1.3579,1.2596,1.1722,1.0747,1.0186,0.9788,0.9312,0.873,0.8127,0.7189,0.6372,0.5556,0.4981,0.4602,0.4549,0.452,0.4506,0.4487,0.4459,0.4528,0.4422,0.4416,0.444,0.4717,0.5043,0.5365,0.5533,0.6028,0.6602,0.6707,0.6646,0.6966,0.7221,0.6789,0.6361,0.6688,0.7115,0.6225,0.5252,1.568,1.6087,1.6574,1.7221,1.804,1.8273,1.8523,1.87,1.8523,1.8674,1.8993,1.8993,1.9152,1.9222,1.9292,1.939,1.9478,1.9557,1.9636,1.9872,1.9784,2.0323,2.1221,2.2188,2.3021,2.3913,2.4731,2.5253,2.5241,2.5441,2.5791,2.6496,2.7278,2.8279,2.9525,3.0243,3.0791,3.1036,3.0717,3.0643,3.1043,3.1059,3.0814,3.0733,3.0637,3.0554,3.0333,2.9957,2.9366,2.9093,2.8784,2.8508,2.8139,2.7691,2.6618,2.5945,2.5656,2.5678,2.5859,2.5949,2.5947,2.5644,2.5026,2.439,2.371,2.2786,2.1845,2.1174,2.0857,1.9957,1.8888,1.8303,1.7394,1.6102,1.5223,1.4489,1.3463,1.225,1.083,1.0113,0.9916,0.9624,0.9723,0.9126,0.8428,0.7531,0.6634,0.5822,0.5277,0.4884,0.4749,0.471,0.4689,0.4771,0.4757,0.4832,0.4639,0.4643,0.4647,0.4631,0.4866,0.5191,0.56,0.5949,0.63,0.6439,0.6523,0.6799,0.6998,0.6905,0.6448,0.586,0.5757,0.5863,0.5374,1.5673,1.617,1.691,1.7635,1.8273,1.8362,1.8603,1.8922,1.8843,1.8993,1.9231,1.9222,1.9222,1.9292,1.9301,1.9478,1.9566,1.9715,1.9715,1.9872,1.9951,2.0557,2.1385,2.2264,2.3158,2.4047,2.4791,2.5312,2.5324,2.5523,2.6151,2.7335,2.8159,2.9241,3.0684,3.1382,3.1917,3.2402,3.2269,3.2273,3.2978,3.2882,3.2758,3.284,3.2873,3.2012,3.1588,3.091,3.0268,2.9745,2.953,2.9313,2.9123,2.8545,2.7999,2.747,2.6817,2.6634,2.6623,2.6691,2.66,2.6415,2.5858,2.511,2.422,2.3167,2.2357,2.1717,2.1058,2.0116,1.9159,1.8637,1.7934,1.6699,1.535,1.4382,1.3318,1.1765,1.0113,0.9821,0.9723,0.9821,0.992,0.9422,0.8722,0.7928,0.7138,0.6337,0.5732,0.5271,0.5163,0.5125,0.4981,0.5061,0.505,0.5131,0.5026,0.4903,0.4797,0.4782,0.4676,0.4928,0.5268,0.5548,0.5815,0.5855,0.6118,0.6644,0.674,0.6596,0.6489,0.5907,0.547,0.5491,0.4669,1.6004,1.65,1.7473,1.8031,1.8362,1.8594,1.8834,1.9152,1.924,1.939,1.9469,1.9381,1.9292,1.9292,1.9381,1.9548,1.9715,1.9872,2.0108,2.0186,2.0333,2.0867,2.1603,2.2489,2.3231,2.412,2.4862,2.5324,2.5443,2.5743,2.6454,2.7657,2.8673,2.993,3.1312,3.2136,3.2777,3.3499,3.3432,3.3792,3.4292,3.3917,3.3792,3.407,3.3604,3.2946,3.2434,3.1623,3.082,3.033,3.0139,2.982,2.9474,2.9073,2.8652,2.8039,2.7557,2.7231,2.7231,2.7149,2.7056,2.661,2.5768,2.466,2.3892,2.2879,2.2284,2.1673,2.1594,2.0729,1.9439,1.8724,1.7817,1.656,1.5146,1.3806,1.2743,1.138,1.0703,1.0605,1.0507,1.0507,1.0408,0.9809,0.9114,0.8223,0.7434,0.6542,0.5937,0.5737,0.5639,0.5529,0.5464,0.5351,0.5349,0.533,0.5314,0.5185,0.5054,0.5054,0.4955,0.4743,0.482,0.5177,0.5339,0.5308,0.5598,0.6021,0.6183,0.612,0.6037,0.5865,0.5519,0.5158,0.4616,1.6335,1.6976,1.7951,1.8442,1.8514,1.8843,1.9082,1.9301,1.9469,1.9627,1.9784,1.9548,1.9381,1.946,1.9548,1.9784,1.9942,2.0098,2.0333,2.0712,2.0867,2.168,2.2349,2.3021,2.3829,2.4492,2.5158,2.5491,2.5671,2.608,2.6766,2.7736,2.8974,3.0357,3.1681,3.2605,3.3146,3.3474,3.3671,3.3879,3.4059,3.4059,3.4016,3.3879,3.352,3.3087,3.2506,3.1915,3.1044,3.0696,3.0495,3.0279,2.9793,2.9406,2.8937,2.8407,2.7615,2.7301,2.7231,2.7149,2.6704,2.6019,2.5009,2.4241,2.3541,2.2853,2.2167,2.19,2.182,2.0997,1.9704,1.8696,1.7692,1.648,1.4956,1.3522,1.236,1.1292,1.1194,1.1194,1.1194,1.1194,1.0699,1.01,0.9209,0.8421,0.7528,0.6634,0.6037,0.5937,0.5939,0.5939,0.581,0.581,0.5724,0.5606,0.5572,0.5575,0.5447,0.5347,0.5241,0.5125,0.4994,0.4852,0.4925,0.5028,0.5023,0.5333,0.5394,0.5468,0.5506,0.5441,0.5338,0.5057,0.4835,1.6648,1.7538,1.8193,1.8603,1.8834,1.9002,1.9152,1.9311,1.9557,1.9636,1.9715,1.9784,1.9784,1.9784,1.9784,1.9951,2.0186,2.0342,2.0934,2.1461,2.1527,2.2553,2.3526,2.3998,2.4791,2.5324,2.5691,2.5956,2.6212,2.6648,2.7435,2.8543,2.9398,3.04,3.1148,3.1969,3.2553,3.2917,3.3085,3.3198,3.2974,3.3017,3.3367,3.3157,3.2733,3.216,3.1589,3.1368,3.0934,3.0659,3.0609,3.0533,3.0203,2.9639,2.9094,2.8542,2.7846,2.7383,2.7231,2.7219,2.6787,2.6019,2.5168,2.4413,2.3627,2.2862,2.2344,2.2167,2.1802,2.0718,1.9621,1.8804,1.7885,1.6473,1.4956,1.3811,1.2651,1.1878,1.1394,1.1394,1.1394,1.1091,1.0592,0.9899,0.8916,0.8124,0.7232,0.6437,0.6237,0.6237,0.6237,0.6237,0.6237,0.6237,0.6234,0.6034,0.5914,0.5832,0.5734,0.5606,0.5497,0.5513,0.5379,0.513,0.5046,0.507,0.5062,0.4922,0.4745,0.4839,0.4971,0.4993,0.4872,0.495,0.4726]},{"header":{"parameterUnit":"m.s-1","parameterCategory":1,"la1":31.0,"la2":29.5877,"lo1":-88.7671,"lo2":-86.6584,"dy":0.0162,"dx":0.0185,"nx":115,"ny":88,"refTime":"2023-05-24T18:00:00:Z","depth":0,"parameterNumber":3,"parameterNumberName":"V-component_of_WINDS"},"data":[0.0,0.0,0.0,0.0,0.0,0.0,0.0,0.0,0.0,0.0,0.0,0.0,0.0,0.0,0.0,0.0,0.0,0.0,0.0,0.0,0.0,0.0,0.0,0.0,0.0,0.0,0.0,0.0,0.0,0.0,0.0,0.0,0.0,0.0,0.0,0.0,0.0,0.0,0.0,0.0,0.0,0.0,0.0,0.0,0.0,0.0,0.0,0.0,0.0,0.0,0.0,0.0,0.0,0.0,0.0,0.0,0.0,0.0,0.0,0.0,0.0,0.0,0.0,0.0,0.0,0.0,0.0,0.0,0.0,0.0,0.0,0.0,0.0,0.0,0.0,0.0,0.0,0.0,0.0,0.0,0.0,0.0,0.0,0.0,0.0,0.0,0.0,0.0,0.0,0.0,0.0,0.0,0.0,0.0,0.0,0.0,0.0,0.0,0.0,0.0,0.0,0.0,0.0,0.0,0.0,0.0,0.0,0.0,0.0,0.0,0.0,0.0,0.0,0.0,0.0,0.0,0.0,0.0,0.0,0.0,0.0,0.0,0.0,0.0,0.0,0.0,0.0,0.0,0.0,0.0,0.0,0.0,0.0,0.0,0.0,0.0,0.0,0.0,0.0,0.0,0.0,0.0,0.0,0.0,0.0,0.0,0.0,0.0,0.0,0.0,0.0,0.0,0.0,0.0,0.0,0.0,0.0,0.0,0.0,0.0,0.0,0.0,0.0,0.0,0.0,0.0,0.0,0.0,0.0,0.0,0.0,0.0,0.0,0.0,0.0,0.0,0.0,0.0,0.0,0.0,0.0,0.0,0.0,0.0,0.0,0.0,0.0,0.0,0.0,0.0,0.0,0.0,0.0,0.0,0.0,0.0,0.0,0.0,0.0,0.0,0.0,0.0,0.0,0.0,0.0,0.0,0.0,0.0,0.0,0.0,0.0,0.0,0.0,0.0,0.0,0.0,0.0,0.0,0.0,0.0,0.0,0.0,0.0,0.0,0.0,0.0,0.0,0.0,0.0,0.0,0.0,0.0,0.0,0.0,0.0,0.0,0.0,0.0,0.0,0.0,0.0,0.0,0.0,0.0,0.0,0.0,0.0,0.0,0.0,0.0,0.0,0.0,0.0,0.0,0.0,0.0,0.0,0.0,0.0,0.0,0.0,0.0,0.0,0.0,0.0,0.0,0.0,0.0,0.0,0.0,0.0,0.0,0.0,0.0,0.0,0.0,0.0,0.0,0.0,0.0,0.0,0.0,0.0,0.0,0.0,0.0,0.0,0.0,0.0,0.0,0.0,0.0,0.0,0.0,0.0,0.0,0.0,0.0,0.0,0.0,0.0,0.0,0.0,0.0,0.0,0.0,0.0,0.0,0.0,0.0,0.0,0.0,0.0,0.0,0.0,0.0,0.0,0.0,0.0,0.0,0.0,0.0,0.0,0.0,0.0,0.0,0.0,0.0,0.0,0.0,0.0,0.0,0.0,0.0,0.0,0.0,0.0,0.0,0.0,0.0,0.0,0.0,0.0,0.0,0.0,0.0,0.0,0.0,0.0,0.0,0.0,0.0,0.0,0.0,0.0,0.0,0.0,0.0,0.0,0.0,0.0,0.0,0.0,0.0,0.0,0.0,0.0,0.0,0.0,0.0,0.0,0.0,0.0,0.0,0.0,0.0,0.0,0.0,0.0,0.0,0.0,0.0,0.0,0.0,0.0,0.0,0.0,0.0,0.0,0.0,0.0,0.0,0.0,0.0,0.0,0.0,0.0,0.0,0.0,0.0,0.0,0.0,0.0,0.0,0.0,0.0,0.0,0.0,0.0,0.0,0.0,0.0,0.0,0.0,0.0,0.0,0.0,0.0,0.0,0.0,0.0,0.0,0.0,0.0,0.0,0.0,0.0,0.0,0.0,0.0,0.0,0.0,0.0,0.0,0.0,0.0,0.0,0.0,0.0,0.0,0.0,0.0,0.0,0.0,0.0,0.0,0.0,0.0,0.0,0.0,0.0,0.0,0.0,0.0,0.0,0.0,0.0,0.0,0.0,0.0,0.0,0.0,0.0,0.0,0.0,0.0,0.0,0.0,0.0,0.0,0.0,0.0,0.0,0.0,0.0,0.0,0.0,0.0,0.0,0.0,0.0,0.0,0.0,0.0,0.0,0.0,0.0,0.0,0.0,0.0,0.0,0.0,0.0,0.0,0.0,0.0,0.0,0.0,0.0,0.0,0.0,0.0,0.0,0.0,0.0,0.0,0.0,0.0,0.0,0.0,0.0,0.0,0.0,0.0,0.0,0.0,0.0,0.0,0.0,0.0,0.0,0.0,0.0,0.0,0.0,0.0,0.0,0.0,0.0,0.0,0.0,0.0,0.0,0.0,0.0,0.0,0.0,0.0,0.0,0.0,0.0,0.0,0.0,0.0,0.0,0.0,0.0,0.0,0.0,0.0,0.0,0.0,0.0,0.0,0.0,0.0,0.0,0.0,0.0,0.0,0.0,0.0,0.0,0.0,0.0,0.0,0.0,0.0,0.0,0.0,0.0,0.0,0.0,0.0,0.0,0.0,0.0,0.0,0.0,0.0,0.0,0.0,0.0,0.0,0.0,0.0,0.0,0.0,0.0,0.0,0.0,0.0,0.0,0.0,0.0,0.0,0.0,0.0,0.0,0.0,0.0,0.0,0.0,0.0,0.0,0.0,0.0,0.0,0.0,0.0,0.0,0.0,0.0,0.0,0.0,0.0,0.0,0.0,0.0,0.0,0.0,0.0,0.0,0.0,0.0,0.0,0.0,0.0,0.0,0.0,0.0,0.0,0.0,0.0,0.0,0.0,0.0,0.0,0.0,0.0,0.0,0.0,0.0,0.0,0.0,0.0,0.0,0.0,0.0,0.0,0.0,0.0,0.0,0.0,0.0,0.0,0.0,0.0,0.0,0.0,0.0,0.0,0.0,0.0,0.0,0.0,0.0,0.0,0.0,0.0,0.0,0.0,0.0,0.0,0.0,0.0,0.0,0.0,0.0,0.0,0.0,0.0,0.0,0.0,0.0,0.0,0.0,0.0,0.0,0.0,0.0,0.0,0.0,0.0,0.0,0.0,0.0,0.0,0.0,0.0,0.0,0.0,0.0,0.0,0.0,0.0,0.0,0.0,0.0,0.0,0.0,0.0,0.0,0.0,0.0,0.0,0.0,0.0,0.0,0.0,0.0,0.0,0.0,0.0,0.0,0.0,0.0,0.0,0.0,0.0,0.0,0.0,0.0,0.0,0.0,0.0,0.0,0.0,0.0,0.0,0.0,0.0,0.0,0.0,0.0,0.0,0.0,0.0,0.0,0.0,0.0,0.0,0.0,0.0,0.0,0.0,0.0,0.0,0.0,0.0,0.0,0.0,0.0,0.0,0.0,0.0,0.0,0.0,0.0,0.0,0.0,0.0,0.0,0.0,0.0,0.0,0.0,0.0,0.0,0.0,0.0,0.0,0.0,0.0,0.0,0.0,0.0,0.0,0.0,0.0,0.0,0.0,0.0,0.0,0.0,0.0,0.0,0.0,0.0,0.0,0.0,0.0,0.0,0.0,0.0,0.0,0.0,0.0,0.0,0.0,0.0,0.0,0.0,0.0,0.0,0.0,0.0,0.0,0.0,0.0,0.0,0.0,0.0,0.0,0.0,0.0,0.0,0.0,0.0,0.0,0.0,0.0,0.0,0.0,0.0,0.0,0.0,0.0,0.0,0.0,0.0,0.0,0.0,0.0,0.0,0.0,0.0,0.0,0.0,0.0,0.0,0.0,0.0,0.0,0.0,0.0,0.0,0.0,0.0,0.0,0.0,0.0,0.0,0.0,0.0,0.0,0.0,0.0,0.0,0.0,0.0,0.0,0.0,0.0,0.0,0.0,0.0,0.0,0.0,0.0,0.0,0.0,0.0,0.0,0.0,0.0,0.0,0.0,0.0,0.0,0.0,0.0,0.0,0.0,0.0,0.0,0.0,0.0,0.0,0.0,0.0,0.0,0.0,0.0,0.0,0.0,0.0,0.0,0.0,0.0,0.0,0.0,0.0,0.0,0.0,0.0,0.0,0.0,0.0,0.0,0.0,0.0,0.0,0.0,0.0,0.0,0.0,0.0,0.0,0.0,0.0,0.0,0.0,0.0,0.0,0.0,0.0,0.0,0.0,0.0,0.0,0.0,0.0,0.0,0.0,0.0,0.0,0.0,0.0,0.0,0.0,0.0,0.0,0.0,0.0,0.0,0.0,0.0,0.0,0.0,0.0,0.0,0.0,0.0,0.0,0.0,-2.2371,0.0,0.0,0.0,0.0,0.0,0.0,0.0,0.0,0.0,0.0,0.0,0.0,0.0,0.0,0.0,0.0,0.0,0.0,0.0,0.0,0.0,0.0,0.0,0.0,0.0,0.0,0.0,0.0,0.0,0.0,0.0,0.0,0.0,0.0,0.0,0.0,0.0,0.0,0.0,0.0,0.0,0.0,0.0,0.0,0.0,0.0,0.0,0.0,0.0,0.0,0.0,0.0,0.0,0.0,0.0,0.0,0.0,0.0,0.0,0.0,0.0,0.0,0.0,0.0,0.0,0.0,0.0,0.0,0.0,0.0,0.0,0.0,0.0,0.0,0.0,0.0,0.0,0.0,0.0,0.0,0.0,0.0,0.0,0.0,0.0,0.0,0.0,0.0,0.0,0.0,0.0,0.0,0.0,0.0,0.0,0.0,0.0,0.0,0.0,0.0,0.0,0.0,0.0,0.0,0.0,0.0,0.0,0.0,0.0,0.0,-2.358,-2.3975,-2.3785,-2.3843,-2.412,0.0,0.0,0.0,0.0,0.0,0.0,0.0,0.0,0.0,0.0,0.0,0.0,0.0,0.0,0.0,0.0,0.0,0.0,0.0,0.0,0.0,0.0,0.0,0.0,0.0,0.0,0.0,0.0,0.0,0.0,0.0,0.0,0.0,0.0,0.0,0.0,0.0,0.0,0.0,0.0,0.0,0.0,0.0,0.0,0.0,0.0,0.0,0.0,0.0,0.0,0.0,0.0,0.0,0.0,0.0,0.0,0.0,0.0,0.0,0.0,0.0,0.0,0.0,0.0,0.0,0.0,0.0,0.0,0.0,0.0,0.0,0.0,0.0,0.0,0.0,0.0,0.0,0.0,0.0,0.0,0.0,0.0,0.0,0.0,0.0,0.0,0.0,0.0,0.0,0.0,0.0,0.0,0.0,0.0,0.0,0.0,0.0,0.0,0.0,0.0,0.0,0.0,0.0,0.0,0.0,0.0,0.0,0.0,0.0,0.0,0.0,0.0,-2.5717,-2.5635,-2.5912,0.0,0.0,0.0,0.0,0.0,0.0,0.0,0.0,0.0,0.0,0.0,0.0,0.0,0.0,0.0,0.0,0.0,0.0,0.0,0.0,0.0,0.0,0.0,0.0,0.0,0.0,0.0,0.0,0.0,0.0,0.0,0.0,0.0,0.0,0.0,0.0,0.0,0.0,0.0,0.0,0.0,0.0,0.0,0.0,0.0,0.0,0.0,0.0,0.0,0.0,0.0,0.0,0.0,0.0,0.0,0.0,0.0,0.0,0.0,0.0,0.0,0.0,0.0,0.0,0.0,0.0,0.0,0.0,0.0,0.0,0.0,0.0,0.0,0.0,0.0,0.0,0.0,0.0,0.0,0.0,0.0,0.0,0.0,0.0,0.0,0.0,0.0,0.0,0.0,0.0,0.0,0.0,0.0,0.0,0.0,0.0,0.0,0.0,0.0,0.0,0.0,0.0,0.0,0.0,0.0,0.0,0.0,0.0,0.0,0.0,-2.8309,-2.8466,-2.8529,0.0,-2.8132,0.0,0.0,0.0,0.0,0.0,0.0,0.0,0.0,0.0,0.0,0.0,0.0,0.0,0.0,0.0,0.0,0.0,0.0,0.0,0.0,0.0,0.0,0.0,0.0,0.0,0.0,0.0,0.0,0.0,0.0,0.0,0.0,0.0,0.0,0.0,0.0,0.0,0.0,0.0,0.0,0.0,0.0,0.0,0.0,0.0,0.0,0.0,0.0,0.0,0.0,0.0,0.0,0.0,0.0,0.0,0.0,0.0,0.0,0.0,0.0,0.0,0.0,0.0,0.0,0.0,0.0,0.0,0.0,0.0,0.0,0.0,0.0,0.0,0.0,0.0,0.0,0.0,0.0,0.0,0.0,0.0,0.0,0.0,0.0,0.0,0.0,0.0,0.0,0.0,0.0,0.0,0.0,0.0,0.0,0.0,0.0,0.0,0.0,0.0,0.0,0.0,0.0,0.0,0.0,0.0,0.0,0.0,0.0,0.0,0.0,-2.9604,-2.9923,-3.0015,-2.98,0.0,0.0,0.0,0.0,0.0,0.0,0.0,0.0,0.0,0.0,0.0,0.0,0.0,0.0,0.0,0.0,0.0,0.0,0.0,0.0,0.0,0.0,0.0,0.0,0.0,0.0,0.0,0.0,0.0,0.0,0.0,0.0,0.0,0.0,0.0,0.0,0.0,0.0,0.0,0.0,0.0,0.0,0.0,0.0,0.0,0.0,0.0,0.0,0.0,0.0,0.0,0.0,0.0,0.0,0.0,0.0,0.0,0.0,0.0,0.0,0.0,0.0,0.0,0.0,0.0,0.0,0.0,0.0,0.0,0.0,0.0,0.0,0.0,0.0,0.0,0.0,0.0,0.0,0.0,0.0,0.0,0.0,0.0,0.0,0.0,0.0,0.0,0.0,0.0,0.0,0.0,0.0,0.0,0.0,0.0,0.0,0.0,0.0,0.0,0.0,0.0,0.0,0.0,0.0,0.0,0.0,0.0,0.0,0.0,0.0,-3.0451,-3.0751,-3.1176,-3.1316,-3.1053,-3.0344,0.0,0.0,0.0,0.0,0.0,0.0,0.0,0.0,0.0,0.0,0.0,0.0,0.0,0.0,0.0,0.0,0.0,0.0,0.0,0.0,0.0,0.0,0.0,0.0,0.0,0.0,0.0,0.0,0.0,0.0,0.0,0.0,0.0,0.0,0.0,0.0,0.0,0.0,0.0,0.0,0.0,0.0,0.0,0.0,0.0,0.0,0.0,0.0,0.0,0.0,0.0,0.0,0.0,0.0,0.0,0.0,0.0,0.0,0.0,0.0,0.0,0.0,0.0,0.0,0.0,0.0,0.0,0.0,0.0,0.0,0.0,0.0,0.0,0.0,0.0,0.0,0.0,0.0,0.0,0.0,0.0,0.0,0.0,0.0,0.0,0.0,0.0,0.0,0.0,0.0,0.0,0.0,0.0,0.0,0.0,0.0,0.0,0.0,0.0,0.0,0.0,0.0,0.0,0.0,0.0,0.0,0.0,0.0,-3.2039,-3.1986,-3.2074,-3.2433,-3.2662,-3.2563,0.0,0.0,0.0,0.0,0.0,0.0,0.0,0.0,0.0,0.0,0.0,0.0,0.0,0.0,0.0,0.0,0.0,0.0,0.0,0.0,0.0,0.0,0.0,0.0,0.0,0.0,0.0,0.0,0.0,0.0,0.0,0.0,0.0,0.0,0.0,0.0,0.0,0.0,0.0,0.0,0.0,0.0,0.0,0.0,0.0,0.0,0.0,0.0,0.0,0.0,0.0,0.0,0.0,0.0,0.0,0.0,0.0,0.0,0.0,0.0,0.0,0.0,0.0,0.0,0.0,0.0,0.0,0.0,0.0,0.0,0.0,0.0,0.0,0.0,0.0,0.0,0.0,0.0,0.0,0.0,0.0,0.0,0.0,0.0,0.0,0.0,0.0,0.0,0.0,0.0,0.0,0.0,0.0,0.0,0.0,0.0,0.0,0.0,0.0,0.0,0.0,0.0,0.0,0.0,0.0,0.0,0.0,0.0,0.0,-3.2877,-3.312,-3.3311,-3.3494,-3.3338,-3.3232,0.0,0.0,0.0,0.0,0.0,0.0,0.0,0.0,0.0,0.0,0.0,0.0,0.0,0.0,0.0,0.0,0.0,0.0,0.0,0.0,0.0,0.0,0.0,0.0,0.0,0.0,0.0,0.0,0.0,0.0,0.0,0.0,0.0,0.0,0.0,0.0,0.0,0.0,0.0,0.0,0.0,0.0,0.0,0.0,0.0,0.0,0.0,0.0,0.0,0.0,0.0,0.0,0.0,0.0,0.0,0.0,0.0,0.0,0.0,0.0,0.0,0.0,0.0,0.0,0.0,0.0,0.0,0.0,0.0,0.0,0.0,0.0,0.0,0.0,0.0,0.0,0.0,0.0,0.0,0.0,0.0,0.0,0.0,0.0,0.0,0.0,0.0,0.0,0.0,0.0,0.0,0.0,0.0,0.0,0.0,0.0,0.0,0.0,0.0,0.0,0.0,0.0,0.0,0.0,0.0,0.0,0.0,0.0,0.0,-3.3682,0.0,-3.4357,-3.4353,-3.4108,-3.4014,0.0,0.0,0.0,0.0,0.0,0.0,0.0,0.0,0.0,0.0,0.0,0.0,0.0,0.0,0.0,0.0,0.0,0.0,0.0,0.0,0.0,0.0,0.0,0.0,0.0,0.0,0.0,0.0,0.0,0.0,0.0,0.0,0.0,0.0,0.0,0.0,0.0,0.0,0.0,0.0,0.0,0.0,0.0,0.0,0.0,0.0,0.0,0.0,0.0,0.0,0.0,0.0,0.0,0.0,0.0,0.0,0.0,0.0,0.0,0.0,0.0,0.0,0.0,0.0,0.0,0.0,0.0,0.0,0.0,0.0,0.0,0.0,0.0,0.0,0.0,0.0,0.0,0.0,0.0,0.0,0.0,0.0,0.0,0.0,0.0,0.0,0.0,0.0,0.0,0.0,0.0,0.0,0.0,0.0,0.0,0.0,0.0,0.0,0.0,0.0,0.0,0.0,0.0,0.0,0.0,0.0,0.0,0.0,-3.3928,-3.4476,-3.5013,-3.5145,-3.4911,-3.5058,-3.499,0.0,0.0,0.0,0.0,0.0,0.0,0.0,0.0,0.0,0.0,0.0,0.0,0.0,0.0,0.0,0.0,0.0,0.0,0.0,0.0,0.0,0.0,0.0,0.0,0.0,0.0,0.0,0.0,0.0,0.0,0.0,0.0,0.0,0.0,0.0,0.0,0.0,0.0,0.0,0.0,0.0,0.0,0.0,0.0,0.0,0.0,0.0,0.0,0.0,0.0,0.0,0.0,0.0,0.0,0.0,0.0,0.0,0.0,0.0,0.0,0.0,0.0,0.0,0.0,0.0,0.0,0.0,0.0,0.0,0.0,0.0,0.0,0.0,0.0,0.0,0.0,0.0,0.0,0.0,0.0,0.0,0.0,0.0,0.0,0.0,0.0,0.0,0.0,0.0,0.0,0.0,0.0,0.0,0.0,0.0,0.0,0.0,0.0,0.0,0.0,0.0,0.0,0.0,0.0,0.0,0.0,0.0,0.0,0.0,-3.5113,-3.5412,-3.5525,-3.5454,-3.5392,-3.5346,0.0,0.0,0.0,0.0,0.0,0.0,0.0,0.0,0.0,0.0,0.0,0.0,0.0,0.0,0.0,0.0,0.0,0.0,0.0,0.0,0.0,0.0,0.0,0.0,0.0,0.0,0.0,0.0,0.0,0.0,0.0,0.0,0.0,0.0,0.0,0.0,0.0,0.0,0.0,0.0,0.0,0.0,0.0,0.0,0.0,0.0,0.0,0.0,0.0,0.0,0.0,0.0,0.0,0.0,0.0,0.0,0.0,0.0,0.0,0.0,0.0,0.0,0.0,0.0,0.0,0.0,0.0,0.0,0.0,0.0,0.0,0.0,0.0,0.0,0.0,0.0,0.0,0.0,0.0,0.0,0.0,0.0,0.0,0.0,0.0,0.0,0.0,0.0,0.0,0.0,0.0,0.0,0.0,0.0,0.0,0.0,0.0,0.0,0.0,0.0,0.0,0.0,0.0,0.0,0.0,0.0,0.0,0.0,0.0,-3.4742,-3.5198,-3.5495,-3.5521,-3.5389,-3.5448,-3.5666,0.0,0.0,0.0,0.0,0.0,0.0,0.0,0.0,0.0,0.0,0.0,0.0,0.0,0.0,0.0,0.0,0.0,0.0,0.0,0.0,0.0,0.0,0.0,0.0,0.0,0.0,0.0,0.0,0.0,0.0,0.0,0.0,0.0,0.0,0.0,0.0,0.0,0.0,0.0,0.0,0.0,0.0,0.0,0.0,0.0,0.0,0.0,0.0,0.0,0.0,0.0,0.0,0.0,0.0,0.0,0.0,0.0,0.0,0.0,0.0,0.0,0.0,0.0,0.0,0.0,0.0,0.0,0.0,0.0,0.0,0.0,0.0,0.0,0.0,0.0,0.0,0.0,0.0,0.0,0.0,0.0,0.0,0.0,0.0,0.0,0.0,0.0,0.0,0.0,0.0,0.0,0.0,0.0,0.0,0.0,0.0,0.0,0.0,0.0,0.0,0.0,0.0,0.0,0.0,0.0,0.0,0.0,0.0,-3.3396,-3.4342,-3.4885,-3.5039,-3.5097,-3.5315,0.0,0.0,0.0,0.0,0.0,0.0,0.0,0.0,0.0,0.0,0.0,0.0,0.0,0.0,0.0,0.0,0.0,0.0,0.0,0.0,0.0,0.0,0.0,0.0,0.0,0.0,0.0,0.0,0.0,0.0,0.0,0.0,0.0,0.0,0.0,0.0,0.0,0.0,0.0,0.0,0.0,0.0,0.0,0.0,0.0,0.0,0.0,0.0,0.0,0.0,0.0,0.0,0.0,0.0,0.0,0.0,0.0,0.0,0.0,0.0,0.0,0.0,0.0,0.0,0.0,0.0,0.0,0.0,0.0,0.0,0.0,0.0,0.0,0.0,0.0,0.0,0.0,0.0,0.0,0.0,0.0,0.0,0.0,0.0,0.0,0.0,0.0,0.0,0.0,0.0,0.0,0.0,0.0,0.0,0.0,0.0,0.0,0.0,0.0,0.0,0.0,0.0,0.0,0.0,0.0,0.0,0.0,0.0,0.0,-3.1965,-3.1885,-3.2345,-3.3315,-3.4168,-3.4745,0.0,0.0,0.0,0.0,0.0,0.0,0.0,0.0,0.0,0.0,0.0,0.0,0.0,0.0,0.0,0.0,0.0,0.0,0.0,0.0,0.0,0.0,0.0,0.0,0.0,0.0,0.0,0.0,0.0,0.0,0.0,0.0,0.0,0.0,0.0,0.0,0.0,0.0,0.0,0.0,0.0,0.0,0.0,0.0,0.0,0.0,0.0,0.0,0.0,0.0,0.0,0.0,0.0,0.0,0.0,0.0,0.0,0.0,0.0,0.0,0.0,0.0,0.0,0.0,0.0,0.0,0.0,0.0,0.0,0.0,0.0,0.0,0.0,0.0,0.0,0.0,0.0,0.0,0.0,0.0,0.0,0.0,0.0,0.0,0.0,0.0,0.0,0.0,0.0,0.0,0.0,0.0,0.0,0.0,0.0,0.0,0.0,0.0,0.0,0.0,0.0,0.0,0.0,0.0,0.0,0.0,0.0,0.0,-3.1058,-2.9982,-2.9593,-2.9739,-3.0495,-3.2371,-3.3623,0.0,0.0,0.0,0.0,0.0,0.0,0.0,0.0,0.0,0.0,0.0,0.0,0.0,0.0,0.0,0.0,0.0,0.0,0.0,0.0,0.0,0.0,0.0,0.0,0.0,0.0,0.0,0.0,0.0,0.0,0.0,0.0,0.0,0.0,0.0,0.0,0.0,0.0,0.0,0.0,0.0,0.0,0.0,0.0,0.0,0.0,0.0,0.0,0.0,0.0,0.0,0.0,0.0,0.0,0.0,0.0,0.0,0.0,0.0,0.0,0.0,0.0,0.0,0.0,0.0,0.0,0.0,0.0,0.0,0.0,0.0,0.0,0.0,0.0,0.0,0.0,0.0,0.0,0.0,0.0,0.0,0.0,0.0,0.0,0.0,0.0,0.0,0.0,0.0,0.0,0.0,0.0,0.0,0.0,0.0,0.0,0.0,0.0,0.0,0.0,0.0,0.0,0.0,0.0,0.0,0.0,0.0,0.0,-2.8354,-2.7593,-2.7293,-2.7166,-2.726,-3.0209,-3.2332,0.0,0.0,0.0,0.0,0.0,0.0,0.0,0.0,0.0,0.0,0.0,0.0,0.0,0.0,0.0,0.0,0.0,0.0,0.0,0.0,0.0,0.0,0.0,0.0,0.0,0.0,0.0,0.0,0.0,0.0,0.0,0.0,0.0,0.0,0.0,0.0,0.0,0.0,0.0,0.0,0.0,0.0,0.0,0.0,0.0,0.0,0.0,0.0,0.0,0.0,0.0,0.0,0.0,0.0,0.0,0.0,0.0,0.0,0.0,0.0,0.0,0.0,0.0,0.0,0.0,0.0,0.0,0.0,0.0,0.0,0.0,0.0,0.0,0.0,0.0,0.0,0.0,0.0,0.0,0.0,0.0,0.0,0.0,0.0,0.0,0.0,0.0,0.0,0.0,0.0,0.0,0.0,0.0,0.0,0.0,0.0,0.0,0.0,0.0,0.0,0.0,0.0,0.0,0.0,0.0,0.0,0.0,0.0,-2.6052,-2.4215,-2.4348,-2.4679,-2.5135,-2.9195,-3.1729,0.0,0.0,0.0,0.0,0.0,0.0,0.0,0.0,0.0,0.0,0.0,0.0,0.0,0.0,0.0,0.0,0.0,0.0,0.0,0.0,0.0,0.0,0.0,0.0,0.0,0.0,0.0,0.0,0.0,0.0,0.0,0.0,0.0,0.0,0.0,0.0,0.0,0.0,0.0,0.0,0.0,0.0,0.0,0.0,0.0,0.0,0.0,0.0,-3.2255,0.0,0.0,0.0,0.0,0.0,0.0,0.0,0.0,0.0,0.0,0.0,0.0,0.0,0.0,0.0,0.0,0.0,0.0,0.0,0.0,0.0,0.0,0.0,0.0,0.0,0.0,0.0,0.0,0.0,0.0,0.0,0.0,0.0,0.0,0.0,0.0,0.0,0.0,0.0,0.0,0.0,0.0,0.0,0.0,0.0,0.0,0.0,0.0,0.0,0.0,0.0,0.0,0.0,0.0,0.0,0.0,0.0,0.0,0.0,-2.2521,-2.1341,-2.1374,-2.1971,-2.3173,-2.6639,-2.9436,0.0,0.0,0.0,0.0,0.0,0.0,0.0,0.0,0.0,0.0,0.0,0.0,0.0,0.0,0.0,0.0,0.0,0.0,0.0,0.0,0.0,0.0,0.0,0.0,0.0,0.0,0.0,0.0,0.0,0.0,0.0,0.0,0.0,0.0,0.0,0.0,0.0,0.0,0.0,0.0,0.0,0.0,0.0,0.0,0.0,0.0,0.0,0.0,0.0,0.0,0.0,0.0,0.0,0.0,0.0,0.0,0.0,0.0,0.0,0.0,0.0,0.0,0.0,0.0,0.0,0.0,0.0,0.0,0.0,0.0,0.0,0.0,0.0,0.0,0.0,0.0,0.0,0.0,0.0,0.0,0.0,0.0,0.0,0.0,0.0,0.0,0.0,0.0,0.0,0.0,0.0,0.0,0.0,0.0,0.0,0.0,0.0,0.0,0.0,0.0,0.0,0.0,0.0,0.0,0.0,0.0,0.0,-2.0353,-1.8922,-1.8582,-1.8633,-1.9555,-2.1334,-2.3917,-2.6738,-2.9807,0.0,0.0,0.0,0.0,0.0,0.0,0.0,0.0,0.0,0.0,0.0,0.0,0.0,0.0,0.0,0.0,0.0,0.0,0.0,0.0,0.0,0.0,0.0,0.0,0.0,0.0,0.0,0.0,0.0,0.0,0.0,0.0,0.0,0.0,0.0,0.0,0.0,0.0,-2.1099,-1.9581,0.0,0.0,0.0,0.0,0.0,0.0,0.0,0.0,-2.6262,0.0,0.0,0.0,0.0,0.0,0.0,0.0,0.0,0.0,0.0,0.0,0.0,0.0,0.0,0.0,0.0,0.0,0.0,0.0,0.0,0.0,0.0,0.0,0.0,0.0,0.0,0.0,0.0,0.0,0.0,0.0,0.0,0.0,0.0,0.0,0.0,0.0,0.0,0.0,0.0,0.0,0.0,0.0,0.0,0.0,0.0,0.0,0.0,0.0,0.0,0.0,0.0,0.0,0.0,0.0,0.0,-1.9329,-1.8402,-1.7205,-1.5713,-1.6706,-1.8247,-2.0134,-2.282,-2.5508,-2.8217,0.0,0.0,0.0,0.0,0.0,0.0,0.0,0.0,0.0,0.0,0.0,0.0,0.0,0.0,0.0,0.0,0.0,0.0,0.0,0.0,0.0,0.0,0.0,0.0,0.0,0.0,0.0,0.0,0.0,0.0,0.0,0.0,0.0,0.0,0.0,0.0,0.0,0.0,0.0,-1.5853,-1.5861,0.0,0.0,0.0,0.0,0.0,0.0,0.0,0.0,-2.2975,0.0,0.0,0.0,0.0,0.0,0.0,0.0,0.0,0.0,0.0,0.0,0.0,0.0,0.0,0.0,0.0,0.0,0.0,0.0,0.0,0.0,0.0,0.0,0.0,0.0,0.0,0.0,0.0,0.0,0.0,0.0,0.0,0.0,0.0,0.0,0.0,0.0,0.0,0.0,0.0,0.0,0.0,0.0,0.0,0.0,0.0,0.0,0.0,0.0,0.0,0.0,0.0,0.0,0.0,0.0,-1.7715,-1.5952,-1.4689,-1.3795,-1.4466,-1.5904,-1.8215,-2.0825,-2.3501,0.0,0.0,0.0,0.0,0.0,0.0,0.0,0.0,0.0,0.0,0.0,0.0,0.0,0.0,0.0,0.0,0.0,0.0,0.0,0.0,0.0,0.0,0.0,0.0,0.0,0.0,0.0,0.0,0.0,0.0,0.0,0.0,0.0,0.0,0.0,0.0,0.0,0.0,0.0,0.0,-0.9044,-0.9016,-1.1443,0.0,0.0,0.0,0.0,0.0,0.0,-1.8653,-1.9276,0.0,0.0,0.0,0.0,0.0,0.0,0.0,0.0,0.0,0.0,0.0,0.0,0.0,0.0,0.0,0.0,0.0,0.0,0.0,0.0,0.0,0.0,0.0,0.0,0.0,0.0,0.0,0.0,0.0,0.0,0.0,0.0,0.0,0.0,0.0,0.0,0.0,0.0,0.0,0.0,0.0,0.0,0.0,0.0,0.0,0.0,0.0,0.0,0.0,0.0,0.0,0.0,0.0,0.0,0.0,-1.6276,-1.3863,-1.2558,-1.2445,-1.283,-1.4237,-1.6789,-1.9469,-2.2187,0.0,0.0,0.0,0.0,0.0,0.0,0.0,0.0,0.0,0.0,0.0,0.0,0.0,0.0,0.0,0.0,0.0,0.0,0.0,0.0,0.0,0.0,0.0,0.0,0.0,0.0,0.0,0.0,0.0,0.0,0.0,0.0,0.0,0.0,0.0,0.0,0.0,0.0,0.0,0.0,0.0,-0.3182,-0.6533,-0.7908,0.0,0.0,0.0,0.0,-1.4813,-1.5506,0.0,0.0,0.0,0.0,0.0,0.0,0.0,0.0,0.0,0.0,0.0,0.0,0.0,0.0,0.0,0.0,0.0,0.0,0.0,0.0,0.0,0.0,0.0,0.0,0.0,0.0,0.0,0.0,0.0,0.0,0.0,0.0,0.0,0.0,0.0,0.0,0.0,0.0,0.0,0.0,0.0,0.0,0.0,0.0,0.0,0.0,0.0,0.0,0.0,0.0,0.0,0.0,0.0,0.0,0.0,0.0,-1.482,-1.2956,-1.1918,-1.1848,-1.315,-1.4833,-1.6789,-2.0292,-2.3056,0.0,0.0,0.0,0.0,0.0,0.0,0.0,0.0,0.0,0.0,0.0,0.0,0.0,0.0,0.0,0.0,0.0,0.0,0.0,0.0,0.0,0.0,0.0,0.0,0.0,0.0,0.0,0.0,0.0,0.0,0.0,0.0,0.0,0.0,0.0,0.0,0.0,0.0,0.0,0.0,0.0,-0.1716,-0.3418,-0.512,-0.6667,0.0,0.0,-1.1051,-1.2417,-1.3526,0.0,0.0,0.0,0.0,0.0,0.0,0.0,0.0,0.0,0.0,0.0,0.0,0.0,0.0,0.0,0.0,0.0,0.0,0.0,0.0,0.0,0.0,0.0,0.0,0.0,0.0,0.0,0.0,0.0,0.0,0.0,0.0,0.0,0.0,0.0,0.0,0.0,0.0,0.0,0.0,0.0,0.0,0.0,0.0,0.0,0.0,0.0,0.0,0.0,0.0,0.0,0.0,0.0,0.0,0.0,-1.63,-1.4687,-1.2424,-1.1446,-1.17,-1.2364,-1.3848,-1.6332,-1.9231,-2.1789,0.0,0.0,0.0,0.0,0.0,0.0,0.0,0.0,0.0,0.0,0.0,0.0,0.0,0.0,0.0,0.0,0.0,0.0,0.0,0.0,0.0,0.0,0.0,0.0,0.0,0.0,0.0,0.0,0.0,0.0,0.0,0.0,0.0,0.0,0.0,0.0,0.0,0.0,0.0,0.0,0.0,0.0,-0.2331,-0.3501,0.0,0.0,0.0,-0.8585,-0.9406,0.0,0.0,0.0,0.0,0.0,0.0,0.0,0.0,0.0,0.0,0.0,0.0,0.0,0.0,0.0,0.0,0.0,0.0,0.0,0.0,0.0,0.0,0.0,0.0,0.0,0.0,0.0,0.0,0.0,0.0,0.0,0.0,0.0,0.0,0.0,0.0,0.0,0.0,0.0,0.0,0.0,0.0,0.0,0.0,0.0,0.0,0.0,0.0,0.0,0.0,0.0,0.0,0.0,0.0,0.0,0.0,0.0,-1.4506,-1.1877,-1.0962,-1.1713,-1.1848,-1.3288,-1.5922,-1.84,0.0,0.0,0.0,0.0,0.0,0.0,0.0,0.0,0.0,0.0,0.0,0.0,0.0,0.0,0.0,0.0,0.0,0.0,0.0,0.0,0.0,0.0,0.0,0.0,0.0,0.0,0.0,-2.3393,0.0,0.0,0.0,0.0,0.0,0.0,0.0,0.0,0.0,0.0,0.0,0.0,0.0,0.0,0.0702,-0.1243,-0.2184,-0.3285,0.0,0.0,-0.6842,-0.7689,-0.9216,-1.0426,0.0,0.0,0.0,0.0,0.0,0.0,0.0,0.0,0.0,0.0,0.0,0.0,0.0,0.0,0.0,0.0,0.0,0.0,0.0,0.0,0.0,0.0,0.0,0.0,0.0,0.0,0.0,0.0,0.0,0.0,0.0,0.0,0.0,0.0,0.0,0.0,0.0,0.0,0.0,0.0,0.0,0.0,0.0,0.0,0.0,0.0,0.0,0.0,0.0,0.0,0.0,0.0,0.0,0.0,0.0,-1.37,-1.1236,-1.0513,-1.1632,-1.2352,-1.3787,-1.593,-1.8649,-2.1136,0.0,0.0,0.0,0.0,0.0,0.0,0.0,0.0,0.0,0.0,0.0,0.0,0.0,0.0,0.0,0.0,0.0,0.0,0.0,0.0,0.0,0.0,0.0,0.0,0.0,0.0,0.0,0.0,0.0,0.0,0.0,0.0,0.0,0.0,0.0,0.0,0.0,0.0,0.0,0.0,0.0,0.2111,0.0624,-0.1095,-0.2741,0.0,0.0,-0.6535,-0.8371,-0.921,-0.9895,-1.0415,0.0,0.0,0.0,0.0,0.0,0.0,0.0,0.0,0.0,0.0,0.0,0.0,0.0,0.0,0.0,0.0,0.0,0.0,0.0,0.0,0.0,0.0,0.0,0.0,0.0,0.0,0.0,0.0,0.0,0.0,0.0,0.0,0.0,0.0,0.0,0.0,0.0,0.0,0.0,0.0,0.0,0.0,0.0,0.0,0.0,0.0,0.0,0.0,0.0,0.0,0.0,0.0,0.0,-1.3837,-1.3135,-1.1019,-1.0519,-1.1632,-1.2204,-1.3715,-1.6158,-1.8537,-2.1012,0.0,0.0,0.0,0.0,0.0,0.0,0.0,0.0,0.0,0.0,0.0,0.0,0.0,0.0,0.0,0.0,0.0,0.0,0.0,0.0,0.0,0.0,0.0,0.0,0.0,0.0,0.0,0.0,-0.893,-0.536,-0.1399,0.0,0.0,0.0,0.0,0.0,0.0,0.0,0.0,0.0,0.0,0.2112,0.0313,-0.094,0.0,0.0,-0.4608,-0.5764,-0.6374,-0.7218,-0.7905,-0.7986,-0.8062,0.0,0.0,0.0,0.0,0.0,0.0,0.0,0.0,0.0,0.0,0.0,0.0,0.0,0.0,0.0,0.0,0.0,0.0,0.0,0.0,0.0,0.0,0.0,0.0,0.0,0.0,0.0,0.0,0.0,0.0,0.0,0.0,0.0,0.0,0.0,0.0,0.0,0.0,0.0,0.0,0.0,0.0,0.0,0.0,0.0,0.0,0.0,0.0,0.0,0.0,0.0,0.0,-1.3484,-1.2778,-1.1025,-1.0663,-1.1706,-1.2278,-1.3643,-1.6018,-1.8024,-2.0396,0.0,0.0,0.0,0.0,0.0,0.0,0.0,0.0,0.0,0.0,0.0,0.0,0.0,0.0,0.0,0.0,0.0,0.0,0.0,0.0,0.0,0.0,0.0,0.0,0.0,0.0,0.0,0.0,-0.572,-0.2246,0.0939,0.0,0.0,0.0,0.0,0.0,0.0,0.0,0.0,0.0,0.0,0.2347,0.0861,-0.0235,-0.1254,-0.2113,-0.3439,-0.437,-0.4675,-0.5604,-0.6381,-0.6696,0.0,0.0,0.0,0.0,0.0,0.0,0.0,0.0,0.0,0.0,0.0,0.0,0.0,0.0,0.0,0.0,0.0,0.0,0.0,0.0,0.0,0.0,0.0,0.0,0.0,0.0,0.0,0.0,0.0,0.0,-3.4005,0.0,0.0,0.0,0.0,0.0,0.0,0.0,0.0,0.0,0.0,0.0,0.0,0.0,0.0,0.0,0.0,0.0,0.0,0.0,0.0,0.0,0.0,-1.3621,-1.2851,-1.1465,-1.1105,-1.1706,-1.2652,-1.3947,-1.5525,-1.7092,-1.9425,-2.2511,0.0,0.0,0.0,0.0,0.0,0.0,0.0,0.0,0.0,0.0,0.0,0.0,0.0,0.0,0.0,0.0,0.0,0.0,0.0,0.0,0.0,0.0,0.0,0.0,0.0,0.0,-0.6738,-0.2481,0.0392,0.0,0.0,0.0,0.0,0.0,0.0,0.0,0.0,0.0,0.0,0.4135,0.3049,0.2744,0.1177,-0.0157,-0.0392,-0.1332,-0.2504,-0.3816,-0.4595,-0.5532,0.0,0.0,0.0,0.0,0.0,0.0,0.0,0.0,0.0,0.0,0.0,0.0,0.0,0.0,0.0,0.0,0.0,0.0,0.0,0.0,0.0,0.0,0.0,0.0,0.0,0.0,0.0,-3.4797,-3.4779,0.0,0.0,0.0,0.0,0.0,0.0,0.0,0.0,0.0,0.0,0.0,-2.6261,-2.6119,0.0,0.0,0.0,0.0,0.0,0.0,0.0,0.0,0.0,0.0,0.0,0.0,-1.3917,-1.3723,-1.2057,-1.1768,-1.3011,-1.3585,-1.4728,-1.6367,-1.7648,-1.9964,-2.3554,0.0,0.0,0.0,0.0,0.0,0.0,0.0,0.0,0.0,0.0,0.0,0.0,0.0,0.0,0.0,0.0,0.0,0.0,0.0,0.0,0.0,0.0,0.0,0.0,0.0,-0.6961,0.0,0.0,0.0,0.0,0.0,0.0,0.0,0.0,0.0,0.0,0.0,0.617,0.5306,0.4606,0.3673,0.243,0.1175,0.0157,0.0,0.0,0.0,0.0,0.0,0.0,0.0,0.0,0.0,0.0,0.0,0.0,0.0,0.0,-1.0513,-1.126,-1.1706,-1.1996,-1.1929,0.0,0.0,0.0,0.0,0.0,0.0,0.0,0.0,0.0,0.0,0.0,0.0,0.0,0.0,-3.4597,0.0,-3.4431,0.0,0.0,0.0,0.0,0.0,0.0,0.0,0.0,-2.7039,-2.6283,-2.5064,-2.5079,-2.4214,0.0,-2.1717,-2.1788,0.0,0.0,0.0,0.0,0.0,0.0,0.0,0.0,-1.4419,-1.4227,-1.2931,-1.2725,-1.3673,-1.4322,-1.5171,-1.6315,-1.814,-2.0602,-2.3722,-2.5776,-2.7405,0.0,0.0,0.0,0.0,0.0,0.0,0.0,0.0,0.0,0.0,0.0,0.0,0.0,0.0,0.0,0.0,0.0,0.0,0.0,0.0,0.0,0.0,0.0,-0.4106,0.0,0.0,0.0,0.0,0.0,0.0,0.0,0.0,0.0,0.6103,0.6103,0.5867,0.5312,0.4763,0.3986,0.2818,0.0,0.0,0.0,0.0,0.0,0.0,0.0,-0.2821,-0.3754,-0.4066,-0.4457,-0.547,-0.678,-0.7855,-0.8313,0.0,0.0,-1.0812,-1.126,-1.1564,-1.1484,-1.1855,-1.2372,-1.3025,-1.3462,-1.3825,0.0,0.0,0.0,0.0,0.0,0.0,0.0,0.0,-3.3889,-3.4284,0.0,-3.3858,0.0,0.0,0.0,0.0,0.0,-2.7348,0.0,0.0,-2.5704,-2.515,-2.414,-2.3983,-2.3376,-2.2285,-2.0651,-2.0023,-2.0183,-1.8566,0.0,0.0,0.0,0.0,0.0,0.0,-1.5059,-1.4378,-1.3954,-1.3745,-1.3818,-1.4689,-1.5267,-1.5409,-1.8594,-2.1206,-2.284,-2.5066,-2.6745,-2.7849,-2.8255,0.0,0.0,0.0,0.0,0.0,0.0,0.0,0.0,0.0,0.0,0.0,0.0,0.0,0.0,0.0,0.0,0.0,0.0,0.0,0.0,-0.3736,0.0,0.0,0.0,0.0,0.0,0.0,0.0,0.0,0.0,0.0,0.5864,0.5712,0.5559,0.5637,0.0,0.0,0.0,0.0,0.2273,0.2195,0.1488,0.0627,-0.0235,-0.1175,-0.2506,-0.4525,0.0,0.0,-0.6086,-0.663,-0.6784,-0.6395,-0.7999,-0.9453,-1.0067,-1.0288,-1.0368,-1.0588,-1.1111,-1.1706,-1.2445,-1.3178,-1.3825,-2.7907,0.0,0.0,0.0,0.0,-3.1519,-3.1747,-3.1901,-3.218,-3.2259,-3.2314,-3.2149,0.0,0.0,0.0,0.0,0.0,0.0,-2.6101,-2.5289,-2.4693,-2.4179,-2.362,-2.3093,-2.2139,-2.0882,-2.0383,-1.9805,-1.9061,-1.8078,-1.8004,-1.8751,0.0,0.0,0.0,0.0,-1.55,-1.5683,-1.4673,-1.4466,-1.5221,-1.5505,-1.5991,-1.6751,-1.9433,-2.151,-2.2852,-2.4517,-2.6054,-2.7473,-2.756,0.0,0.0,0.0,0.0,0.0,0.0,0.0,0.0,0.0,0.0,0.0,0.0,0.0,0.0,0.0,0.0,0.0,0.0,0.0,-0.3893,-0.1955,-0.047,0.0,0.0,0.0,0.0,0.0,0.0,0.0,0.0,0.0,0.6089,0.5705,0.5709,0.0,0.0,0.5312,0.5384,0.4606,0.3519,0.2195,0.1488,0.0,-0.0314,-0.0863,-0.1648,-0.2974,-0.4068,-0.5079,-0.6076,-0.6623,-0.7169,-0.7778,-0.8466,-0.8922,-0.9155,-1.0062,-1.0812,-1.0962,-1.1484,-1.2077,-1.2372,-1.3382,-1.4314,-2.7723,-2.8812,-2.9002,-2.9642,-3.051,-3.0748,-3.0881,-3.0984,-3.116,-3.1276,-3.1334,-3.1102,-3.0865,-3.0735,-2.9533,0.0,0.0,0.0,-2.5534,-2.5013,-2.4671,-2.4124,-2.345,-2.2878,-2.1882,-2.0597,-2.0005,-1.9433,-1.8887,-1.8124,-1.8126,-1.8664,0.0,0.0,-1.7028,-1.6158,-1.5956,-1.6272,-1.5338,-1.5267,-1.6061,-1.6342,-1.6959,-1.8104,-1.9868,-2.1545,-2.3234,-2.4372,-2.5577,-2.675,-2.6841,-2.693,0.0,0.0,0.0,0.0,0.0,0.0,0.0,0.0,0.0,0.0,0.0,-1.9382,-1.785,0.0,0.0,0.0,-0.851,-0.5195,-0.2582,-0.1019,0.0,0.0,0.0,0.0,0.0,0.0,0.0,0.4929,0.555,0.6015,0.6398,0.617,0.6089,0.6553,0.6167,0.578,0.5467,0.0,0.3988,0.2821,0.235,0.1645,0.0392,-0.0078,-0.0784,-0.2272,-0.3524,-0.4533,-0.53,-0.6005,-0.6784,-0.7557,-0.8016,-0.8246,-0.8246,-0.9528,-1.0594,-1.0663,-1.126,-1.1855,-1.2231,-1.3317,-1.425,-2.792,-2.8556,-2.9107,-2.9498,-2.9808,-3.0326,-3.0387,-3.0266,-3.0732,-3.0955,-3.1058,-3.0493,-3.0404,-3.0498,-2.8446,0.0,-2.6748,-2.5688,-2.4978,-2.4663,-2.5162,-2.4655,-2.3477,-2.3105,-2.2274,-2.1124,-1.9639,-1.9061,-1.9326,-1.8715,-1.8482,-1.8543,-1.7204,-1.6507,-1.6446,-1.6403,-1.6342,-1.6342,-1.607,-1.6202,-1.6682,-1.7235,-1.8104,-1.9243,-2.0106,-2.1572,-2.3813,-2.4684,-2.53,-2.5893,-2.6136,-2.6,-2.5453,0.0,0.0,0.0,0.0,0.0,0.0,0.0,0.0,0.0,0.0,0.0,0.0,0.0,0.0,0.0,-0.6196,0.0,-0.2347,-0.047,0.0,0.0,0.0,0.3288,0.3446,0.4229,0.4932,0.5547,0.0,0.0,0.6865,0.7019,0.6861,0.6395,0.6089,0.5705,0.5012,0.454,0.4146,0.3839,0.3604,0.2976,0.1567,0.086,-0.0234,-0.2034,-0.3287,-0.3988,-0.445,-0.5154,-0.5864,-0.6335,-0.6949,-0.7407,-0.7407,-0.8627,-0.9695,-0.9765,-1.0519,-1.1335,-1.2003,-1.2806,-1.36,-2.8376,-2.857,-2.9261,-2.9602,-2.9665,-2.9789,-2.9789,-2.9789,-2.9913,-2.996,-2.9946,-2.9851,-2.952,-2.9114,-2.8063,-2.6991,-2.6008,-2.5178,-2.4728,-2.4517,-2.4103,-2.3933,-2.3876,-2.2669,-2.1931,-2.1611,-2.0621,-2.0033,-1.9756,-1.9409,-1.9088,-1.8635,-1.836,-1.7949,-1.7354,-1.7088,-1.683,-1.6542,-1.6821,-1.7097,-1.7235,-1.8307,-1.8977,-1.9309,-2.1295,-2.282,-2.3871,-2.5036,-2.5784,-2.5893,-2.5948,-2.5825,-2.5398,-2.5231,0.0,0.0,0.0,0.0,0.0,0.0,0.0,0.0,0.0,-1.5835,-1.4045,0.0,-0.9541,0.0,-0.5134,-0.2268,-0.0313,0.094,0.0,0.0,0.3444,0.4148,0.4148,0.4462,0.4929,0.5544,0.624,0.6865,0.7476,0.8012,0.8089,0.7472,0.6703,0.6321,0.671,0.5783,0.4774,0.4148,0.3912,0.3363,0.2347,0.1016,-0.0234,-0.1409,-0.2268,-0.3205,-0.4217,-0.4606,-0.5076,-0.6022,-0.6416,-0.6567,-0.6644,-0.7407,-0.8246,-0.8927,-1.0132,-1.1111,-1.1403,-1.207,-1.2813,-2.898,-2.9044,-2.9401,-2.9602,-2.9602,-2.9602,-2.9602,-2.9602,-2.9602,-2.9602,-2.9602,-2.9602,-2.942,-2.9021,-2.8085,-2.722,-2.6517,-2.5509,-2.5036,-2.4867,-2.4448,-2.4224,-2.4108,-2.322,-2.2499,-2.1766,-2.1318,-2.0705,-1.9912,-1.9732,-1.9288,-1.8714,-1.8526,-1.8385,-1.8192,-1.8027,-1.7745,-1.7335,-1.7891,-1.824,-1.824,-1.9166,-2.0074,-2.0876,-2.2445,-2.38,-2.4898,-2.5889,-2.6414,-2.6361,-2.6215,-2.5946,-2.5356,-2.5161,-2.4781,0.0,0.0,0.0,0.0,0.0,0.0,0.0,0.0,0.0,0.0,0.0,-0.6801,-0.4807,-0.2961,-0.1173,0.0861,0.188,0.2662,0.3209,0.4222,0.5004,0.5082,0.547,0.5931,0.6549,0.7015,0.7553,0.8165,0.847,0.8627,0.8241,0.7472,0.7015,0.7096,0.6244,0.5395,0.5004,0.4616,0.4068,0.3207,0.1954,0.086,0.0,-0.086,-0.1797,-0.2969,-0.3828,-0.4533,-0.5315,-0.5712,-0.6025,-0.6103,-0.6718,-0.7557,-0.8546,-0.9604,-1.0507,-1.1037,-1.1996,-1.3025,-2.9602,-2.9602,-2.9602,-2.9602,-2.9602,-2.9602,-2.9602,-2.9602,-2.9602,-2.9602,-2.9602,-2.9602,-2.9602,-2.9498,-2.8353,-2.7763,-2.7564,-2.6368,-2.5679,-2.5441,-2.5453,-2.4992,-2.4264,-2.412,-2.3379,-2.2124,-2.1973,-2.1367,-2.0267,-1.9942,-1.9646,-1.9302,-1.8614,-1.8539,-1.9121,-1.9288,-1.9058,-1.8546,-1.9145,-1.9497,-1.9672,-2.0257,-2.1318,-2.2905,-2.3658,-2.4774,-2.6265,-2.6865,-2.7172,-2.7056,-2.6791,-2.625,-2.5356,-2.5356,-2.4881,0.0,-2.3157,0.0,0.0,0.0,0.0,0.0,0.0,0.0,0.0,-0.7267,-0.3814,-0.0859,-0.0703,0.0,0.1641,0.266,0.3363,0.3748,0.4919,0.5857,0.6015,0.6556,0.7092,0.7706,0.7855,0.8165,0.8775,0.8932,0.9003,0.8851,0.847,0.7859,0.7246,0.6553,0.6015,0.6015,0.5479,0.4854,0.3986,0.3205,0.2348,0.1566,0.0704,-0.0235,-0.1331,-0.2738,-0.391,-0.4375,-0.4846,-0.5318,-0.5783,-0.6321,-0.7088,-0.8394,-0.915,-0.9825,-1.0881,-1.2211,-1.3317,-2.9602,-2.9602,-2.9602,-2.9602,-2.9602,-2.9602,-2.9602,-2.9602,-2.9602,-2.9602,-2.9602,-2.9602,-2.9602,-2.9526,-2.8716,-2.8333,-2.8298,-2.7486,-2.6777,-2.6208,-2.6208,-2.5791,-2.5075,-2.4409,-2.3963,-2.3672,-2.3147,-2.2611,-2.1916,-2.1272,-2.1218,-2.1595,-2.0281,-2.0042,-2.1037,0.0,0.0,0.0,-2.0193,-2.0534,-2.146,-2.2456,-2.328,-2.405,-2.5546,0.0,-2.7157,-2.7838,-2.7984,-2.7545,-2.7445,0.0,0.0,0.0,0.0,0.0,0.0,0.0,0.0,0.0,0.0,0.0,-1.1064,-0.8684,-0.8321,-0.5269,-0.2575,-0.1017,-0.0156,0.0937,0.2425,0.3517,0.453,0.5389,0.6163,0.6707,0.6707,0.6865,0.7169,0.7702,0.8385,0.8983,0.9609,1.0212,1.0363,0.976,0.9539,0.9236,0.847,0.7399,0.6707,0.671,0.6096,0.5473,0.4688,0.3986,0.3285,0.2425,0.1643,0.0704,-0.0313,-0.133,-0.266,-0.3906,-0.3982,-0.4139,-0.555,-0.5467,-0.5925,-0.8237,-0.8775,-0.9306,-1.0812,-1.1855,-1.2739,-2.9602,0.0,-2.9602,-2.9602,0.0,-2.9837,-2.996,-2.9913,-2.9727,-2.9602,-2.9602,-2.9602,-2.9602,-2.9602,-2.9198,-2.8839,-2.8492,-2.8182,-2.7604,-2.696,-2.6539,-2.6208,-2.5861,-2.5417,-2.4898,-2.4264,-2.429,-2.3612,-2.2229,-2.1904,-2.1688,-2.1544,-2.0865,-2.0752,-2.1376,-2.1978,-2.1978,-2.14,-2.1581,-2.1906,-2.2469,-2.3318,-2.4134,-2.4968,-2.6352,0.0,0.0,0.0,0.0,0.0,0.0,0.0,0.0,0.0,0.0,-2.4195,-2.2908,-2.1396,-1.9543,-1.6927,-1.4854,-1.3556,-0.9195,-0.596,-0.465,-0.3113,-0.1406,0.047,0.1251,0.2344,0.3826,0.4683,0.5464,0.6325,0.6938,0.7322,0.7399,0.7629,0.8089,0.8699,0.915,0.9679,1.0438,1.0812,1.0962,1.0588,1.0519,1.0363,0.983,0.8389,0.7249,0.6938,0.6325,0.5783,0.5315,0.4771,0.4146,0.3287,0.2817,0.2189,0.125,-0.0078,-0.1329,-0.2264,-0.2734,-0.3519,-0.438,-0.4535,-0.5306,-0.7456,-0.8304,-0.9145,-1.0732,-1.1706,-1.2519,-2.9713,-2.9727,-2.9851,-2.9851,-2.9913,-3.0251,-3.0433,-3.0372,0.0,0.0,0.0,-2.9851,-2.9851,-2.9837,-2.9851,-2.9435,-2.8826,-2.8812,-2.8376,-2.7683,-2.7069,-2.6744,-2.662,-2.6607,-2.6089,-2.5098,-2.5706,-2.4856,-2.274,-2.2829,-2.2383,-2.1474,-2.1393,-2.1479,-2.1655,-2.2737,-2.305,-2.2518,-2.305,-2.3441,-2.3664,-2.4204,-2.4996,-2.6133,-2.7107,-2.7773,-2.824,-2.9106,-2.9608,-2.9563,-2.8858,-2.8304,-2.8061,-2.7261,-2.6201,-2.4924,-2.3373,-2.1608,-1.95,-1.6684,-1.403,-1.1765,-0.7626,-0.4044,-0.1331,-0.1174,-0.0235,0.2116,0.2741,0.3675,0.5229,0.5854,0.6398,0.6942,0.7706,0.8165,0.8241,0.877,0.9382,0.9992,1.0212,1.0588,1.1186,1.1484,1.1484,1.1335,1.1335,1.118,1.0887,0.9448,0.8012,0.7399,0.6861,0.6247,0.617,0.5786,0.5085,0.438,0.3986,0.3597,0.2659,0.1173,0.0,-0.0547,-0.1642,-0.2506,-0.3212,-0.3759,-0.4838,-0.6751,-0.7685,-0.8685,-1.0351,-1.1329,-1.207,-3.019,-3.0266,-3.0613,-3.0792,-3.0777,-3.0851,-3.0911,-3.0911,-3.0851,-3.0777,-3.0777,-3.0792,-3.0792,-3.0792,-3.0777,-3.0539,-3.0054,-3.0054,-2.947,-2.8376,-2.8233,-2.7959,-2.7564,-2.7498,-2.7498,-2.7498,-2.7696,-2.6922,-2.5282,-2.5153,-2.4713,-2.3654,-2.2975,-2.2949,-2.3521,-2.4328,-2.4654,-2.461,-2.4641,-2.519,-2.6062,-2.6509,-2.7244,-2.8225,-2.8842,-2.9273,-2.9512,-2.9782,-2.993,-2.9946,-2.9782,-2.947,-2.8811,-2.8158,-2.7384,-2.6289,-2.4131,-2.2085,-2.0314,-1.7658,-1.4095,-0.9569,-0.7171,-0.4424,-0.0863,0.0,0.0941,0.2584,0.3522,0.4535,0.5467,0.6553,0.7326,0.7557,0.8699,0.9614,0.9539,1.0207,1.0738,1.0887,1.1558,1.1929,1.2218,1.2746,1.2893,1.2372,1.2365,1.2003,1.126,1.0293,0.9306,0.8546,0.7936,0.7553,0.7395,0.7019,0.6321,0.5705,0.4761,0.3984,0.3365,0.2036,0.0862,-0.0313,-0.0313,-0.0862,-0.2584,-0.3052,-0.3982,-0.5674,-0.6608,-0.7693,-0.9518,-1.0051,-1.0651,-3.0673,-3.0732,-3.0911,-3.1029,-3.1029,-3.1263,-3.1709,-3.217,-3.1864,-3.1495,-3.1029,-3.1029,-3.1029,-3.1029,-3.1029,-3.0911,-3.0673,-3.0658,-3.0222,-2.947,-2.9052,-2.8579,-2.8168,-2.8233,-2.8182,-2.8065,-2.8583,-2.7895,-2.6334,-2.6201,-2.5675,-2.4633,-2.4213,-2.4477,-2.5287,-2.5685,-2.5997,-2.6289,-2.5997,-2.6105,-2.662,-2.7545,-2.8307,-2.8732,-2.9451,-2.9865,-2.9935,-3.0267,-3.0351,-3.014,-2.9924,-2.9572,-2.9044,-2.8511,-2.7735,-2.6605,-2.4874,-2.2961,-2.0945,-1.7668,-1.3754,-0.904,-0.7534,-0.5175,-0.133,0.0,0.1177,0.2507,0.368,0.4693,0.5386,0.7003,0.8084,0.8466,0.9528,1.0218,1.0288,1.0513,1.0962,1.1558,1.2278,1.2931,1.3448,1.4178,1.4617,1.4171,1.4171,1.373,1.2551,1.2037,1.1378,1.0196,0.914,0.8533,0.8376,0.7548,0.6861,0.6479,0.5696,0.4996,0.4533,0.3443,0.2113,0.1096,0.0862,0.0,-0.1568,-0.2116,-0.3047,-0.4516,-0.5678,-0.6908,-0.8751,-0.9825,-1.0875,-3.1146,-3.1146,-3.1407,-3.1564,-3.1721,-3.2074,-3.268,-3.3303,-3.2964,-3.2312,-3.158,-3.1349,-3.1306,-3.1306,-3.1306,-3.1263,-3.1146,-3.1146,-3.0911,-3.0433,-2.9875,-2.9414,-2.9192,-2.9219,-2.9093,-2.8989,-2.9518,-2.9003,-2.7708,-2.7516,-2.6889,-2.5867,-2.5835,-2.6261,-2.6982,-2.7113,-2.748,-2.7878,-2.7633,-2.7465,-2.7309,-2.8545,-2.9265,-2.9371,-3.0093,-3.0525,-3.0484,-3.0881,-3.0937,-3.0616,-3.0252,-2.987,-2.9467,-2.8934,-2.813,-2.7019,-2.5675,-2.3673,-2.0922,-1.7262,-1.3432,-0.9499,-0.7903,-0.5545,-0.2104,-0.0078,0.1411,0.2741,0.4064,0.5151,0.6002,0.7613,0.8917,0.9226,1.0207,1.0887,1.1031,1.1031,1.1552,1.2572,1.3142,1.3787,1.4665,1.5313,1.5596,1.5596,1.5807,1.5359,1.4204,1.3845,1.3273,1.2117,1.0553,0.9508,0.9357,0.868,0.7851,0.7472,0.6853,0.6314,0.5696,0.4453,0.3361,0.2425,0.1332,0.047,-0.0314,-0.1255,-0.2348,-0.3589,-0.4595,-0.614,-0.8528,-0.983,-1.1031,-3.1682,-3.1766,-3.261,-3.3287,-3.3649,-3.3716,-3.3818,-3.3919,-3.3885,-3.3563,-3.2971,-3.2477,-3.2272,-3.2272,-3.2272,-3.2048,-3.1724,-3.1667,-3.1379,-3.1014,-3.0896,-3.0911,-3.0896,-3.0732,-3.097,-3.1377,-3.1334,-3.086,-3.0082,-2.9909,-2.9291,-2.8168,-2.8275,-2.8466,-2.8623,-2.8916,-2.9214,-2.9556,-3.0004,-2.9943,-2.9403,-3.0061,-3.059,-3.0891,-3.1414,-3.167,-3.156,-3.1829,-3.1847,-3.1595,-3.1504,-3.1164,-3.051,-2.9956,-2.9236,-2.8209,-2.6521,-2.3798,-1.9874,-1.6354,-1.3461,-1.0935,-0.8072,-0.518,-0.2181,0.0312,0.2344,0.3744,0.5132,0.622,0.7242,0.8846,0.9679,0.9377,1.0582,1.1848,1.2432,1.2666,1.3317,1.5029,1.453,1.4545,1.5455,1.5807,1.5877,1.6088,1.6558,1.6549,1.5641,1.5367,1.5226,1.4378,1.2558,1.1025,1.0801,1.0657,0.9669,0.8756,0.8291,0.7604,0.6384,0.5151,0.3832,0.3281,0.2037,0.102,0.0,-0.102,-0.1881,-0.2506,-0.3748,-0.5381,-0.7761,-0.9296,-1.0507,-3.3039,-3.3093,-3.3511,-3.3818,-3.3986,-3.3986,-3.4185,-3.4431,-3.4136,-3.402,-3.4053,-3.3563,-3.3161,-3.2895,-3.3214,-3.3251,-3.3039,-3.2718,-3.2336,-3.189,-3.1736,-3.158,-3.1407,-3.1747,-3.2069,-3.24,-3.2586,-3.2357,-3.1643,-3.0791,-3.0131,-2.9669,-2.9496,-2.975,-3.048,-3.0544,-3.0781,-3.1227,-3.1759,-3.1923,-3.1764,-3.1809,-3.1999,-3.2296,-3.2703,-3.2864,-3.2841,-3.2835,-3.267,-3.2364,-3.2256,-3.19,-3.1295,-3.1014,-3.0563,-2.9583,-2.7055,-2.4117,-2.0825,-1.8205,-1.5503,-1.2483,-0.9851,-0.7067,-0.3962,-0.1168,0.1248,0.335,0.5137,0.6538,0.7468,0.8993,1.0056,1.0357,1.1329,1.2365,1.3164,1.3244,1.3753,1.4966,1.5525,1.5948,1.6507,1.7198,1.7677,1.7755,1.8007,1.7872,1.7375,1.7307,1.6964,1.6192,1.483,1.3556,1.2492,1.118,1.0507,0.99,0.9513,0.8751,0.8062,0.6992,0.5832,0.4441,0.3357,0.2193,0.1021,0.0314,-0.047,-0.1409,-0.3671,-0.5764,-0.7846,-0.8993,-1.0201,-3.3986,-3.4036,-3.4119,-3.4366,-3.464,-3.464,-3.4925,-3.5278,-3.4938,-3.4938,-3.514,-3.4891,-3.4478,-3.4038,-3.4053,-3.3986,-3.3935,-3.3614,-3.3287,-3.2939,-3.2741,-3.2563,-3.2486,-3.2935,-3.332,-3.3609,-3.3876,-3.3761,-3.3195,-3.2128,-3.1483,-3.1325,-3.0896,-3.1192,-3.208,-3.2051,-3.2317,-3.2795,-3.3205,-3.3506,-3.3671,-3.3515,-3.3414,-3.3432,-3.3771,-3.3982,-3.3938,-3.3826,-3.3629,-3.3311,-3.3148,-3.275,-3.2139,-3.2071,-3.1636,-3.0439,-2.7719,-2.4954,-2.2571,-2.0333,-1.759,-1.4324,-1.1557,-0.8548,-0.5319,-0.2016,0.101,0.3496,0.56,0.7238,0.7851,0.9513,1.0795,1.1397,1.2285,1.323,1.4227,1.4299,1.472,1.5799,1.6627,1.7189,1.7677,1.8566,1.9187,1.8998,1.9198,1.9121,1.8757,1.8489,1.821,1.7375,1.6738,1.5553,1.386,1.2572,1.1545,1.095,1.0714,1.0271,0.9744,0.8519,0.7604,0.5832,0.491,0.3671,0.2036,0.1332,0.0313,-0.1173,-0.3198,-0.5607,-0.7073,-0.8452,-0.9895,-3.3986,-3.4119,-3.4577,-3.5328,-3.6156,-3.6156,-3.6374,-3.6643,-3.6666,-3.647,-3.6128,-3.647,-3.6429,-3.584,-3.4686,-3.402,-3.407,-3.4053,-3.4137,-3.4153,-3.4104,-3.4365,-3.4788,-3.4598,-3.4935,-3.5574,-3.5488,-3.5341,-3.5114,-3.4563,-3.3953,-3.3296,-3.2947,-3.2938,-3.3172,-3.3414,-3.3821,-3.4165,-3.4298,-3.4567,-3.4998,-3.5097,-3.4762,-3.4272,-3.4655,-3.484,-3.4764,-3.4849,-3.4786,-3.451,-3.4388,-3.3966,-3.3158,-3.3016,-3.2275,-3.0499,-2.8489,-2.6653,-2.4913,-2.225,-1.9327,-1.6501,-1.2799,-0.901,-0.6036,-0.1615,0.201,0.4876,0.7046,0.8533,0.8993,1.072,1.2063,1.2412,1.3491,1.4775,1.6201,1.6027,1.6858,1.7939,1.8065,1.8257,1.8977,1.9584,1.9835,1.9584,1.9715,1.9835,1.9253,1.8931,1.8777,1.8365,1.7522,1.6349,1.5446,1.4091,1.315,1.2638,1.205,1.1397,1.0034,0.8827,0.8138,0.6992,0.5217,0.3826,0.2815,0.1565,0.0235,-0.1173,-0.2735,-0.4678,-0.6454,-0.7774,-0.9296,-3.5865,-3.5882,-3.6053,-3.634,-3.6678,-3.6661,-3.6799,-3.69,-3.69,-3.6786,-3.6666,-3.6843,-3.6803,-3.6551,-3.6146,-3.5917,-3.59,-3.565,-3.5528,-3.5589,-3.5423,-3.545,-3.5651,-3.5924,-3.6266,-3.6606,-3.6887,-3.6845,-3.6533,-3.6407,-3.5799,-3.4903,-3.4745,-3.4591,-3.4396,-3.4516,-3.474,-3.4892,-3.4999,-3.5182,-3.5412,-3.5384,-3.5267,-3.514,-3.5265,-3.5366,-3.5293,-3.5292,-3.5218,-3.5125,-3.4961,-3.4658,-3.4111,-3.3892,-3.3205,-3.1822,-3.0466,-2.8906,-2.6965,-2.4704,-2.2089,-1.9199,-1.5257,-1.169,-0.8305,-0.3512,0.085,0.354,0.735,0.9734,1.0977,1.1896,1.2851,1.4124,1.4767,1.5607,1.6669,1.7083,1.7552,1.8936,1.9564,2.0267,2.0685,2.1227,2.129,2.1101,2.1227,2.1037,2.0719,2.0602,2.0279,1.9694,1.9023,1.8412,1.7755,1.5579,1.4171,1.4019,1.3658,1.315,1.2178,1.076,0.9927,0.8438,0.6287,0.4833,0.4213,0.2425,0.0938,-0.1017,-0.2579,-0.3979,-0.5915,-0.7076,-0.8751,-3.696,-3.7023,-3.7023,-3.7157,-3.7362,-3.738,-3.7452,-3.756,-3.7596,-3.756,-3.7596,-3.756,-3.7578,-3.7613,-3.7683,-3.7749,-3.7695,-3.7033,-3.6707,-3.6826,-3.6636,-3.67,-3.6984,-3.7381,-3.7679,-3.7925,-3.8309,-3.8386,-3.8059,-3.7962,-3.7444,-3.6711,-3.6559,-3.6344,-3.5979,-3.5821,-3.573,-3.5724,-3.5558,-3.55,-3.5575,-3.5496,-3.55,-3.5601,-3.5841,-3.5851,-3.5605,-3.5519,-3.5461,-3.5446,-3.5333,-3.5156,-3.4875,-3.4547,-3.4001,-3.3075,-3.2354,-3.1114,-2.9247,-2.7381,-2.5269,-2.2719,-1.894,-1.5303,-1.1706,-0.6706,-0.2034,0.2428,0.6596,1.0211,1.2942,1.4126,1.4844,1.5878,1.6365,1.7045,1.816,1.8685,1.9346,2.0289,2.1003,2.1643,2.2039,2.2039,2.2039,2.2101,2.2101,2.199,2.1791,2.1741,2.1616,2.0858,2.0462,1.9933,1.9222,1.7629,1.5913,1.5562,1.4863,1.4522,1.381,1.2538,1.1279,0.9712,0.8286,0.6839,0.522,0.3435,0.1484,-0.0547,-0.1876,-0.3122,-0.4753,-0.6234,-0.7833,-3.712,-3.7381,-3.7327,-3.7814,-3.8334,-3.8365,-3.8601,-3.8859,-3.8897,-3.8822,-3.8803,-3.8897,-3.8869,-3.9034,-3.9016,-3.9258,-3.9046,-3.7954,-3.7575,-3.7809,-3.7757,-3.8112,-3.872,-3.8776,-3.9051,-3.9479,-3.9756,-3.9852,-3.9717,-3.9249,-3.8916,-3.881,-3.8283,-3.7927,-3.7988,-3.7206,-3.685,-3.6672,-3.613,-3.5708,-3.5551,-3.5674,-3.5695,-3.5695,-3.6293,-3.6361,-3.5721,-3.5717,-3.5829,-3.5774,-3.5739,-3.5591,-3.5469,-3.5142,-3.4628,-3.4168,-3.3786,-3.2999,-3.1649,-3.0163,-2.8585,-2.6602,-2.3582,-1.9584,-1.5441,-1.1001,-0.5365,0.1804,0.6227,1.0049,1.5189,1.7695,1.8334,1.7542,1.8502,1.9489,2.0331,2.1393,2.2089,2.2151,2.2384,2.2151,2.2224,2.2518,2.2628,2.2518,2.247,2.2408,2.2224,2.2175,2.2101,2.1854,2.1279,2.0655,2.0257,1.9738,1.8315,1.7101,1.6114,1.5421,1.4514,1.3339,1.2325,1.0914,0.913,0.7681,0.5755,0.3973,0.2347,0.0469,-0.0781,-0.2266,-0.3671,-0.5148,-0.6692,-3.8623,-3.8672,-3.8776,-3.892,-3.9151,-3.9151,-3.9246,-3.9339,-3.9336,-3.9364,-3.9345,-3.9399,-3.9425,-3.9467,-3.9551,-3.9596,-3.9599,-3.9213,-3.9118,-3.9171,-3.919,-3.9297,-3.9529,-3.9572,-3.9776,-4.0057,-4.0144,-4.0288,-4.0372,-4.0227,-3.9936,-3.9412,-3.9198,-3.8754,-3.8239,-3.7912,-3.778,-3.7647,-3.7166,-3.6897,-3.6853,-3.661,-3.6478,-3.6477,-3.6524,-3.6472,-3.6519,-3.7015,-3.7311,-3.728,-3.7396,-3.7162,-3.6589,-3.6333,-3.5865,-3.5098,-3.4751,-3.4258,-3.3382,-3.2407,-3.1137,-2.9401,-2.6693,-2.4189,-2.1233,-1.5891,-0.882,-0.039,0.5357,1.1474,1.8452,2.1669,2.1714,2.0545,2.1195,2.1934,2.2613,2.3495,2.3942,2.4058,2.4372,2.4614,2.4614,2.4614,2.4328,2.4079,2.4021,2.38,2.3075,2.2895,2.2298,2.1616,2.1302,2.1164,2.073,2.0409,1.9541,1.8469,1.7503,1.6332,1.535,1.4355,1.3273,1.1816,1.0104,0.8362,0.6357,0.4745,0.3355,0.1409,-0.0234,-0.1485,-0.2738,-0.4059,-0.5366,-3.9425,-3.9538,-3.9615,-3.9702,-3.9787,-3.9806,-3.9787,-3.9787,-3.9792,-3.9813,-3.9814,-3.9871,-3.9907,-3.9943,-3.9991,-4.0069,-4.0145,-4.0254,-4.0288,-4.0295,-4.012,-4.0104,-4.0196,-4.024,-4.0346,-4.049,-4.0524,-4.0602,-4.0754,-4.0742,-4.0461,-4.0045,-3.9989,-3.9723,-3.9044,-3.8623,-3.8382,-3.8223,-3.7596,-3.7204,-3.7049,-3.6845,-3.6655,-3.6512,-3.6545,-3.6811,-3.7175,-3.781,-3.8049,-3.7834,-3.7934,-3.779,-3.7308,-3.7309,-3.6971,-3.6088,-3.5724,-3.5339,-3.4494,-3.3732,-3.3048,-3.1661,-2.9876,-2.7594,-2.5217,-2.0348,-1.4428,-0.59,0.0316,0.7194,1.4158,2.0651,2.2405,2.2135,2.308,2.4046,2.4817,2.5356,2.5642,2.5751,2.6034,2.6275,2.6342,2.6158,2.6011,2.5645,2.5398,2.5147,2.4239,2.3904,2.3122,2.2531,2.2421,2.2051,2.1313,2.088,2.0571,1.9759,1.8957,1.758,1.641,1.5342,1.4268,1.2558,1.0795,0.9508,0.7656,0.6521,0.506,0.2879,0.0781,0.0156,-0.0701,-0.2336,-0.3958,-3.9702,-3.9927,-3.9947,-4.0119,-4.0317,-4.0336,-4.0317,-4.0336,-4.0353,-4.0332,-4.0345,-4.0395,-4.0458,-4.0532,-4.0563,-4.0664,-4.0857,-4.0817,-4.0851,-4.0813,-4.0586,-4.0463,-4.0674,-4.0753,-4.0823,-4.0863,-4.084,-4.0871,-4.085,-4.0783,-4.0777,-4.0607,-4.0548,-4.0583,-4.001,-3.9284,-3.8709,-3.8472,-3.7577,-3.6937,-3.6655,-3.6541,-3.6401,-3.6109,-3.6626,-3.7113,-3.7505,-3.7903,-3.7904,-3.7367,-3.7728,-3.7892,-3.7797,-3.8092,-3.7806,-3.6782,-3.6852,-3.6209,-3.525,-3.4715,-3.4248,-3.3685,-3.2612,-3.0969,-2.7733,-2.5615,-2.0891,-1.2292,-0.6695,-0.1288,0.5808,1.3695,1.953,2.2228,2.4449,2.614,2.6755,2.7062,2.7199,2.7235,2.732,2.7455,2.7519,2.7149,2.6924,2.6643,2.6304,2.5943,2.5494,2.5036,2.4781,2.4195,2.3492,2.2822,2.2015,2.1353,2.0974,2.0302,1.9573,1.8489,1.7189,1.6123,1.4996,1.3281,1.1545,1.0329,0.8969,0.752,0.5989,0.3895,0.265,0.2259,0.0933,-0.101,-0.2721,-4.0277,-4.0364,-4.0554,-4.0684,-4.0751,-4.0789,-4.0789,-4.0808,-4.0808,-4.0776,-4.081,-4.0894,-4.0901,-4.093,-4.0944,-4.1003,-4.0999,-4.0935,-4.0898,-4.0897,-4.0781,-4.0789,-4.0938,-4.0957,-4.097,-4.0945,-4.0866,-4.0836,-4.0828,-4.0664,-4.0539,-4.0337,-4.0249,-4.01,-3.9749,-3.9184,-3.8877,-3.8719,-3.805,-3.7571,-3.7421,-3.7241,-3.7163,-3.7057,-3.6952,-3.7131,-3.7464,-3.7644,-3.7917,-3.8181,-3.8474,-3.8385,-3.7982,-3.8399,-3.8246,-3.7411,-3.7317,-3.7065,-3.6175,-3.5791,-3.5483,-3.4933,-3.4218,-3.3496,-3.2499,-2.9621,-2.4132,-1.6709,-1.0934,-0.5282,0.1883,0.8134,1.4075,2.1321,2.4753,2.7929,2.9066,2.908,2.9007,2.9007,2.9035,2.9035,2.8989,2.8778,2.8387,2.789,2.7445,2.6968,2.6438,2.5918,2.5591,2.4727,2.4026,2.3428,2.276,2.198,2.133,2.0624,1.9911,1.9054,1.7823,1.6567,1.5508,1.4163,1.2198,1.0777,0.9341,0.7829,0.6213,0.4753,0.4055,0.335,0.148,-0.0389,-0.1714,-4.0679,-4.0712,-4.0881,-4.0959,-4.0956,-4.0975,-4.0985,-4.0995,-4.0974,-4.0972,-4.0978,-4.1037,-4.103,-4.1013,-4.1035,-4.1032,-4.0965,-4.0898,-4.0857,-4.0847,-4.0721,-4.0764,-4.0906,-4.093,-4.0916,-4.0903,-4.0694,-4.0607,-4.0546,-4.035,-4.0133,-3.9948,-3.9683,-3.9477,-3.9295,-3.8767,-3.849,-3.8352,-3.795,-3.7683,-3.747,-3.7342,-3.7135,-3.6999,-3.6741,-3.6781,-3.6978,-3.7152,-3.7524,-3.8004,-3.8339,-3.8424,-3.8257,-3.8641,-3.8553,-3.7755,-3.7719,-3.739,-3.6793,-3.6485,-3.6051,-3.5436,-3.4971,-3.4419,-3.3408,-3.1299,-2.7077,-2.2278,-1.7114,-1.1962,-0.6471,-0.0244,0.7527,1.4865,1.9535,2.3991,2.9832,3.0959,3.0857,3.0853,3.0746,3.0673,3.0633,3.0186,2.9609,2.8979,2.8497,2.7887,2.7282,2.682,2.6332,2.559,2.4925,2.4389,2.3884,2.3179,2.2041,2.1279,1.9987,1.9264,1.822,1.6844,1.5376,1.4091,1.2551,1.1075,0.9573,0.8214,0.7226,0.5996,0.522,0.3977,0.2338,0.0546,-0.078,-4.0955,-4.0994,-4.1028,-4.1013,-4.1011,-4.1006,-4.1007,-4.0984,-4.0943,-4.0912,-4.0915,-4.0952,-4.0937,-4.0895,-4.0941,-4.092,-4.0811,-4.0796,-4.0752,-4.0652,-4.0513,-4.0479,-4.0597,-4.0635,-4.0662,-4.061,-4.0386,-4.0213,-4.0057,-3.9787,-3.9566,-3.9344,-3.8984,-3.8776,-3.8596,-3.8077,-3.7835,-3.7733,-3.7452,-3.7079,-3.6825,-3.6684,-3.6481,-3.6165,-3.6079,-3.6139,-3.6308,-3.6539,-3.6904,-3.734,-3.763,-3.7899,-3.8235,-3.86,-3.854,-3.8152,-3.7828,-3.7604,-3.7084,-3.6628,-3.6211,-3.5547,-3.5194,-3.4555,-3.3255,-3.2052,-3.033,-2.7729,-2.4227,-1.9989,-1.604,-0.882,-0.1049,0.5993,0.8044,1.5169,2.5552,3.0633,3.1447,3.1763,3.1422,3.2216,3.1916,3.1345,3.0556,3.0286,2.9766,2.9157,2.8466,2.7902,2.7354,2.6791,2.6144,2.5549,2.4995,2.4372,2.3119,2.1992,2.0279,1.9187,1.8257,1.6876,1.5067,1.365,1.3201,1.1729,0.9588,0.8533,0.777,0.6853,0.577,0.4681,0.3513,0.1717,0.0234,-4.0984,-4.0996,-4.1048,-4.1079,-4.1082,-4.1077,-4.1037,-4.1005,-4.0981,-4.0928,-4.0848,-4.0852,-4.0828,-4.0816,-4.0813,-4.0827,-4.0743,-4.0676,-4.0604,-4.0296,-4.0062,-3.9967,-4.004,-4.0074,-4.0142,-4.0111,-4.0005,-3.9707,-3.9406,-3.9214,-3.8896,-3.8389,-3.8253,-3.8034,-3.7787,-3.7398,-3.7117,-3.7041,-3.6741,-3.6333,-3.5977,-3.5907,-3.5688,-3.5299,-3.5237,-3.5374,-3.5661,-3.5705,-3.5968,-3.6433,-3.6825,-3.7082,-3.729,-3.7695,-3.7802,-3.7682,-3.7835,-3.7588,-3.6785,-3.6656,-3.6394,-3.5526,-3.5042,-3.4561,-3.4215,-3.2676,-3.178,-3.0571,-2.8031,-2.4406,-2.0543,-1.6583,-1.053,-0.4443,-0.0825,0.2937,1.1129,1.9258,2.3763,2.5693,2.9138,3.3103,3.2757,3.1936,3.144,3.1446,3.098,3.0406,2.9766,2.9021,2.8451,2.7926,2.7217,2.6462,2.5108,2.4262,2.2795,2.1782,2.0375,1.9264,1.8335,1.7639,1.6114,1.5138,1.4506,1.2451,0.9744,0.9069,0.8461,0.7314,0.624,0.5226,0.4055,0.2496,0.1327,-4.1071,-4.1097,-4.1148,-4.1124,-4.1113,-4.1106,-4.1053,-4.1009,-4.0965,-4.0908,-4.0848,-4.0809,-4.0699,-4.0571,-4.0558,-4.0488,-4.0346,-4.029,-4.0119,-3.984,-3.9571,-3.9364,-3.9212,-3.9195,-3.9239,-3.9535,-3.9435,-3.9119,-3.8767,-3.8497,-3.8196,-3.7803,-3.7578,-3.7397,-3.7097,-3.6603,-3.6316,-3.6172,-3.5864,-3.5464,-3.5237,-3.5207,-3.5161,-3.4975,-3.5021,-3.5237,-3.5128,-3.5328,-3.5391,-3.5493,-3.583,-3.6298,-3.6626,-3.6988,-3.714,-3.7305,-3.7232,-3.7345,-3.6845,-3.6667,-3.6346,-3.542,-3.508,-3.4626,-3.4129,-3.2957,-3.2521,-3.2071,-3.0551,-2.8037,-2.4997,-2.3804,-1.966,-1.6137,-1.3081,-1.0392,-0.5024,0.6367,1.5953,1.716,1.941,2.3781,2.6111,2.7352,3.0287,2.9461,3.0991,3.0617,3.1053,3.0353,2.9678,2.9058,2.8355,2.7238,2.5451,2.3851,2.203,2.1083,2.0117,1.9309,1.8576,1.8085,1.7463,1.6175,1.4546,1.2104,0.9836,0.9377,0.9069,0.808,0.7076,0.5841,0.4678,0.3587,0.2578,-4.1139,-4.1183,-4.1168,-4.1145,-4.1078,-4.1064,-4.1031,-4.0956,-4.0888,-4.0846,-4.0804,-4.0759,-4.0513,-4.0331,-4.0252,-4.0043,-3.9865,-3.9671,-3.9576,-3.9421,-3.9036,-3.8781,-3.8573,-3.8431,-3.8438,-3.8941,-3.8785,-3.8462,-3.8085,-3.7718,-3.7524,-3.7305,-3.6904,-3.6684,-3.6481,-3.5933,-3.5509,-3.5464,-3.5191,-3.4816,-3.4738,-3.469,-3.4642,-3.4545,-3.4721,-3.48,-3.4592,-3.4752,-3.4911,-3.4544,-3.4894,-3.5565,-3.619,-3.6498,-3.6563,-3.6921,-3.6706,-3.6654,-3.6663,-3.6584,-3.6214,-3.5399,-3.5324,-3.4943,-3.4134,-3.3609,-3.3302,-3.2984,-3.2089,-3.0991,-2.9843,-2.8726,-2.7636,-2.5519,-2.5047,-2.4131,-1.9688,-0.6612,0.0653,0.7186,1.0331,1.4777,1.7514,1.9383,2.3836,2.7447,2.8689,2.9285,2.8863,2.7581,2.4431,2.2315,1.9891,2.1796,2.0889,2.0393,1.8982,2.0251,1.9443,1.9199,1.893,1.9555,1.8885,1.5887,1.3863,1.1931,1.0777,1.0467,0.9938,0.8898,0.7825,0.6583,0.5591,0.4681,0.3673,-4.1111,-4.1111,-4.1059,-4.1033,-4.1003,-4.0956,-4.0881,-4.0752,-4.075,-4.0668,-4.0564,-4.0403,-4.0298,-4.0157,-3.9965,-3.9842,-3.9668,-3.9383,-3.9125,-3.898,-3.856,-3.8198,-3.8132,-3.7929,-3.7859,-3.7772,-3.7857,-3.7789,-3.7434,-3.7173,-3.6943,-3.6539,-3.6122,-3.5907,-3.5776,-3.5237,-3.4975,-3.4927,-3.4738,-3.4496,-3.4267,-3.4168,-3.4034,-3.3729,-3.3917,-3.3901,-3.3935,-3.4002,-3.4267,-3.4816,-3.4864,-3.5207,-3.5616,-3.5871,-3.6002,-3.6028,-3.6224,-3.6266,-3.6097,-3.6207,-3.602,-3.5701,-3.5511,-3.5528,-3.5108,-3.4631,-3.4283,-3.395,-3.3317,-3.2285,-3.1596,-3.1341,-3.0757,-2.9663,-2.8768,-2.7943,-2.6245,-2.1797,-1.4687,-0.7162,-0.0557,0.5407,0.7462,0.9398,1.2065,1.4562,1.5907,1.5683,1.481,1.3449,1.1233,0.9589,0.8251,1.1869,1.5097,1.5168,1.5082,1.8321,1.8734,1.8958,1.9294,2.1119,2.0177,1.5936,1.4247,1.3475,1.2542,1.1611,1.0587,0.9487,0.8401,0.7462,0.6353,0.5452,0.4373,-4.1042,-4.1047,-4.1024,-4.0985,-4.0937,-4.0925,-4.0815,-4.0693,-4.0662,-4.054,-4.037,-4.0251,-4.0061,-3.9857,-3.9724,-3.9566,-3.9345,-3.9008,-3.8799,-3.8633,-3.8147,-3.7809,-3.7721,-3.7505,-3.7264,-3.7167,-3.715,-3.7094,-3.6856,-3.6719,-3.6516,-3.6284,-3.5854,-3.5633,-3.5407,-3.4833,-3.4513,-3.4415,-3.4168,-3.3984,-3.3694,-3.3642,-3.3398,-3.3293,-3.3314,-3.3351,-3.3193,-3.3491,-3.3527,-3.37,-3.4103,-3.4464,-3.488,-3.5316,-3.5667,-3.5667,-3.5827,-3.5871,-3.5667,-3.5827,-3.5766,-3.5667,-3.5639,-3.5639,-3.5571,-3.5267,-3.5047,-3.4918,-3.4745,-3.4091,-3.3865,-3.3518,-3.3317,-3.2886,-3.2187,-3.1706,-3.1223,-3.0487,-2.563,-1.9757,-1.5808,-0.9961,-0.3462,-0.1614,0.011,0.1654,0.301,0.2361,0.1079,0.0269,-0.0908,-0.0614,-0.1181,0.0789,0.4738,0.5985,0.8004,1.2071,1.4474,1.4751,1.5118,1.4829,1.5425,1.4059,1.3566,1.257,1.2832,1.1409,1.0736,1.0564,1.0444,0.9898,0.7715,0.6146,0.522,-4.0985,-4.0977,-4.0977,-4.0938,-4.0868,-4.081,-4.0712,-4.0612,-4.0481,-4.0334,-4.0138,-4.0042,-3.9791,-3.9464,-3.9234,-3.9073,-3.8884,-3.8517,-3.8342,-3.8162,-3.7685,-3.7376,-3.7243,-3.6974,-3.6673,-3.6516,-3.6426,-3.6402,-3.6485,-3.6284,-3.6156,-3.5941,-3.5633,-3.5316,-3.5021,-3.4317,-3.405,-3.3813,-3.3555,-3.3293,-3.3256,-3.315,-3.3112,-3.3043,-3.3282,-3.3177,-3.278,-3.3018,-3.3071,-3.3108,-3.3407,-3.3919,-3.4136,-3.4927,-3.5424,-3.547,-3.5515,-3.5577,-3.5622,-3.5622,-3.5667,-3.5639,-3.5639,-3.5639,-3.5622,-3.5571,-3.5599,-3.5711,-3.5554,-3.5586,-3.5538,-3.5698,-3.547,-3.5268,-3.5036,-3.4935,-3.4231,-3.3632,-3.3258,-2.9897,-2.9077,-2.4103,-1.6218,-1.4547,-1.3229,-1.2257,-1.0953,-1.0696,-1.1666,-1.0951,-1.1249,-1.0111,-0.9764,-0.9444,-0.7237,-0.5098,-0.2143,0.2247,0.4035,0.4678,0.5348,0.582,0.6768,0.7866,0.9193,0.844,0.9647,1.2421,1.3558,1.4073,1.3696,1.1741,0.8543,0.7145,0.6535,-4.0905,-4.0906,-4.0848,-4.0829,-4.0765,-4.0554,-4.0441,-4.0334,-4.012,-3.9924,-3.984,-3.9637,-3.9396,-3.9008,-3.853,-3.8314,-3.815,-3.7929,-3.7756,-3.7614,-3.7206,-3.693,-3.6829,-3.6626,-3.6284,-3.6037,-3.5837,-3.6045,-3.6131,-3.5837,-3.5661,-3.5526,-3.488,-3.4333,-3.4415,-3.3832,-3.3398,-3.3414,-3.3293,-3.3203,-3.3112,-3.3043,-3.2935,-3.2951,-3.2935,-3.292,-3.2633,-3.2711,-3.2765,-3.3039,-3.3145,-3.3563,-3.3969,-3.4545,-3.4833,-3.5021,-3.527,-3.5639,-3.5639,-3.5639,-3.5639,-3.5639,-3.5639,-3.5639,-3.5639,-3.5667,-3.5783,-3.6174,-3.5871,-3.5898,-3.6308,-3.6326,-3.6333,-3.6357,-3.6256,-3.6096,-3.577,-3.5447,-3.5256,-3.5243,-3.2919,-3.1436,-2.6887,-2.6985,-2.6804,-2.5903,-2.4957,-2.4184,-2.3602,-2.2401,-2.2065,-2.1129,-2.0545,-2.0205,-1.8836,-1.6752,-1.3729,-0.8795,-0.7381,-0.6311,-0.5634,-0.48,-0.1693,-0.0413,0.1475,0.6457,1.0823,1.3967,1.6658,1.6619,1.4997,1.1895,0.842,0.7901,0.8675,-4.0636,-4.0829,-4.0673,-4.0631,-4.0617,-4.0336,-4.0213,-4.0101,-3.9963,-3.9794,-3.959,-3.9345,-3.8971,-3.8499,-3.8183,-3.8101,-3.7982,-3.7614,-3.745,-3.7319,-3.697,-3.6742,-3.6684,-3.6544,-3.6199,-3.5759,-3.5599,-3.5481,-3.5526,-3.5328,-3.5144,-3.5021,-3.4464,-3.4151,-3.4,-3.3555,-3.3361,-3.3171,-3.2873,-3.2641,-3.2617,-3.2453,-3.2453,-3.2718,-3.2648,-3.2594,-3.2523,-3.2508,-3.2563,-3.2803,-3.3002,-3.3303,-3.37,-3.4268,-3.4816,-3.488,-3.5316,-3.5577,-3.5639,-3.5639,-3.5594,-3.5577,-3.5577,-3.5639,-3.5622,-3.5756,-3.5844,-3.6088,-3.5888,-3.6045,-3.6409,-3.6216,-3.6284,-3.6433,-3.6781,-3.6684,-3.6528,-3.6706,-3.6591,-3.6751,-3.6781,-3.5108,-3.3835,-3.3108,-3.2328,-3.1832,-3.1414,-3.1374,-3.1658,-3.1985,-3.2047,-3.2469,-3.2057,-3.1767,-3.0088,-2.8198,-2.6437,-2.2663,-2.0637,-1.9454,-1.7779,-1.5979,-1.2363,-0.8254,-0.5288,0.1186,0.9497,1.2213,1.1895,1.368,1.5745,1.2887,1.0492,1.2643,1.2473,-4.0325,-4.0631,-4.0489,-4.0441,-4.0389,-4.0101,-3.9962,-3.9882,-3.975,-3.9585,-3.9338,-3.8971,-3.8468,-3.7998,-3.7844,-3.7756,-3.7756,-3.7468,-3.7281,-3.7108,-3.6908,-3.6702,-3.6502,-3.636,-3.5968,-3.5476,-3.5144,-3.4864,-3.4545,-3.4448,-3.4448,-3.4593,-3.4084,-3.3899,-3.3745,-3.3366,-3.3011,-3.2586,-3.217,-3.1946,-3.1849,-3.1607,-3.1849,-3.2104,-3.2231,-3.2287,-3.2398,-3.2398,-3.2398,-3.2508,-3.2749,-3.2949,-3.3145,-3.3903,-3.4431,-3.4642,-3.5102,-3.5549,-3.5549,-3.5549,-3.5549,-3.5549,-3.5549,-3.5549,-3.5667,-3.58,-3.6088,-3.6259,-3.5932,-3.6148,-3.6426,-3.6367,-3.6557,-3.6781,-3.6939,-3.686,-3.6882,-3.7248,-3.7542,-3.7649,-3.7823,-3.8071,-3.7144,-3.7147,-3.704,-3.718,-3.758,-3.7812,-3.7947,-3.8004,-3.7731,-3.7223,-3.7053,-3.6644,-3.5875,-3.5159,-3.4963,-3.4355,-3.2227,-3.0742,-2.7915,-2.5244,-2.1996,-1.771,-1.3722,-1.1618,-0.7797,-0.0409,0.6661,0.8252,1.0133,1.3168,1.383,1.5333,1.5208,-4.0044,-4.0251,-4.0233,-4.0233,-4.0177,-3.9797,-3.9645,-3.9618,-3.9313,-3.9165,-3.898,-3.8473,-3.7964,-3.7542,-3.7281,-3.7164,-3.7087,-3.7066,-3.6891,-3.6788,-3.6702,-3.6419,-3.6174,-3.5793,-3.5391,-3.4864,-3.4593,-3.4118,-3.3591,-3.3678,-3.3832,-3.3984,-3.3575,-3.345,-3.3171,-3.2819,-3.2185,-3.1762,-3.1405,-3.1246,-3.1087,-3.0925,-3.1175,-3.1595,-3.1724,-3.1838,-3.2342,-3.2398,-3.2398,-3.2398,-3.2492,-3.2532,-3.2734,-3.3511,-3.3951,-3.4251,-3.4847,-3.527,-3.535,-3.5429,-3.5508,-3.5463,-3.5492,-3.552,-3.5728,-3.552,-3.5827,-3.6533,-3.6174,-3.6409,-3.6856,-3.7167,-3.6956,-3.7246,-3.7395,-3.7524,-3.7685,-3.8077,-3.8342,-3.8442,-3.8621,-3.884,-3.9016,-3.8665,-3.8514,-3.8534,-3.8808,-3.9033,-3.9527,-3.9623,-3.9573,-3.9344,-3.9296,-3.8918,-3.8307,-3.7854,-3.7537,-3.742,-3.6272,-3.6324,-3.5948,-3.3267,-2.9539,-2.8926,-2.5618,-2.548,-2.3701,-1.4707,-0.6497,0.0144,0.4291,0.6655,0.8422,0.8901,1.0551,-3.9779,-3.9845,-3.9826,-3.9914,-4.0,-3.967,-3.9521,-3.9452,-3.9264,-3.8865,-3.8473,-3.7964,-3.7487,-3.7147,-3.697,-3.6829,-3.6806,-3.6708,-3.6468,-3.6139,-3.6011,-3.5749,-3.5419,-3.5191,-3.4833,-3.4415,-3.4151,-3.3797,-3.3398,-3.3293,-3.3346,-3.3382,-3.3102,-3.2711,-3.2437,-3.2145,-3.1477,-3.0881,-3.0601,-3.0468,-3.0911,-3.0715,-3.1073,-3.1992,-3.2048,-3.216,-3.2398,-3.2398,-3.2398,-3.2398,-3.2398,-3.2342,-3.2327,-3.3055,-3.3475,-3.3767,-3.4462,-3.4922,-3.5274,-3.5354,-3.5371,-3.5446,-3.552,-3.5639,-3.5817,-3.5949,-3.6251,-3.6527,-3.6468,-3.6632,-3.697,-3.6913,-3.6856,-3.7469,-3.7879,-3.805,-3.8346,-3.8628,-3.8818,-3.8789,-3.9152,-3.951,-3.969,-3.98,-3.9675,-3.9652,-3.9948,-4.0233,-4.0516,-4.0745,-4.0529,-4.0399,-4.0301,-4.034,-3.9767,-3.981,-3.993,-3.9806,-3.968,-3.9549,-3.9328,-3.8528,-3.569,-3.6218,-3.5665,-3.2919,-2.9638,-2.5768,-1.9362,-1.1378,-0.5206,-0.0664,0.0839,0.272,0.3696,-3.9527,-3.9577,-3.9596,-3.9631,-3.9754,-3.9552,-3.9373,-3.9175,-3.9055,-3.8591,-3.7913,-3.7614,-3.7226,-3.693,-3.6788,-3.6766,-3.6725,-3.6585,-3.6199,-3.5907,-3.5671,-3.5266,-3.4911,-3.4642,-3.4464,-3.4084,-3.3848,-3.3555,-3.3256,-3.3256,-3.3081,-3.2904,-3.2672,-3.2382,-3.2382,-3.1607,-3.0955,-3.0119,-2.9785,-2.985,-3.0433,-3.0337,-3.0819,-3.1823,-3.1992,-3.216,-3.2342,-3.2398,-3.2342,-3.2342,-3.2302,-3.2262,-3.2398,-3.2641,-3.3093,-3.3585,-3.4023,-3.4587,-3.5005,-3.5245,-3.5198,-3.5182,-3.5321,-3.5532,-3.5888,-3.6191,-3.6191,-3.6766,-3.6667,-3.665,-3.7009,-3.7052,-3.7266,-3.7911,-3.805,-3.8216,-3.8504,-3.8807,-3.8961,-3.91,-3.9445,-3.9679,-4.0021,-4.0177,-4.0381,-4.0304,-4.038,-4.0539,-4.0672,-4.084,-4.0874,-4.0824,-4.0824,-4.0916,-4.0992,-4.068,-4.0407,-4.0476,-4.0398,-4.052,-4.0304,-3.9804,-3.9507,-3.867,-3.8058,-3.7811,-3.5653,-3.2278,-2.7497,-2.1939,-1.5514,-0.8771,-0.2915,-0.1269,-0.3752,-3.9346,-3.9577,-3.952,-3.9495,-3.9451,-3.9425,-3.9147,-3.8807,-3.8609,-3.8212,-3.7614,-3.7469,-3.7188,-3.6869,-3.6788,-3.6725,-3.6643,-3.6602,-3.6318,-3.582,-3.5627,-3.5311,-3.4816,-3.4415,-3.4134,-3.3984,-3.3694,-3.3346,-3.3165,-3.3165,-3.2866,-3.2539,-3.2468,-3.2382,-3.3011,-3.1946,-3.0615,-2.9401,-2.9198,-2.9574,-2.9766,-2.995,-3.0749,-3.148,-3.1823,-3.2048,-3.2342,-3.2342,-3.2342,-3.2231,-3.2191,-3.2135,-3.2079,-3.2437,-3.2895,-3.3407,-3.3853,-3.4382,-3.4851,-3.4994,-3.4994,-3.5024,-3.5165,-3.5424,-3.5705,-3.5837,-3.6045,-3.6766,-3.6708,-3.6873,-3.715,-3.7469,-3.7773,-3.8114,-3.8216,-3.8542,-3.8842,-3.9314,-3.9589,-4.0064,-3.9745,-3.9588,-4.0038,-4.0436,-4.081,-4.0913,-4.0886,-4.0898,-4.0898,-4.0913,-4.0986,-4.1,-4.1013,-4.1006,-4.1022,-4.1006,-4.0902,-4.0987,-4.0981,-4.094,-4.0863,-4.0463,-4.0295,-4.0326,-3.9865,-3.9071,-3.9279,-3.898,-3.384,-2.8619,-2.2851,-1.6353,-0.9689,-0.7076,-1.1211,-3.9231,-3.9354,-3.9328,-3.912,-3.8873,-3.897,-3.8865,-3.8621,-3.8147,-3.7738,-3.7469,-3.7188,-3.697,-3.6748,-3.6626,-3.6585,-3.6444,-3.6402,-3.6114,-3.5705,-3.5644,-3.5052,-3.4513,-3.4184,-3.3899,-3.3591,-3.3293,-3.3203,-3.3112,-3.3058,-3.2951,-3.2734,-3.2373,-3.2048,-3.1319,-3.048,-2.9842,-2.9176,-2.9485,-3.0135,-3.0194,-3.0543,-3.1168,-3.1977,-3.2048,-3.216,-3.2342,-3.2302,-3.2247,-3.2135,-3.2135,-3.1981,-3.1883,-3.2191,-3.2547,-3.3055,-3.3563,-3.3901,-3.4382,-3.4707,-3.4787,-3.493,-3.5148,-3.5407,-3.581,-3.6174,-3.6444,-3.6667,-3.6684,-3.6891,-3.7188,-3.7264,-3.7578,-3.8183,-3.8488,-3.8993,-3.9434,-4.0064,-4.0553,-4.1283,-4.1392,-4.1377,-4.1667,-4.1541,-4.174,-4.1673,-4.1651,-4.1179,-4.1063,-4.0988,-4.0981,-4.0987,-4.0994,-4.0994,-4.0987,-4.0974,-4.0974,-4.0974,-4.0974,-4.0948,-4.0882,-4.081,-4.0671,-4.0494,-4.0381,-4.0292,-4.015,-3.9862,-3.8909,-3.4877,-2.9533,-2.6896,-2.3501,-2.1515,-2.2949,-3.9026,-3.9073,-3.897,-3.8796,-3.8523,-3.8628,-3.8548,-3.8212,-3.7596,-3.7301,-3.7206,-3.6913,-3.6748,-3.6626,-3.6544,-3.6444,-3.6284,-3.6301,-3.6045,-3.5677,-3.5633,-3.4975,-3.4366,-3.4034,-3.3694,-3.3346,-3.315,-3.3058,-3.2881,-3.2935,-3.2827,-3.2594,-3.2302,-3.1407,-3.0615,-3.0435,-3.0194,-2.9574,-2.9693,-3.0154,-3.0421,-3.091,-3.1426,-3.2043,-3.2287,-3.2287,-3.2247,-3.2206,-3.2109,-3.2083,-3.2027,-3.1856,-3.1814,-3.2012,-3.2398,-3.2933,-3.3578,-3.3901,-3.4234,-3.4349,-3.4448,-3.4546,-3.5038,-3.5362,-3.5588,-3.5898,-3.6318,-3.6561,-3.673,-3.7255,-3.7674,-3.7676,-3.8169,-3.8809,-3.9415,-3.9926,-4.0258,-4.0904,-4.1306,-4.2082,-4.2579,-4.2791,-4.3005,-4.2931,-4.2797,-4.2609,-4.2412,-4.1906,-4.1393,-4.1271,-4.122,-4.1213,-4.1096,-4.103,-4.1003,-4.0937,-4.0937,-4.0953,-4.0953,-4.0945,-4.0902,-4.082,-4.0729,-4.0641,-4.0552,-4.0486,-4.0427,-3.9999,-3.9412,-3.8925,-3.6933,-3.5558,-3.6109,-3.4458,-3.2446,-3.8664,-3.8833,-3.8603,-3.8491,-3.846,-3.8396,-3.805,-3.7469,-3.7147,-3.693,-3.6829,-3.6829,-3.6667,-3.6544,-3.6502,-3.6402,-3.6301,-3.6284,-3.6071,-3.581,-3.5766,-3.5021,-3.4496,-3.4052,-3.3713,-3.3293,-3.3005,-3.2881,-3.2633,-3.2633,-3.2578,-3.2176,-3.1537,-3.0881,-3.0748,-3.0733,-3.0375,-2.9608,-2.9685,-3.0088,-3.0434,-3.0623,-3.1279,-3.1867,-3.2246,-3.2288,-3.2304,-3.2288,-3.2186,-3.2155,-3.1995,-3.1835,-3.189,-3.2155,-3.2703,-3.3377,-3.4177,-3.4426,-3.4441,-3.4489,-3.4406,-3.4586,-3.4424,-3.4758,-3.5295,-3.5887,-3.6378,-3.6886,-3.7234,-3.7994,-3.8613,-3.9013,-3.9427,-4.0078,-4.074,-4.1101,-4.1286,-4.163,-4.193,-4.2391,-4.281,-4.3107,-4.3426,-4.3478,-4.3755,-4.3708,-4.3499,-4.3147,-4.2587,-4.182,-4.176,-4.1624,-4.144,-4.114,-4.1081,-4.1138,-4.0924,-4.0932,-4.0924,-4.0915,-4.0888,-4.0878,-4.0757,-4.0692,-4.0676,-4.0616,-4.0506,-4.0438,-4.0298,-3.9849,-3.9375,-3.8971,-3.7858,-3.8796,-3.7802,-3.8548,-3.8603,-3.8364,-3.8117,-3.7845,-3.7559,-3.7261,-3.6974,-3.6891,-3.6788,-3.6725,-3.6626,-3.6585,-3.6502,-3.6419,-3.6343,-3.6284,-3.6284,-3.6259,-3.6131,-3.5985,-3.5588,-3.5068,-3.448,-3.4036,-3.3523,-3.3096,-3.2773,-3.2578,-3.2508,-3.216,-3.1652,-3.1248,-3.0881,-3.0673,-3.0703,-2.996,-2.9568,-2.9769,-3.0122,-3.0383,-3.07,-3.1224,-3.1754,-3.2285,-3.2361,-3.2436,-3.2796,-3.2871,-3.3006,-3.3006,-3.2976,-3.2991,-3.3334,-3.3844,-3.466,-3.5305,-3.5655,-3.5358,-3.5289,-3.5155,-3.4984,-3.4978,-3.5405,-3.5941,-3.6375,-3.6786,-3.7369,-3.7802,-3.8515,-3.9245,-3.9784,-4.0383,-4.1074,-4.1632,-4.1902,-4.2149,-4.2576,-4.2881,-4.3466,-4.3836,-4.3947,-4.421,-4.4441,-4.4694,-4.4731,-4.4601,-4.4238,-4.3684,-4.2898,-4.2384,-4.2248,-4.2092,-4.1859,-4.1568,-4.1538,-4.1169,-4.0888,-4.1121,-4.1238,-4.1149,-4.1117,-4.0858,-4.0706,-4.0642,-4.0571,-4.0506,-4.0485,-4.0441,-4.0462,-4.0088,-3.9921,-3.9919,-4.0378,-4.0626,-3.8332,-3.8219,-3.8052,-3.7739,-3.7354,-3.7048,-3.6869,-3.6788,-3.6788,-3.6748,-3.6643,-3.6544,-3.6502,-3.6402,-3.6343,-3.6301,-3.6276,-3.6233,-3.6191,-3.6148,-3.6191,-3.5722,-3.5299,-3.4704,-3.407,-3.3559,-3.3065,-3.2594,-3.2508,-3.2398,-3.212,-3.1537,-3.1306,-3.0864,-3.0463,-3.0094,-2.9748,-2.9633,-2.9859,-3.0322,-3.0601,-3.0862,-3.1213,-3.1645,-3.2119,-3.2263,-3.2391,-3.2941,-3.3191,-3.3285,-3.3223,-3.3423,-3.3516,-3.3864,-3.4574,-3.5292,-3.5694,-3.5732,-3.5553,-3.5545,-3.5514,-3.5506,-3.5649,-3.6247,-3.6603,-3.7015,-3.7589,-3.815,-3.8501,-3.8964,-3.9688,-4.0441,-4.118,-4.1946,-4.2257,-4.2612,-4.3066,-4.3567,-4.4134,-4.4763,-4.5014,-4.5082,-4.5263,-4.5438,-4.551,-4.5391,-4.5336,-4.5246,-4.4586,-4.3782,-4.3277,-4.3005,-4.2869,-4.2694,-4.2422,-4.2199,-4.2073,-4.2015,-4.2248,-4.2218,-4.1826,-4.1451,-4.133,-4.0945,-4.054,-4.0622,-4.081,-4.0539,-4.0434,-4.0569,-4.0737,-4.0506,-4.0354,-4.0442,-4.0579,-3.809,-3.7899,-3.7667,-3.7354,-3.6987,-3.6851,-3.6748,-3.6702,-3.6748,-3.665,-3.6485,-3.6485,-3.6402,-3.6343,-3.6284,-3.6276,-3.6251,-3.6208,-3.6165,-3.6036,-3.6062,-3.5739,-3.5144,-3.4496,-3.3969,-3.3371,-3.2819,-3.2468,-3.2453,-3.2272,-3.1992,-3.1437,-3.0969,-3.0459,-2.9914,-2.972,-2.9605,-2.9971,-3.0186,-3.051,-3.0773,-3.0923,-3.1084,-3.1411,-3.1587,-3.164,-3.1825,-3.2125,-3.2614,-3.2884,-3.3258,-3.3675,-3.3984,-3.4349,-3.5163,-3.571,-3.6135,-3.6166,-3.6086,-3.6045,-3.5878,-3.5951,-3.6075,-3.7024,-3.7579,-3.7736,-3.8221,-3.8997,-3.9433,-4.0027,-4.0737,-4.1109,-4.1735,-4.2501,-4.299,-4.3304,-4.3695,-4.4173,-4.4683,-4.5151,-4.5194,-4.5277,-4.5256,-4.5361,-4.5475,-4.5613,-4.5752,-4.5764,-4.5437,-4.4597,-4.4258,-4.3889,-4.3694,-4.3568,-4.3432,-4.3246,-4.3228,-4.3267,-4.3306,-4.3151,-4.2712,-4.228,-4.1834,-4.1667,-4.1537,-4.1238,-4.1186,-4.1181,-4.1266,-4.1262,-4.1296,-4.1049,-4.0965,-4.1068,-4.082,-3.8072,-3.7864,-3.7539,-3.7182,-3.6851,-3.6829,-3.6708,-3.6544,-3.6585,-3.6485,-3.636,-3.6343,-3.6343,-3.6284,-3.6301,-3.6251,-3.6225,-3.6122,-3.6122,-3.6036,-3.5993,-3.5605,-3.5068,-3.4447,-3.3853,-3.3251,-3.2749,-3.2398,-3.2413,-3.2231,-3.1724,-3.0762,-3.0596,-3.0545,-2.9631,-2.9522,-2.9894,-3.0348,-3.0489,-3.0626,-3.0618,-3.0663,-3.0681,-3.1164,-3.1469,-3.2152,-3.2568,-3.3293,-3.4061,-3.4673,-3.4882,-3.509,-3.5172,-3.5567,-3.5999,-3.6453,-3.6742,-3.6827,-3.6811,-3.6738,-3.678,-3.7033,-3.7448,-3.8117,-3.8573,-3.8556,-3.8918,-3.9791,-4.0452,-4.1016,-4.1558,-4.1859,-4.225,-4.2941,-4.3649,-4.3936,-4.425,-4.4688,-4.5151,-4.5235,-4.5256,-4.5235,-4.5213,-4.53,-4.54,-4.5545,-4.5715,-4.5814,-4.5854,-4.5378,-4.5312,-4.4982,-4.4586,-4.442,-4.4323,-4.4176,-4.4109,-4.3887,-4.3801,-4.3665,-4.3578,-4.3255,-4.29,-4.2865,-4.2731,-4.2331,-4.2195,-4.2551,-4.2555,-4.2242,-4.216,-4.2028,-4.2265,-4.2419,-4.1791,-3.7934,-3.7721,-3.7259,-3.697,-3.6829,-3.669,-3.6568,-3.6402,-3.6377,-3.6276,-3.6233,-3.6259,-3.6284,-3.6284,-3.6259,-3.6191,-3.6122,-3.6036,-3.5905,-3.5861,-3.5756,-3.5424,-3.4911,-3.4301,-3.3802,-3.3198,-3.2695,-3.2413,-3.2419,-3.2655,-3.2234,-3.126,-3.1291,-3.0993,-3.0106,-3.0231,-3.0432,-3.0831,-3.0904,-3.0829,-3.0742,-3.0808,-3.0829,-3.122,-3.175,-3.2376,-3.2861,-3.3616,-3.438,-3.489,-3.4978,-3.5225,-3.5439,-3.5743,-3.6182,-3.6707,-3.7071,-3.748,-3.748,-3.7539,-3.7583,-3.7828,-3.8383,-3.8896,-3.9373,-3.9429,-3.979,-4.0548,-4.0612,-4.1126,-4.1687,-4.2055,-4.249,-4.3142,-4.3679,-4.4121,-4.4439,-4.4808,-4.5014,-4.5038,-4.5061,-4.5061,-4.5084,-4.5178,-4.5303,-4.5473,-4.5648,-4.5824,-4.5867,-4.5893,-4.5925,-4.5859,-4.5316,-4.5212,-4.5192,-4.5037,-4.4901,-4.4641,-4.4361,-4.4361,-4.4353,-4.4199,-4.4014,-4.3738,-4.3482,-4.323,-4.3252,-4.3531,-4.3311,-4.2866,-4.2957,-4.3099,-4.3381,-4.3582,-4.3015,-3.7793,-3.7466,-3.7009,-3.6788,-3.6731,-3.6585,-3.6461,-3.6301,-3.6233,-3.6148,-3.6062,-3.6191,-3.6259,-3.6216,-3.6191,-3.6062,-3.5975,-3.5888,-3.5756,-3.5515,-3.5424,-3.4864,-3.4415,-3.3969,-3.3407,-3.2949,-3.2492,-3.2481,-3.2563,-3.2787,-3.276,-3.2331,-3.2179,-3.199,-3.1544,-3.1213,-3.1181,-3.1489,-3.1536,-3.1455,-3.1347,-3.1347,-3.1307,-3.1455,-3.1809,-3.2232,-3.2791,-3.3339,-3.4177,-3.4543,-3.4773,-3.4986,-3.535,-3.5672,-3.6054,-3.6523,-3.715,-3.7405,-3.748,-3.7539,-3.7786,-3.8214,-3.8882,-3.9365,-3.9765,-4.0187,-4.0614,-4.0758,-4.0823,-4.1209,-4.1778,-4.2239,-4.2711,-4.3214,-4.3744,-4.4229,-4.4568,-4.487,-4.4895,-4.4895,-4.4895,-4.4895,-4.4995,-4.5094,-4.5264,-4.5437,-4.5594,-4.5752,-4.5854,-4.5867,-4.5887,-4.5887,-4.5667,-4.5667,-4.5796,-4.5653,-4.5382,-4.5401,-4.518,-4.5173,-4.5126,-4.4982,-4.4702,-4.4305,-4.4081,-4.4128,-4.409,-4.423,-4.3928,-4.3742,-4.4052,-4.4316,-4.4269,-4.4381,-4.415,-3.7613,-3.7185,-3.6891,-3.6708,-3.6568,-3.6502,-3.6402,-3.6318,-3.6208,-3.6165,-3.6122,-3.6062,-3.6062,-3.6062,-3.6062,-3.5993,-3.5861,-3.5773,-3.5362,-3.5021,-3.4958,-3.4235,-3.3598,-3.3335,-3.2749,-3.2413,-3.2298,-3.2486,-3.2806,-3.2907,-3.2841,-3.2691,-3.3083,-3.2887,-3.2396,-3.225,-3.2412,-3.2489,-3.2513,-3.2482,-3.2403,-3.2304,-3.1942,-3.216,-3.2591,-3.3157,-3.3728,-3.3934,-3.4356,-3.4654,-3.475,-3.4817,-3.5052,-3.5479,-3.5928,-3.6368,-3.6952,-3.7345,-3.748,-3.7464,-3.7727,-3.8214,-3.8756,-3.9259,-3.9714,-4.0204,-4.0517,-4.0614,-4.0789,-4.1328,-4.1839,-4.2234,-4.2652,-4.3196,-4.3744,-4.414,-4.4486,-4.4719,-4.4865,-4.4865,-4.4865,-4.49,-4.4981,-4.5118,-4.5342,-4.5491,-4.5661,-4.58,-4.5827,-4.5827,-4.5827,-4.5827,-4.5827,-4.5827,-4.5808,-4.5835,-4.5693,-4.5841,-4.5873,-4.5653,-4.5588,-4.5723,-4.5444,-4.5021,-4.5168,-4.5382,-4.5304,-4.4946,-4.5142,-4.5093,-4.5393,-4.5587,-4.5403,-4.5198,-4.4967]}]]